[[{"header":{"parameterUnit":"m.s-1","parameterCategory":1,"la1":31.0,"la2":29.5877,"lo1":-88.7671,"lo2":-86.6584,"dy":0.0162,"dx":0.0185,"nx":115,"ny":88,"refTime":"2026-04-21T00:00:00:Z","depth":0,"parameterNumber":2,"parameterNumberName":"U-component_of_WINDS"},"data":[0.0,0.0,0.0,0.0,0.0,0.0,0.0,0.0,0.0,0.0,0.0,0.0,0.0,0.0,0.0,0.0,0.0,0.0,0.0,0.0,0.0,0.0,0.0,0.0,0.0,0.0,0.0,0.0,0.0,0.0,0.0,0.0,0.0,0.0,0.0,0.0,0.0,0.0,0.0,0.0,0.0,0.0,0.0,0.0,0.0,0.0,0.0,0.0,0.0,0.0,0.0,0.0,0.0,0.0,0.0,0.0,0.0,0.0,0.0,0.0,0.0,0.0,0.0,0.0,0.0,0.0,0.0,0.0,0.0,0.0,0.0,0.0,0.0,0.0,0.0,0.0,0.0,0.0,0.0,0.0,0.0,0.0,0.0,0.0,0.0,0.0,0.0,0.0,0.0,0.0,0.0,0.0,0.0,0.0,0.0,0.0,0.0,0.0,0.0,0.0,0.0,0.0,0.0,0.0,0.0,0.0,0.0,0.0,0.0,0.0,0.0,0.0,0.0,0.0,0.0,0.0,0.0,0.0,0.0,0.0,0.0,0.0,0.0,0.0,0.0,0.0,0.0,0.0,0.0,0.0,0.0,0.0,0.0,0.0,0.0,0.0,0.0,0.0,0.0,0.0,0.0,0.0,0.0,0.0,0.0,0.0,0.0,0.0,0.0,0.0,0.0,0.0,0.0,0.0,0.0,0.0,0.0,0.0,0.0,0.0,0.0,0.0,0.0,0.0,0.0,0.0,0.0,0.0,0.0,0.0,0.0,0.0,0.0,0.0,0.0,0.0,0.0,0.0,0.0,0.0,0.0,0.0,0.0,0.0,0.0,0.0,0.0,0.0,0.0,0.0,0.0,0.0,0.0,0.0,0.0,0.0,0.0,0.0,0.0,0.0,0.0,0.0,0.0,0.0,0.0,0.0,0.0,0.0,0.0,0.0,0.0,0.0,0.0,0.0,0.0,0.0,0.0,0.0,0.0,0.0,0.0,0.0,0.0,0.0,0.0,0.0,0.0,0.0,0.0,0.0,0.0,0.0,0.0,0.0,0.0,0.0,0.0,0.0,0.0,0.0,0.0,0.0,0.0,0.0,0.0,0.0,0.0,0.0,0.0,0.0,0.0,0.0,0.0,0.0,0.0,0.0,0.0,0.0,0.0,0.0,0.0,0.0,0.0,0.0,0.0,0.0,0.0,0.0,0.0,0.0,0.0,0.0,0.0,0.0,0.0,0.0,0.0,0.0,0.0,0.0,0.0,0.0,0.0,0.0,0.0,0.0,0.0,0.0,0.0,0.0,0.0,0.0,0.0,0.0,0.0,0.0,0.0,0.0,0.0,0.0,0.0,0.0,0.0,0.0,0.0,0.0,0.0,0.0,0.0,0.0,0.0,0.0,0.0,0.0,0.0,0.0,0.0,0.0,0.0,0.0,0.0,0.0,0.0,0.0,0.0,0.0,0.0,0.0,0.0,0.0,0.0,0.0,0.0,0.0,0.0,0.0,0.0,0.0,0.0,0.0,0.0,0.0,0.0,0.0,0.0,0.0,0.0,0.0,0.0,0.0,0.0,0.0,0.0,0.0,0.0,0.0,0.0,0.0,0.0,0.0,0.0,0.0,0.0,0.0,0.0,0.0,0.0,0.0,0.0,0.0,0.0,0.0,0.0,0.0,0.0,0.0,0.0,0.0,0.0,0.0,0.0,0.0,0.0,0.0,0.0,0.0,0.0,0.0,0.0,0.0,0.0,0.0,0.0,0.0,0.0,0.0,0.0,0.0,0.0,0.0,0.0,0.0,0.0,0.0,0.0,0.0,0.0,0.0,0.0,0.0,0.0,0.0,0.0,0.0,0.0,0.0,0.0,0.0,0.0,0.0,0.0,0.0,0.0,0.0,0.0,0.0,0.0,0.0,0.0,0.0,0.0,0.0,0.0,0.0,0.0,0.0,0.0,0.0,0.0,0.0,0.0,0.0,0.0,0.0,0.0,0.0,0.0,0.0,0.0,0.0,0.0,0.0,0.0,0.0,0.0,0.0,0.0,0.0,0.0,0.0,0.0,0.0,0.0,0.0,0.0,0.0,0.0,0.0,0.0,0.0,0.0,0.0,0.0,0.0,0.0,0.0,0.0,0.0,0.0,0.0,0.0,0.0,0.0,0.0,0.0,0.0,0.0,0.0,0.0,0.0,0.0,0.0,0.0,0.0,0.0,0.0,0.0,0.0,0.0,0.0,0.0,0.0,0.0,0.0,0.0,0.0,0.0,0.0,0.0,0.0,0.0,0.0,0.0,0.0,0.0,0.0,0.0,0.0,0.0,0.0,0.0,0.0,0.0,0.0,0.0,0.0,0.0,0.0,0.0,0.0,0.0,0.0,0.0,0.0,0.0,0.0,0.0,0.0,0.0,0.0,0.0,0.0,0.0,0.0,0.0,0.0,0.0,0.0,0.0,0.0,0.0,0.0,0.0,0.0,0.0,0.0,0.0,0.0,0.0,0.0,0.0,0.0,0.0,0.0,0.0,0.0,0.0,0.0,0.0,0.0,0.0,0.0,0.0,0.0,0.0,0.0,0.0,0.0,0.0,0.0,0.0,0.0,0.0,0.0,0.0,0.0,0.0,0.0,0.0,0.0,0.0,0.0,0.0,0.0,0.0,0.0,0.0,0.0,0.0,0.0,0.0,0.0,0.0,0.0,0.0,0.0,0.0,0.0,0.0,0.0,0.0,0.0,0.0,0.0,0.0,0.0,0.0,0.0,0.0,0.0,0.0,0.0,0.0,0.0,0.0,0.0,0.0,0.0,0.0,0.0,0.0,0.0,0.0,0.0,0.0,0.0,0.0,0.0,0.0,0.0,0.0,0.0,0.0,0.0,0.0,0.0,0.0,0.0,0.0,0.0,0.0,0.0,0.0,0.0,0.0,0.0,0.0,0.0,0.0,0.0,0.0,0.0,0.0,0.0,0.0,0.0,0.0,0.0,0.0,0.0,0.0,0.0,0.0,0.0,0.0,0.0,0.0,0.0,0.0,0.0,0.0,0.0,0.0,0.0,0.0,0.0,0.0,0.0,0.0,0.0,0.0,0.0,0.0,0.0,0.0,0.0,0.0,0.0,0.0,0.0,0.0,0.0,0.0,0.0,0.0,0.0,0.0,0.0,0.0,0.0,0.0,0.0,0.0,0.0,0.0,0.0,0.0,0.0,0.0,0.0,0.0,0.0,0.0,0.0,0.0,0.0,0.0,0.0,0.0,0.0,0.0,0.0,0.0,0.0,0.0,0.0,0.0,0.0,0.0,0.0,0.0,0.0,0.0,0.0,0.0,0.0,0.0,0.0,0.0,0.0,0.0,0.0,0.0,0.0,0.0,0.0,0.0,0.0,0.0,0.0,0.0,0.0,0.0,0.0,0.0,0.0,0.0,0.0,0.0,0.0,0.0,0.0,0.0,0.0,0.0,0.0,0.0,0.0,0.0,0.0,0.0,0.0,0.0,0.0,0.0,0.0,0.0,0.0,0.0,0.0,0.0,0.0,0.0,0.0,0.0,0.0,0.0,0.0,0.0,0.0,0.0,0.0,0.0,0.0,0.0,0.0,0.0,0.0,0.0,0.0,0.0,0.0,0.0,0.0,0.0,0.0,0.0,0.0,0.0,0.0,0.0,0.0,0.0,0.0,0.0,0.0,0.0,0.0,0.0,0.0,0.0,0.0,0.0,0.0,0.0,0.0,0.0,0.0,0.0,0.0,0.0,0.0,0.0,0.0,0.0,0.0,0.0,0.0,0.0,0.0,0.0,0.0,0.0,0.0,0.0,0.0,0.0,0.0,0.0,0.0,0.0,0.0,0.0,0.0,0.0,0.0,0.0,0.0,0.0,0.0,0.0,0.0,0.0,0.0,0.0,0.0,0.0,0.0,0.0,0.0,0.0,0.0,0.0,0.0,0.0,0.0,0.0,0.0,0.0,0.0,0.0,0.0,0.0,0.0,0.0,0.0,0.0,0.0,0.0,0.0,0.0,0.0,0.0,0.0,0.0,0.0,0.0,0.0,0.0,0.0,0.0,0.0,0.0,0.0,0.0,0.0,0.0,0.0,0.0,0.0,0.0,0.0,0.0,0.0,0.0,0.0,0.0,0.0,0.0,0.0,0.0,0.0,0.0,0.0,0.0,0.0,0.0,0.0,0.0,0.0,0.0,0.0,0.0,0.0,0.0,0.0,0.0,0.0,0.0,0.0,0.0,0.0,0.0,0.0,0.0,0.0,0.0,0.0,0.0,0.0,0.0,0.0,0.0,0.0,0.0,0.0,-3.9586,0.0,0.0,0.0,0.0,0.0,0.0,0.0,0.0,0.0,0.0,0.0,0.0,0.0,0.0,0.0,0.0,0.0,0.0,0.0,0.0,0.0,0.0,0.0,0.0,0.0,0.0,0.0,0.0,0.0,0.0,0.0,0.0,0.0,0.0,0.0,0.0,0.0,0.0,0.0,0.0,0.0,0.0,0.0,0.0,0.0,0.0,0.0,0.0,0.0,0.0,0.0,0.0,0.0,0.0,0.0,0.0,0.0,0.0,0.0,0.0,0.0,0.0,0.0,0.0,0.0,0.0,0.0,0.0,0.0,0.0,0.0,0.0,0.0,0.0,0.0,0.0,0.0,0.0,0.0,0.0,0.0,0.0,0.0,0.0,0.0,0.0,0.0,0.0,0.0,0.0,0.0,0.0,0.0,0.0,0.0,0.0,0.0,0.0,0.0,0.0,0.0,0.0,0.0,0.0,0.0,0.0,0.0,0.0,0.0,0.0,-4.2258,-4.2258,-4.1069,-4.0412,-4.0357,0.0,0.0,0.0,0.0,0.0,0.0,0.0,0.0,0.0,0.0,0.0,0.0,0.0,0.0,0.0,0.0,0.0,0.0,0.0,0.0,0.0,0.0,0.0,0.0,0.0,0.0,0.0,0.0,0.0,0.0,0.0,0.0,0.0,0.0,0.0,0.0,0.0,0.0,0.0,0.0,0.0,0.0,0.0,0.0,0.0,0.0,0.0,0.0,0.0,0.0,0.0,0.0,0.0,0.0,0.0,0.0,0.0,0.0,0.0,0.0,0.0,0.0,0.0,0.0,0.0,0.0,0.0,0.0,0.0,0.0,0.0,0.0,0.0,0.0,0.0,0.0,0.0,0.0,0.0,0.0,0.0,0.0,0.0,0.0,0.0,0.0,0.0,0.0,0.0,0.0,0.0,0.0,0.0,0.0,0.0,0.0,0.0,0.0,0.0,0.0,0.0,0.0,0.0,0.0,0.0,0.0,0.0,0.0,0.0,0.0,0.0,0.0,-4.2196,-4.1203,-4.0747,0.0,0.0,0.0,0.0,0.0,0.0,0.0,0.0,0.0,0.0,0.0,0.0,0.0,0.0,0.0,0.0,0.0,0.0,0.0,0.0,0.0,0.0,0.0,0.0,0.0,0.0,0.0,0.0,0.0,0.0,0.0,0.0,0.0,0.0,0.0,0.0,0.0,0.0,0.0,0.0,0.0,0.0,0.0,0.0,0.0,0.0,0.0,0.0,0.0,0.0,0.0,0.0,0.0,0.0,0.0,0.0,0.0,0.0,0.0,0.0,0.0,0.0,0.0,0.0,0.0,0.0,0.0,0.0,0.0,0.0,0.0,0.0,0.0,0.0,0.0,0.0,0.0,0.0,0.0,0.0,0.0,0.0,0.0,0.0,0.0,0.0,0.0,0.0,0.0,0.0,0.0,0.0,0.0,0.0,0.0,0.0,0.0,0.0,0.0,0.0,0.0,0.0,0.0,0.0,0.0,0.0,0.0,0.0,0.0,0.0,-4.3846,-4.4544,-4.3039,0.0,-3.9992,0.0,0.0,0.0,0.0,0.0,0.0,0.0,0.0,0.0,0.0,0.0,0.0,0.0,0.0,0.0,0.0,0.0,0.0,0.0,0.0,0.0,0.0,0.0,0.0,0.0,0.0,0.0,0.0,0.0,0.0,0.0,0.0,0.0,0.0,0.0,0.0,0.0,0.0,0.0,0.0,0.0,0.0,0.0,0.0,0.0,0.0,0.0,0.0,0.0,0.0,0.0,0.0,0.0,0.0,0.0,0.0,0.0,0.0,0.0,0.0,0.0,0.0,0.0,0.0,0.0,0.0,0.0,0.0,0.0,0.0,0.0,0.0,0.0,0.0,0.0,0.0,0.0,0.0,0.0,0.0,0.0,0.0,0.0,0.0,0.0,0.0,0.0,0.0,0.0,0.0,0.0,0.0,0.0,0.0,0.0,0.0,0.0,0.0,0.0,0.0,0.0,0.0,0.0,0.0,0.0,0.0,0.0,0.0,0.0,0.0,-4.5314,-4.6104,-4.3644,-4.1534,0.0,0.0,0.0,0.0,0.0,0.0,0.0,0.0,0.0,0.0,0.0,0.0,0.0,0.0,0.0,0.0,0.0,0.0,0.0,0.0,0.0,0.0,0.0,0.0,0.0,0.0,0.0,0.0,0.0,0.0,0.0,0.0,0.0,0.0,0.0,0.0,0.0,0.0,0.0,0.0,0.0,0.0,0.0,0.0,0.0,0.0,0.0,0.0,0.0,0.0,0.0,0.0,0.0,0.0,0.0,0.0,0.0,0.0,0.0,0.0,0.0,0.0,0.0,0.0,0.0,0.0,0.0,0.0,0.0,0.0,0.0,0.0,0.0,0.0,0.0,0.0,0.0,0.0,0.0,0.0,0.0,0.0,0.0,0.0,0.0,0.0,0.0,0.0,0.0,0.0,0.0,0.0,0.0,0.0,0.0,0.0,0.0,0.0,0.0,0.0,0.0,0.0,0.0,0.0,0.0,0.0,0.0,0.0,0.0,0.0,-4.5461,-4.5516,-4.5957,-4.3424,-4.1423,-4.0249,0.0,0.0,0.0,0.0,0.0,0.0,0.0,0.0,0.0,0.0,0.0,0.0,0.0,0.0,0.0,0.0,0.0,0.0,0.0,0.0,0.0,0.0,0.0,0.0,0.0,0.0,0.0,0.0,0.0,0.0,0.0,0.0,0.0,0.0,0.0,0.0,0.0,0.0,0.0,0.0,0.0,0.0,0.0,0.0,0.0,0.0,0.0,0.0,0.0,0.0,0.0,0.0,0.0,0.0,0.0,0.0,0.0,0.0,0.0,0.0,0.0,0.0,0.0,0.0,0.0,0.0,0.0,0.0,0.0,0.0,0.0,0.0,0.0,0.0,0.0,0.0,0.0,0.0,0.0,0.0,0.0,0.0,0.0,0.0,0.0,0.0,0.0,0.0,0.0,0.0,0.0,0.0,0.0,0.0,0.0,0.0,0.0,0.0,0.0,0.0,0.0,0.0,0.0,0.0,0.0,0.0,0.0,0.0,-4.5792,-4.4433,-4.3662,-4.3681,-4.2047,-4.1113,0.0,0.0,0.0,0.0,0.0,0.0,0.0,0.0,0.0,0.0,0.0,0.0,0.0,0.0,0.0,0.0,0.0,0.0,0.0,0.0,0.0,0.0,0.0,0.0,0.0,0.0,0.0,0.0,0.0,0.0,0.0,0.0,0.0,0.0,0.0,0.0,0.0,0.0,0.0,0.0,0.0,0.0,0.0,0.0,0.0,0.0,0.0,0.0,0.0,0.0,0.0,0.0,0.0,0.0,0.0,0.0,0.0,0.0,0.0,0.0,0.0,0.0,0.0,0.0,0.0,0.0,0.0,0.0,0.0,0.0,0.0,0.0,0.0,0.0,0.0,0.0,0.0,0.0,0.0,0.0,0.0,0.0,0.0,0.0,0.0,0.0,0.0,0.0,0.0,0.0,0.0,0.0,0.0,0.0,0.0,0.0,0.0,0.0,0.0,0.0,0.0,0.0,0.0,0.0,0.0,0.0,0.0,0.0,0.0,-4.5828,-4.5847,-4.5076,-4.357,-4.2433,-4.1387,0.0,0.0,0.0,0.0,0.0,0.0,0.0,0.0,0.0,0.0,0.0,0.0,0.0,0.0,0.0,0.0,0.0,0.0,0.0,0.0,0.0,0.0,0.0,0.0,0.0,0.0,0.0,0.0,0.0,0.0,0.0,0.0,0.0,0.0,0.0,0.0,0.0,0.0,0.0,0.0,0.0,0.0,0.0,0.0,0.0,0.0,0.0,0.0,0.0,0.0,0.0,0.0,0.0,0.0,0.0,0.0,0.0,0.0,0.0,0.0,0.0,0.0,0.0,0.0,0.0,0.0,0.0,0.0,0.0,0.0,0.0,0.0,0.0,0.0,0.0,0.0,0.0,0.0,0.0,0.0,0.0,0.0,0.0,0.0,0.0,0.0,0.0,0.0,0.0,0.0,0.0,0.0,0.0,0.0,0.0,0.0,0.0,0.0,0.0,0.0,0.0,0.0,0.0,0.0,0.0,0.0,0.0,0.0,0.0,-4.5498,0.0,-4.581,-4.3975,-4.2855,-4.1662,0.0,0.0,0.0,0.0,0.0,0.0,0.0,0.0,0.0,0.0,0.0,0.0,0.0,0.0,0.0,0.0,0.0,0.0,0.0,0.0,0.0,0.0,0.0,0.0,0.0,0.0,0.0,0.0,0.0,0.0,0.0,0.0,0.0,0.0,0.0,0.0,0.0,0.0,0.0,0.0,0.0,0.0,0.0,0.0,0.0,0.0,0.0,0.0,0.0,0.0,0.0,0.0,0.0,0.0,0.0,0.0,0.0,0.0,0.0,0.0,0.0,0.0,0.0,0.0,0.0,0.0,0.0,0.0,0.0,0.0,0.0,0.0,0.0,0.0,0.0,0.0,0.0,0.0,0.0,0.0,0.0,0.0,0.0,0.0,0.0,0.0,0.0,0.0,0.0,0.0,0.0,0.0,0.0,0.0,0.0,0.0,0.0,0.0,0.0,0.0,0.0,0.0,0.0,0.0,0.0,0.0,0.0,0.0,-4.3955,-4.4709,-4.5553,-4.559,-4.4727,-4.3222,-4.1956,0.0,0.0,0.0,0.0,0.0,0.0,0.0,0.0,0.0,0.0,0.0,0.0,0.0,0.0,0.0,0.0,0.0,0.0,0.0,0.0,0.0,0.0,0.0,0.0,0.0,0.0,0.0,0.0,0.0,0.0,0.0,0.0,0.0,0.0,0.0,0.0,0.0,0.0,0.0,0.0,0.0,0.0,0.0,0.0,0.0,0.0,0.0,0.0,0.0,0.0,0.0,0.0,0.0,0.0,0.0,0.0,0.0,0.0,0.0,0.0,0.0,0.0,0.0,0.0,0.0,0.0,0.0,0.0,0.0,0.0,0.0,0.0,0.0,0.0,0.0,0.0,0.0,0.0,0.0,0.0,0.0,0.0,0.0,0.0,0.0,0.0,0.0,0.0,0.0,0.0,0.0,0.0,0.0,0.0,0.0,0.0,0.0,0.0,0.0,0.0,0.0,0.0,0.0,0.0,0.0,0.0,0.0,0.0,0.0,-4.5678,-4.6452,-4.647,-4.5661,-4.456,-4.3075,0.0,0.0,0.0,0.0,0.0,0.0,0.0,0.0,0.0,0.0,0.0,0.0,0.0,0.0,0.0,0.0,0.0,0.0,0.0,0.0,0.0,0.0,0.0,0.0,0.0,0.0,0.0,0.0,0.0,0.0,0.0,0.0,0.0,0.0,0.0,0.0,0.0,0.0,0.0,0.0,0.0,0.0,0.0,0.0,0.0,0.0,0.0,0.0,0.0,0.0,0.0,0.0,0.0,0.0,0.0,0.0,0.0,0.0,0.0,0.0,0.0,0.0,0.0,0.0,0.0,0.0,0.0,0.0,0.0,0.0,0.0,0.0,0.0,0.0,0.0,0.0,0.0,0.0,0.0,0.0,0.0,0.0,0.0,0.0,0.0,0.0,0.0,0.0,0.0,0.0,0.0,0.0,0.0,0.0,0.0,0.0,0.0,0.0,0.0,0.0,0.0,0.0,0.0,0.0,0.0,0.0,0.0,0.0,0.0,-4.8864,-4.8735,-4.8403,-4.7924,-4.6397,-4.4599,-4.2508,0.0,0.0,0.0,0.0,0.0,0.0,0.0,0.0,0.0,0.0,0.0,0.0,0.0,0.0,0.0,0.0,0.0,0.0,0.0,0.0,0.0,0.0,0.0,0.0,0.0,0.0,0.0,0.0,0.0,0.0,0.0,0.0,0.0,0.0,0.0,0.0,0.0,0.0,0.0,0.0,0.0,0.0,0.0,0.0,0.0,0.0,0.0,0.0,0.0,0.0,0.0,0.0,0.0,0.0,0.0,0.0,0.0,0.0,0.0,0.0,0.0,0.0,0.0,0.0,0.0,0.0,0.0,0.0,0.0,0.0,0.0,0.0,0.0,0.0,0.0,0.0,0.0,0.0,0.0,0.0,0.0,0.0,0.0,0.0,0.0,0.0,0.0,0.0,0.0,0.0,0.0,0.0,0.0,0.0,0.0,0.0,0.0,0.0,0.0,0.0,0.0,0.0,0.0,0.0,0.0,0.0,0.0,0.0,-5.3789,-5.2242,-5.1351,-5.1074,-4.8602,-4.6471,0.0,0.0,0.0,0.0,0.0,0.0,0.0,0.0,0.0,0.0,0.0,0.0,0.0,0.0,0.0,0.0,0.0,0.0,0.0,0.0,0.0,0.0,0.0,0.0,0.0,0.0,0.0,0.0,0.0,0.0,0.0,0.0,0.0,0.0,0.0,0.0,0.0,0.0,0.0,0.0,0.0,0.0,0.0,0.0,0.0,0.0,0.0,0.0,0.0,0.0,0.0,0.0,0.0,0.0,0.0,0.0,0.0,0.0,0.0,0.0,0.0,0.0,0.0,0.0,0.0,0.0,0.0,0.0,0.0,0.0,0.0,0.0,0.0,0.0,0.0,0.0,0.0,0.0,0.0,0.0,0.0,0.0,0.0,0.0,0.0,0.0,0.0,0.0,0.0,0.0,0.0,0.0,0.0,0.0,0.0,0.0,0.0,0.0,0.0,0.0,0.0,0.0,0.0,0.0,0.0,0.0,0.0,0.0,0.0,-5.5501,-5.6825,-5.6298,-5.3913,-5.0726,-4.7997,0.0,0.0,0.0,0.0,0.0,0.0,0.0,0.0,0.0,0.0,0.0,0.0,0.0,0.0,0.0,0.0,0.0,0.0,0.0,0.0,0.0,0.0,0.0,0.0,0.0,0.0,0.0,0.0,0.0,0.0,0.0,0.0,0.0,0.0,0.0,0.0,0.0,0.0,0.0,0.0,0.0,0.0,0.0,0.0,0.0,0.0,0.0,0.0,0.0,0.0,0.0,0.0,0.0,0.0,0.0,0.0,0.0,0.0,0.0,0.0,0.0,0.0,0.0,0.0,0.0,0.0,0.0,0.0,0.0,0.0,0.0,0.0,0.0,0.0,0.0,0.0,0.0,0.0,0.0,0.0,0.0,0.0,0.0,0.0,0.0,0.0,0.0,0.0,0.0,0.0,0.0,0.0,0.0,0.0,0.0,0.0,0.0,0.0,0.0,0.0,0.0,0.0,0.0,0.0,0.0,0.0,0.0,0.0,-5.3588,-5.7249,-5.9279,-5.9233,-5.7013,-5.3258,-4.993,0.0,0.0,0.0,0.0,0.0,0.0,0.0,0.0,0.0,0.0,0.0,0.0,0.0,0.0,0.0,0.0,0.0,0.0,0.0,0.0,0.0,0.0,0.0,0.0,0.0,0.0,0.0,0.0,0.0,0.0,0.0,0.0,0.0,0.0,0.0,0.0,0.0,0.0,0.0,0.0,0.0,0.0,0.0,0.0,0.0,0.0,0.0,0.0,0.0,0.0,0.0,0.0,0.0,0.0,0.0,0.0,0.0,0.0,0.0,0.0,0.0,0.0,0.0,0.0,0.0,0.0,0.0,0.0,0.0,0.0,0.0,0.0,0.0,0.0,0.0,0.0,0.0,0.0,0.0,0.0,0.0,0.0,0.0,0.0,0.0,0.0,0.0,0.0,0.0,0.0,0.0,0.0,0.0,0.0,0.0,0.0,0.0,0.0,0.0,0.0,0.0,0.0,0.0,0.0,0.0,0.0,0.0,0.0,-5.4871,-5.8754,-6.0429,-6.0789,-5.9711,-5.5639,-5.1825,0.0,0.0,0.0,0.0,0.0,0.0,0.0,0.0,0.0,0.0,0.0,0.0,0.0,0.0,0.0,0.0,0.0,0.0,0.0,0.0,0.0,0.0,0.0,0.0,0.0,0.0,0.0,0.0,0.0,0.0,0.0,0.0,0.0,0.0,0.0,0.0,0.0,0.0,0.0,0.0,0.0,0.0,0.0,0.0,0.0,0.0,0.0,0.0,0.0,0.0,0.0,0.0,0.0,0.0,0.0,0.0,0.0,0.0,0.0,0.0,0.0,0.0,0.0,0.0,0.0,0.0,0.0,0.0,0.0,0.0,0.0,0.0,0.0,0.0,0.0,0.0,0.0,0.0,0.0,0.0,0.0,0.0,0.0,0.0,0.0,0.0,0.0,0.0,0.0,0.0,0.0,0.0,0.0,0.0,0.0,0.0,0.0,0.0,0.0,0.0,0.0,0.0,0.0,0.0,0.0,0.0,0.0,0.0,-5.6878,-5.9587,-6.1782,-6.1855,-5.9675,-5.5597,-5.216,0.0,0.0,0.0,0.0,0.0,0.0,0.0,0.0,0.0,0.0,0.0,0.0,0.0,0.0,0.0,0.0,0.0,0.0,0.0,0.0,0.0,0.0,0.0,0.0,0.0,0.0,0.0,0.0,0.0,0.0,0.0,0.0,0.0,0.0,0.0,0.0,0.0,0.0,0.0,0.0,0.0,0.0,0.0,0.0,0.0,0.0,0.0,0.0,-4.2637,0.0,0.0,0.0,0.0,0.0,0.0,0.0,0.0,0.0,0.0,0.0,0.0,0.0,0.0,0.0,0.0,0.0,0.0,0.0,0.0,0.0,0.0,0.0,0.0,0.0,0.0,0.0,0.0,0.0,0.0,0.0,0.0,0.0,0.0,0.0,0.0,0.0,0.0,0.0,0.0,0.0,0.0,0.0,0.0,0.0,0.0,0.0,0.0,0.0,0.0,0.0,0.0,0.0,0.0,0.0,0.0,0.0,0.0,0.0,-5.7965,-6.0358,-6.1933,-6.1897,-6.0129,-5.6801,-5.3495,0.0,0.0,0.0,0.0,0.0,0.0,0.0,0.0,0.0,0.0,0.0,0.0,0.0,0.0,0.0,0.0,0.0,0.0,0.0,0.0,0.0,0.0,0.0,0.0,0.0,0.0,0.0,0.0,0.0,0.0,0.0,0.0,0.0,0.0,0.0,0.0,0.0,0.0,0.0,0.0,0.0,0.0,0.0,0.0,0.0,0.0,0.0,0.0,0.0,0.0,0.0,0.0,0.0,0.0,0.0,0.0,0.0,0.0,0.0,0.0,0.0,0.0,0.0,0.0,0.0,0.0,0.0,0.0,0.0,0.0,0.0,0.0,0.0,0.0,0.0,0.0,0.0,0.0,0.0,0.0,0.0,0.0,0.0,0.0,0.0,0.0,0.0,0.0,0.0,0.0,0.0,0.0,0.0,0.0,0.0,0.0,0.0,0.0,0.0,0.0,0.0,0.0,0.0,0.0,0.0,0.0,0.0,-5.5825,-5.86,-6.0878,-6.1657,-6.1551,-6.0568,-5.8,-5.4785,-5.093,0.0,0.0,0.0,0.0,0.0,0.0,0.0,0.0,0.0,0.0,0.0,0.0,0.0,0.0,0.0,0.0,0.0,0.0,0.0,0.0,0.0,0.0,0.0,0.0,0.0,0.0,0.0,0.0,0.0,0.0,0.0,0.0,0.0,0.0,0.0,0.0,0.0,0.0,-4.1698,-4.2896,0.0,0.0,0.0,0.0,0.0,0.0,0.0,0.0,-4.4682,0.0,0.0,0.0,0.0,0.0,0.0,0.0,0.0,0.0,0.0,0.0,0.0,0.0,0.0,0.0,0.0,0.0,0.0,0.0,0.0,0.0,0.0,0.0,0.0,0.0,0.0,0.0,0.0,0.0,0.0,0.0,0.0,0.0,0.0,0.0,0.0,0.0,0.0,0.0,0.0,0.0,0.0,0.0,0.0,0.0,0.0,0.0,0.0,0.0,0.0,0.0,0.0,0.0,0.0,0.0,0.0,-5.3398,-5.664,-5.9116,-6.0784,-6.1592,-6.1251,-5.9642,-5.7151,-5.4234,-5.0967,0.0,0.0,0.0,0.0,0.0,0.0,0.0,0.0,0.0,0.0,0.0,0.0,0.0,0.0,0.0,0.0,0.0,0.0,0.0,0.0,0.0,0.0,0.0,0.0,0.0,0.0,0.0,0.0,0.0,0.0,0.0,0.0,0.0,0.0,0.0,0.0,0.0,0.0,0.0,-4.3768,-4.4613,0.0,0.0,0.0,0.0,0.0,0.0,0.0,0.0,-4.5052,0.0,0.0,0.0,0.0,0.0,0.0,0.0,0.0,0.0,0.0,0.0,0.0,0.0,0.0,0.0,0.0,0.0,0.0,0.0,0.0,0.0,0.0,0.0,0.0,0.0,0.0,0.0,0.0,0.0,0.0,0.0,0.0,0.0,0.0,0.0,0.0,0.0,0.0,0.0,0.0,0.0,0.0,0.0,0.0,0.0,0.0,0.0,0.0,0.0,0.0,0.0,0.0,0.0,0.0,0.0,-5.4249,-5.7429,-5.9642,-6.0757,-6.1117,-6.0273,-5.8201,-5.6081,-5.3463,0.0,0.0,0.0,0.0,0.0,0.0,0.0,0.0,0.0,0.0,0.0,0.0,0.0,0.0,0.0,0.0,0.0,0.0,0.0,0.0,0.0,0.0,0.0,0.0,0.0,0.0,0.0,0.0,0.0,0.0,0.0,0.0,0.0,0.0,0.0,0.0,0.0,0.0,0.0,0.0,-4.601,-4.6896,-4.6199,0.0,0.0,0.0,0.0,0.0,0.0,-4.6328,-4.5941,0.0,0.0,0.0,0.0,0.0,0.0,0.0,0.0,0.0,0.0,0.0,0.0,0.0,0.0,0.0,0.0,0.0,0.0,0.0,0.0,0.0,0.0,0.0,0.0,0.0,0.0,0.0,0.0,0.0,0.0,0.0,0.0,0.0,0.0,0.0,0.0,0.0,0.0,0.0,0.0,0.0,0.0,0.0,0.0,0.0,0.0,0.0,0.0,0.0,0.0,0.0,0.0,0.0,0.0,0.0,-5.442,-5.7561,-5.9527,-6.0236,-6.0328,-5.9191,-5.6776,-5.4886,-5.238,0.0,0.0,0.0,0.0,0.0,0.0,0.0,0.0,0.0,0.0,0.0,0.0,0.0,0.0,0.0,0.0,0.0,0.0,0.0,0.0,0.0,0.0,0.0,0.0,0.0,0.0,0.0,0.0,0.0,0.0,0.0,0.0,0.0,0.0,0.0,0.0,0.0,0.0,0.0,0.0,0.0,-4.8913,-4.8648,-4.7689,0.0,0.0,0.0,0.0,-4.6259,-4.7103,0.0,0.0,0.0,0.0,0.0,0.0,0.0,0.0,0.0,0.0,0.0,0.0,0.0,0.0,0.0,0.0,0.0,0.0,0.0,0.0,0.0,0.0,0.0,0.0,0.0,0.0,0.0,0.0,0.0,0.0,0.0,0.0,0.0,0.0,0.0,0.0,0.0,0.0,0.0,0.0,0.0,0.0,0.0,0.0,0.0,0.0,0.0,0.0,0.0,0.0,0.0,0.0,0.0,0.0,0.0,0.0,-5.294,-5.606,-5.7934,-5.85,-5.9177,-5.8336,-5.5838,-5.3521,-5.0747,0.0,0.0,0.0,0.0,0.0,0.0,0.0,0.0,0.0,0.0,0.0,0.0,0.0,0.0,0.0,0.0,0.0,0.0,0.0,0.0,0.0,0.0,0.0,0.0,0.0,0.0,0.0,0.0,0.0,0.0,0.0,0.0,0.0,0.0,0.0,0.0,0.0,0.0,0.0,0.0,0.0,-4.9373,-4.8017,-4.8269,-4.8275,0.0,0.0,-4.7862,-4.8327,-4.8551,0.0,0.0,0.0,0.0,0.0,0.0,0.0,0.0,0.0,0.0,0.0,0.0,0.0,0.0,0.0,0.0,0.0,0.0,0.0,0.0,0.0,0.0,0.0,0.0,0.0,0.0,0.0,0.0,0.0,0.0,0.0,0.0,0.0,0.0,0.0,0.0,0.0,0.0,0.0,0.0,0.0,0.0,0.0,0.0,0.0,0.0,0.0,0.0,0.0,0.0,0.0,0.0,0.0,0.0,0.0,-4.9616,-5.228,-5.5305,-5.6936,-5.7059,-5.7634,-5.6738,-5.4289,-5.2344,-4.9994,0.0,0.0,0.0,0.0,0.0,0.0,0.0,0.0,0.0,0.0,0.0,0.0,0.0,0.0,0.0,0.0,0.0,0.0,0.0,0.0,0.0,0.0,0.0,0.0,0.0,0.0,0.0,0.0,0.0,0.0,0.0,0.0,0.0,0.0,0.0,0.0,0.0,0.0,0.0,0.0,0.0,0.0,-4.9114,-4.9648,0.0,0.0,0.0,-4.8275,-4.8189,0.0,0.0,0.0,0.0,0.0,0.0,0.0,0.0,0.0,0.0,0.0,0.0,0.0,0.0,0.0,0.0,0.0,0.0,0.0,0.0,0.0,0.0,0.0,0.0,0.0,0.0,0.0,0.0,0.0,0.0,0.0,0.0,0.0,0.0,0.0,0.0,0.0,0.0,0.0,0.0,0.0,0.0,0.0,0.0,0.0,0.0,0.0,0.0,0.0,0.0,0.0,0.0,0.0,0.0,0.0,0.0,0.0,-5.1706,-5.4421,-5.5807,-5.5889,-5.6289,-5.5354,-5.2968,-5.1536,0.0,0.0,0.0,0.0,0.0,0.0,0.0,0.0,0.0,0.0,0.0,0.0,0.0,0.0,0.0,0.0,0.0,0.0,0.0,0.0,0.0,0.0,0.0,0.0,0.0,0.0,0.0,-3.4389,0.0,0.0,0.0,0.0,0.0,0.0,0.0,0.0,0.0,0.0,0.0,0.0,0.0,0.0,-4.9786,-4.9976,-5.0631,-5.0602,0.0,0.0,-4.8896,-4.8372,-4.9252,-4.9028,0.0,0.0,0.0,0.0,0.0,0.0,0.0,0.0,0.0,0.0,0.0,0.0,0.0,0.0,0.0,0.0,0.0,0.0,0.0,0.0,0.0,0.0,0.0,0.0,0.0,0.0,0.0,0.0,0.0,0.0,0.0,0.0,0.0,0.0,0.0,0.0,0.0,0.0,0.0,0.0,0.0,0.0,0.0,0.0,0.0,0.0,0.0,0.0,0.0,0.0,0.0,0.0,0.0,0.0,-4.7953,-5.093,-5.3091,-5.4428,-5.4973,-5.5457,-5.4528,-5.216,-5.1261,-4.9297,0.0,0.0,0.0,0.0,0.0,0.0,0.0,0.0,0.0,0.0,0.0,0.0,0.0,0.0,0.0,0.0,0.0,0.0,0.0,0.0,0.0,0.0,0.0,0.0,0.0,0.0,0.0,0.0,0.0,0.0,0.0,0.0,0.0,0.0,0.0,0.0,0.0,0.0,0.0,0.0,0.0,-4.9137,-4.9907,-5.0649,-5.0821,0.0,-4.9924,-4.9907,-4.9855,-4.9942,-4.9217,-4.6889,0.0,0.0,0.0,0.0,0.0,0.0,0.0,0.0,0.0,0.0,0.0,0.0,0.0,0.0,0.0,0.0,0.0,0.0,0.0,0.0,0.0,0.0,0.0,0.0,0.0,0.0,0.0,0.0,0.0,0.0,0.0,0.0,0.0,0.0,0.0,0.0,0.0,0.0,0.0,0.0,0.0,0.0,0.0,0.0,0.0,0.0,0.0,0.0,0.0,0.0,0.0,0.0,0.0,-4.7407,-4.9466,-5.2024,-5.3401,-5.3553,-5.3959,-5.3513,-5.2099,-5.1246,-4.9242,0.0,0.0,0.0,0.0,0.0,0.0,0.0,0.0,0.0,0.0,0.0,0.0,0.0,0.0,0.0,0.0,0.0,0.0,0.0,0.0,0.0,0.0,0.0,0.0,0.0,0.0,0.0,0.0,-3.6568,-3.6938,-3.7029,0.0,0.0,0.0,0.0,0.0,0.0,0.0,0.0,0.0,0.0,-4.9085,-4.989,-5.0998,0.0,0.0,-5.177,-5.1597,-5.0218,-5.039,-4.9597,-4.6362,-4.5345,0.0,0.0,0.0,0.0,0.0,0.0,0.0,0.0,0.0,0.0,0.0,0.0,0.0,0.0,0.0,0.0,0.0,0.0,0.0,0.0,0.0,0.0,0.0,0.0,0.0,0.0,0.0,0.0,0.0,0.0,0.0,0.0,0.0,0.0,0.0,0.0,0.0,0.0,0.0,0.0,0.0,0.0,0.0,0.0,0.0,0.0,0.0,0.0,0.0,0.0,0.0,0.0,-4.6877,-4.8583,-5.0977,-5.2238,-5.2343,-5.2505,-5.2195,-5.1385,-5.077,-4.9003,0.0,0.0,0.0,0.0,0.0,0.0,0.0,0.0,0.0,0.0,0.0,0.0,0.0,0.0,0.0,0.0,0.0,0.0,0.0,0.0,0.0,0.0,0.0,0.0,0.0,0.0,0.0,0.0,-3.6915,-3.7059,-3.7754,0.0,0.0,0.0,0.0,0.0,0.0,0.0,0.0,0.0,0.0,-4.8741,-4.9545,-5.0925,-5.1774,-5.1567,-5.2218,-5.2011,-4.9976,-5.0097,-4.9258,-4.5931,0.0,0.0,0.0,0.0,0.0,0.0,0.0,0.0,0.0,0.0,0.0,0.0,0.0,0.0,0.0,0.0,0.0,0.0,0.0,0.0,0.0,0.0,0.0,0.0,0.0,0.0,0.0,-4.4259,0.0,0.0,-4.4182,0.0,0.0,0.0,0.0,0.0,0.0,0.0,0.0,0.0,0.0,0.0,0.0,0.0,0.0,0.0,0.0,0.0,0.0,0.0,0.0,0.0,0.0,-4.6351,-4.857,-4.9908,-5.0893,-5.1487,-5.1155,-5.0592,-4.9838,-4.9686,-4.8472,-4.5938,0.0,0.0,0.0,0.0,0.0,0.0,0.0,0.0,0.0,0.0,0.0,0.0,0.0,0.0,0.0,0.0,0.0,0.0,0.0,0.0,0.0,0.0,0.0,0.0,0.0,0.0,-3.8003,-3.7683,-3.7737,0.0,0.0,0.0,0.0,0.0,0.0,0.0,0.0,0.0,0.0,-4.6251,-4.7982,-4.8706,-5.0119,-5.089,-5.0183,-5.0718,-5.0649,-4.9051,-4.8844,-4.8068,0.0,0.0,0.0,0.0,0.0,0.0,0.0,0.0,0.0,0.0,0.0,0.0,0.0,0.0,0.0,0.0,0.0,0.0,0.0,0.0,0.0,0.0,0.0,0.0,0.0,0.0,0.0,-4.5877,-4.5222,0.0,0.0,0.0,0.0,0.0,0.0,0.0,0.0,0.0,0.0,0.0,-4.7259,-4.7278,0.0,0.0,0.0,0.0,0.0,0.0,0.0,0.0,0.0,0.0,0.0,0.0,-4.6039,-4.7731,-4.9597,-5.064,-5.0771,-5.0954,-5.0635,-4.9861,-4.9689,-4.794,-4.4414,0.0,0.0,0.0,0.0,0.0,0.0,0.0,0.0,0.0,0.0,0.0,0.0,0.0,0.0,0.0,0.0,0.0,0.0,0.0,0.0,0.0,0.0,0.0,0.0,0.0,-3.8159,0.0,0.0,0.0,0.0,0.0,0.0,0.0,0.0,0.0,0.0,0.0,-4.1567,-4.3345,-4.5079,-4.6621,-4.7896,-4.9407,-5.0269,0.0,0.0,0.0,0.0,0.0,0.0,0.0,0.0,0.0,0.0,0.0,0.0,0.0,0.0,-4.4191,-4.2549,-4.2833,-4.3006,-4.198,0.0,0.0,0.0,0.0,0.0,0.0,0.0,0.0,0.0,0.0,0.0,0.0,0.0,0.0,-4.7584,0.0,-4.5673,0.0,0.0,0.0,0.0,0.0,0.0,0.0,0.0,-4.9048,-4.9577,-4.9856,-4.9875,-4.9875,0.0,-5.0144,-4.9702,0.0,0.0,0.0,0.0,0.0,0.0,0.0,0.0,-4.5985,-4.7447,-4.9353,-5.0266,-5.0113,-5.0245,-5.0084,-4.9529,-4.8733,-4.6911,-4.4011,-4.1093,-3.8799,0.0,0.0,0.0,0.0,0.0,0.0,0.0,0.0,0.0,0.0,0.0,0.0,0.0,0.0,0.0,0.0,0.0,0.0,0.0,0.0,0.0,0.0,0.0,-3.7286,0.0,0.0,0.0,0.0,0.0,0.0,0.0,0.0,0.0,-3.9646,-4.0894,-4.2085,-4.3069,-4.4716,-4.6259,-4.7517,0.0,0.0,0.0,0.0,0.0,0.0,0.0,-4.7258,-4.6017,-4.6035,-4.6104,-4.5845,-4.5587,-4.5569,-4.6086,0.0,0.0,-4.4105,-4.4655,-4.4936,-4.3627,-4.3768,-4.3931,-4.3243,-4.2193,-4.1444,0.0,0.0,0.0,0.0,0.0,0.0,0.0,0.0,-5.0773,-4.945,0.0,-4.5899,0.0,0.0,0.0,0.0,0.0,-4.7432,0.0,0.0,-5.151,-5.2385,-5.3106,-5.3058,-5.3106,-5.3106,-5.2212,-5.1788,-5.1596,-4.8519,0.0,0.0,0.0,0.0,0.0,0.0,-4.6172,-4.769,-4.9182,-4.9797,-4.9514,-4.9144,-4.8892,-4.875,-4.6984,-4.5608,-4.4727,-4.2434,-4.0435,-3.8836,-3.7973,0.0,0.0,0.0,0.0,0.0,0.0,0.0,0.0,0.0,0.0,0.0,0.0,0.0,0.0,0.0,0.0,0.0,0.0,0.0,0.0,-3.6256,0.0,0.0,0.0,0.0,0.0,0.0,0.0,0.0,0.0,0.0,-3.9767,-4.1705,-4.3155,-4.3172,0.0,0.0,0.0,0.0,-4.9068,-4.9786,-4.9304,-4.8551,-4.781,-4.7717,-4.7465,-4.6803,0.0,0.0,-4.6734,-4.5949,-4.5449,-4.5414,-4.5449,-4.5397,-4.5328,-4.6397,-4.6849,-4.5247,-4.4824,-4.467,-4.3936,-4.244,-4.1299,-5.412,0.0,0.0,0.0,0.0,-5.3733,-5.4279,-5.4359,-5.3183,-5.1755,-5.017,-4.8817,0.0,0.0,0.0,0.0,0.0,0.0,-5.0231,-5.077,-5.2164,-5.2972,-5.3164,-5.2558,-5.2269,-5.2231,-5.1433,-5.1029,-5.0971,-4.9452,-4.7817,-4.6124,0.0,0.0,0.0,0.0,-4.6292,-4.7809,-4.935,-4.9993,-4.9797,-4.9343,-4.8957,-4.8587,-4.75,-4.6489,-4.5571,-4.3791,-4.2066,-4.0471,-3.9093,0.0,0.0,0.0,0.0,0.0,0.0,0.0,0.0,0.0,0.0,0.0,0.0,0.0,0.0,0.0,0.0,0.0,0.0,0.0,-3.7965,-3.7011,-3.6377,0.0,0.0,0.0,0.0,0.0,0.0,0.0,0.0,0.0,-4.0474,-4.1602,-4.2568,0.0,0.0,-4.5423,-4.6734,-4.7982,-4.8717,-4.8396,-4.8586,0.0,-4.781,-4.7717,-4.7793,-4.8103,-4.8327,-4.8068,-4.6837,-4.6424,-4.6052,-4.55,-4.5414,-4.5242,-4.4768,-4.5389,-4.5593,-4.4512,-4.4219,-4.3909,-4.3036,-4.1856,-4.0968,-5.7461,-5.5253,-5.5097,-5.5038,-5.5153,-5.6321,-5.6821,-5.6725,-5.5795,-5.4344,-5.2566,-5.1314,-4.9463,-4.7295,-4.8234,0.0,0.0,0.0,-5.1856,-5.2241,-5.3568,-5.4203,-5.4145,-5.3318,-5.276,-5.2365,-5.1587,-5.101,-5.0693,-5.0173,-4.924,-4.7836,0.0,0.0,-4.4335,-4.5171,-4.6204,-4.7452,-4.8643,-4.9186,-4.903,-4.8545,-4.8217,-4.8107,-4.7297,-4.6561,-4.5883,-4.4342,-4.291,-4.1625,-4.0047,-3.8799,0.0,0.0,0.0,0.0,0.0,0.0,0.0,0.0,0.0,0.0,0.0,-3.6138,-3.6486,0.0,0.0,0.0,-3.7628,-3.823,-3.8114,-3.7439,0.0,0.0,0.0,0.0,0.0,0.0,0.0,-3.8922,-3.9698,-4.0377,-4.0843,-4.155,-4.2285,-4.3086,-4.4104,-4.5285,-4.6837,0.0,-4.8741,-4.8631,-4.8465,-4.831,-4.8137,-4.7879,-4.7931,-4.8672,-4.8275,-4.7517,-4.6362,-4.5906,-4.5423,-4.4751,-4.4544,-4.4389,-4.3966,-4.4234,-4.4328,-4.3657,-4.3476,-4.3174,-4.2487,-4.1499,-4.0581,-6.0078,-5.9277,-5.7676,-5.6973,-5.707,-5.8612,-5.9255,-5.9138,-5.8273,-5.6857,-5.5009,-5.3341,-5.1612,-4.9911,-4.9697,0.0,-5.0981,-5.2568,-5.3722,-5.4511,-5.528,-5.5607,-5.5568,-5.4684,-5.3876,-5.3068,-5.2154,-5.1356,-5.0731,-5.0616,-5.0202,-4.9356,-4.699,-4.5364,-4.4586,-4.5325,-4.6087,-4.6801,-4.7548,-4.7848,-4.7709,-4.72,-4.7112,-4.7507,-4.6681,-4.6134,-4.5883,-4.445,-4.3221,-4.2413,-4.0926,-3.9732,-3.8909,0.0,0.0,0.0,0.0,0.0,0.0,0.0,0.0,0.0,0.0,0.0,0.0,0.0,0.0,0.0,-3.6381,0.0,-3.7659,-3.7521,0.0,0.0,0.0,-3.5818,-3.7254,-3.7512,-3.8094,-3.9457,0.0,0.0,-4.0912,-4.1498,-4.2206,-4.3,-4.4389,-4.5845,-4.731,-4.8068,-4.8861,-4.9286,-4.8482,-4.7931,-4.8293,-4.8,-4.7862,-4.8344,-4.7441,-4.6268,-4.5372,-4.4596,-4.388,-4.3276,-4.3069,-4.3034,-4.3086,-4.3069,-4.2932,-4.2627,-4.2595,-4.2448,-4.1876,-4.094,-3.9835,-6.1269,-6.1074,-6.0664,-6.0098,-5.9531,-5.9922,-5.9765,-5.9196,-5.8896,-5.743,-5.5159,-5.4656,-5.3755,-5.2527,-5.1738,-5.1857,-5.2743,-5.3742,-5.4299,-5.4491,-5.4684,-5.478,-5.4703,-5.3222,-5.2404,-5.2115,-5.0721,-5.0221,-5.0654,-5.0029,-4.9606,-4.9336,-4.8125,-4.7105,-4.6317,-4.649,-4.6692,-4.6866,-4.7645,-4.7932,-4.7708,-4.7372,-4.7386,-4.7802,-4.6964,-4.6374,-4.6116,-4.5158,-4.422,-4.3307,-4.2331,-4.1415,-4.0545,-3.8414,0.0,0.0,0.0,0.0,0.0,0.0,0.0,0.0,0.0,-3.6413,-3.6009,0.0,-3.6607,0.0,-3.5954,-3.6311,-3.6914,-3.6759,0.0,0.0,-3.6266,-3.6163,-3.6559,-3.7629,-3.8496,-3.8801,-4.0043,-4.0894,-4.0894,-4.105,-4.1429,-4.2223,-4.3603,-4.4889,-4.5828,-4.6603,-4.6931,-4.669,-4.7207,-4.7534,-4.7241,-4.7493,-4.7562,-4.7172,-4.631,-4.5268,-4.3966,-4.3086,-4.2499,-4.2292,-4.1809,-4.1705,-4.2206,-4.1861,-4.1226,-4.0625,-4.1074,-4.1384,-4.0395,-3.9289,-3.8263,-6.1699,-6.1699,-6.1699,-6.1426,-6.0996,-6.0976,-6.0312,-5.9218,-5.9157,-5.7899,-5.5808,-5.5714,-5.5312,-5.467,-5.4014,-5.3995,-5.4477,-5.486,-5.4838,-5.4511,-5.4511,-5.4299,-5.3857,-5.2549,-5.1692,-5.1337,-5.0029,-4.9452,-4.9529,-4.9452,-4.9202,-4.8817,-4.8721,-4.8086,-4.6923,-4.6509,-4.6317,-4.6317,-4.6722,-4.6849,-4.667,-4.647,-4.6562,-4.6976,-4.6499,-4.6062,-4.5732,-4.531,-4.4598,-4.3635,-4.2492,-4.165,-4.1093,-3.8817,-3.7088,0.0,0.0,0.0,0.0,0.0,0.0,0.0,0.0,0.0,0.0,0.0,-3.7053,-3.6636,-3.6414,-3.6538,-3.714,-3.7274,-3.7318,-3.7318,-3.7025,-3.6939,-3.7267,-3.7784,-3.8237,-3.8582,-3.9359,-3.9997,-4.0302,-4.0394,-4.0653,-4.1429,-4.2258,-4.3327,-4.4682,-4.5579,-4.5897,-4.5518,-4.6121,-4.669,-4.6579,-4.6941,-4.7069,-4.6631,-4.5665,-4.4509,-4.3396,-4.2551,-4.1912,-4.1585,-4.117,-4.1032,-4.1412,-4.1222,-4.0606,-3.9914,-3.9958,-3.9783,-3.8543,-3.7584,-3.6794,-6.1699,-6.1699,-6.1699,-6.1621,-6.1543,-6.1523,-6.0644,-5.9199,-5.9081,-5.8123,-5.6578,-5.6447,-5.629,-5.6052,-5.5831,-5.5678,-5.5586,-5.5448,-5.5011,-5.4337,-5.4222,-5.376,-5.3,-5.2135,-5.1318,-5.0519,-4.9644,-4.8856,-4.8135,-4.8779,-4.874,-4.8163,-4.8759,-4.8336,-4.6923,-4.6028,-4.5594,-4.5594,-4.5531,-4.5466,-4.5429,-4.527,-4.5457,-4.5912,-4.5738,-4.5446,-4.5124,-4.492,-4.4367,-4.3373,-4.1993,-4.1151,-4.0942,-3.8885,-3.7632,0.0,-3.6864,0.0,0.0,0.0,0.0,0.0,0.0,0.0,0.0,-3.6416,-3.7336,-3.7614,-3.7245,-3.7178,-3.7669,-3.8079,-3.8346,-3.8306,-3.7737,-3.7616,-3.8203,-3.7823,-3.7754,-3.841,-3.8543,-3.8893,-3.9612,-3.9698,-3.9991,-4.0791,-4.1032,-4.1757,-4.3431,-4.4302,-4.4621,-4.4811,-4.5001,-4.5406,-4.6155,-4.6414,-4.6441,-4.6303,-4.5147,-4.3931,-4.3138,-4.2361,-4.1636,-4.1101,-4.0929,-4.0963,-4.1015,-4.0998,-4.0612,-3.9765,-3.9347,-3.8639,-3.7157,-3.63,-3.5449,-6.1699,-6.1699,-6.1699,-6.1289,-6.0644,-6.0644,-6.0098,-5.916,-5.8457,-5.7577,-5.6612,-5.6472,-5.5997,-5.5307,-5.5045,-5.455,-5.3876,-5.3735,-5.3587,-5.3433,-5.2712,-5.2308,-5.2115,-5.1298,-5.0471,-4.9625,-4.8759,-4.8259,-4.8086,-4.7605,-4.7625,-4.8067,-4.7605,-4.7221,-4.6874,0.0,0.0,0.0,-4.5605,-4.5577,-4.5559,-4.5438,-4.5674,-4.6256,-4.5481,0.0,-4.4557,-4.3814,-4.2928,-4.1958,-4.161,0.0,0.0,0.0,0.0,0.0,0.0,0.0,0.0,0.0,0.0,0.0,-3.7199,-3.6942,-3.6156,-3.676,-3.7417,-3.7859,-3.7649,-3.739,-3.7261,-3.712,-3.7016,-3.6897,-3.6709,-3.6577,-3.6732,-3.7163,-3.7581,-3.7702,-3.8237,-3.8853,-3.9491,-3.9698,-3.9974,-4.0705,-4.0894,-4.1067,-4.1516,-4.1826,-4.1826,-4.1826,-4.2948,-4.4096,-4.5414,-4.5587,-4.5552,-4.5432,-4.4389,-4.3189,-4.2378,-4.1619,-4.1119,-4.0843,-4.0894,-4.1067,-4.1578,-4.1326,-4.0537,-3.9754,-3.9235,-3.8529,-3.7059,-3.5929,-3.4947,-6.1445,-6.1055,-6.1055,-6.0586,0.0,-5.9336,-5.8926,-5.8515,-5.8105,-5.7402,-5.6596,-5.6543,-5.6001,-5.5108,-5.4443,-5.3679,-5.2774,-5.2223,-5.1722,-5.1318,-5.1318,-5.1068,-5.0664,-5.0702,-5.001,-4.8759,-4.8336,-4.7682,-4.6894,-4.6874,-4.6894,-4.6874,-4.6894,-4.6701,-4.6259,-4.5825,-4.5594,-4.5594,-4.5594,-4.5594,-4.5586,-4.5504,-4.5592,-4.5866,-4.5308,0.0,0.0,0.0,0.0,0.0,0.0,0.0,0.0,0.0,0.0,-3.8273,-3.8567,-3.8409,-3.7599,-3.7878,-3.7768,-3.6997,-3.7624,-3.7734,-3.6945,-3.7164,-3.7591,-3.813,-3.8705,-3.8886,-3.8546,-3.8546,-3.8328,-3.7791,-3.724,-3.677,-3.6404,-3.6646,-3.6887,-3.6943,-3.7232,-3.7749,-3.853,-3.8634,-3.9077,-4.0118,-4.0284,-4.0457,-4.0825,-4.0894,-4.1015,-4.1395,-4.2016,-4.2982,-4.4027,-4.4302,-4.4337,-4.4182,-4.3379,-4.2396,-4.1585,-4.0843,-4.0198,-3.9876,-3.9773,-3.9928,-4.0164,-4.0014,-3.9485,-3.8683,-3.8184,-3.7465,-3.6084,-3.531,-3.4648,-6.1055,-6.039,-6.0234,-5.9726,-5.8926,-5.8203,-5.7812,-5.7676,0.0,0.0,0.0,-5.6619,-5.5999,-5.4911,-5.4017,-5.2956,-5.1744,-5.087,-5.0019,-4.9259,-5.0077,-5.0087,-4.9452,-5.0279,-4.9779,-4.8144,-4.8096,-4.724,-4.5671,-4.6317,-4.6297,-4.5729,-4.6317,-4.6297,-4.5652,-4.5594,-4.5594,-4.5594,-4.5594,-4.5594,-4.5594,-4.555,-4.5495,-4.5429,-4.5248,-4.4908,-4.443,-4.3498,-4.2786,-4.2294,-4.0837,-4.0048,-4.0137,-4.0156,-3.9904,-3.9368,-3.9902,-3.9669,-3.8272,-3.8033,-3.7629,-3.6805,-3.811,-3.8591,-3.7768,-3.786,-3.8041,-3.8378,-3.9689,-4.0257,-3.9755,-4.0197,-4.0021,-3.8911,-3.8027,-3.7185,-3.6439,-3.6284,-3.6335,-3.6284,-3.6353,-3.6594,-3.7443,-3.7581,-3.8047,-3.9336,-3.9767,-3.9991,-4.0705,-4.0894,-4.1153,-4.1785,-4.2068,-4.2344,-4.3,-4.3293,-4.3207,-4.331,-4.2499,-4.1567,-4.0825,-4.0026,-3.9267,-3.8577,-3.8513,-3.8663,-3.8629,-3.8715,-3.8348,-3.7657,-3.7313,-3.6671,-3.5287,-3.4864,-3.4448,-6.0488,-6.0351,-5.9648,-5.8867,-5.8066,-5.7949,-5.748,-5.6797,-5.6777,-5.6699,-5.6621,-5.662,-5.5654,-5.4062,-5.381,-5.2396,-5.017,-4.9822,-4.9215,-4.843,-4.9201,-4.9529,-4.9452,-5.0289,-4.9779,-4.8182,-4.8096,-4.724,-4.5768,-4.5729,-4.571,-4.5633,-4.572,-4.5729,-4.5614,-4.5594,-4.5594,-4.5594,-4.5594,-4.5594,-4.5594,-4.5586,-4.5577,-4.5568,-4.5351,-4.4778,-4.3765,-4.2724,-4.1715,-4.0769,-3.9793,-3.9588,-4.0298,-4.0354,-4.0585,-4.107,-4.1218,-4.1135,-4.0748,-4.0121,-3.9379,-3.8678,-3.9379,-3.9522,-3.8649,-3.9166,-3.925,-3.8563,-3.9709,-4.004,-3.9112,-3.9944,-3.9982,-3.8314,-3.7733,-3.7202,-3.6404,-3.6284,-3.6284,-3.6284,-3.6284,-3.6577,-3.7271,-3.7461,-3.7978,-3.9267,-3.9819,-4.006,-4.0774,-4.0894,-4.1222,-4.1809,-4.1992,-4.2344,-4.2827,-4.3172,-4.3069,-4.3207,-4.1981,-4.086,-4.0008,-3.9319,-3.8599,-3.7789,-3.8082,-3.8422,-3.8491,-3.8594,-3.837,-3.8119,-3.7905,-3.7288,-3.5897,-3.5062,-3.4207,-5.9883,-5.9023,-5.8652,-5.7988,-5.7207,-5.7207,-5.6973,-5.6621,-5.6621,-5.6621,-5.6621,-5.6621,-5.5621,-5.3966,-5.3362,-5.1928,-4.9819,-4.9174,-4.8647,-4.8323,-4.9037,-4.9413,-4.9471,-5.0279,-4.9798,-4.8173,-4.8096,-4.724,-4.5729,-4.5594,-4.5594,-4.5594,-4.5594,-4.5594,-4.5594,-4.5594,-4.5594,-4.5594,-4.5594,-4.5594,-4.5594,-4.5594,-4.5364,-4.4913,-4.471,-4.4075,-4.2936,-4.1901,-4.1068,-4.0416,-3.9565,-3.9287,-3.9677,-4.0123,-4.0335,-4.0174,-4.0548,-4.0555,-4.0003,-3.9667,-3.9298,-3.8966,-4.0055,-4.0191,-3.8917,-3.9498,-3.9549,-3.8663,-4.0435,-4.1247,-4.0146,-4.1389,-4.145,-3.9255,-3.8495,-3.7616,-3.6542,-3.6284,-3.6284,-3.6284,-3.6284,-3.6439,-3.6822,-3.6853,-3.7422,-3.887,-4.0008,-4.1043,-4.1447,-4.1498,-4.1464,-4.1447,-4.1412,-4.155,-4.1912,-4.1947,-4.1947,-4.193,-4.1395,-4.0446,-3.9405,-3.8767,-3.8146,-3.7111,-3.7163,-3.7301,-3.737,-3.7335,-3.7335,-3.7331,-3.7178,-3.6571,-3.5703,-3.452,-3.3239,-5.9101,-5.791,-5.7695,-5.7226,-5.6621,-5.6621,-5.6621,-5.6621,-5.6621,-5.6621,-5.6621,-5.6621,-5.5644,-5.3997,-5.3221,-5.1815,-4.9975,-4.9023,-4.8512,-4.8415,-4.9064,-4.9413,-4.949,-5.0308,-4.9779,-4.8269,-4.8096,-4.7221,-4.5768,-4.5594,-4.5594,-4.5594,-4.5594,-4.5594,-4.5594,-4.5594,-4.5594,-4.5594,-4.5594,-4.5594,-4.5594,-4.5421,-4.4979,-4.4346,-4.3905,-4.3264,-4.2337,-4.1336,-4.0694,-4.0388,-3.9565,-3.9194,-3.9417,-4.0044,-4.0057,-3.948,-3.9892,-3.9878,-3.9061,-3.9135,-3.9246,-3.9283,-4.0725,-4.0966,-3.9508,-3.9711,-3.9593,-3.8967,-4.0907,-4.1985,-4.1127,-4.2414,-4.27,-4.0388,-3.9183,-3.8065,-3.6818,-3.6422,-3.6284,-3.6284,-3.6284,-3.6284,-3.6284,-3.6284,-3.7042,-3.8767,-4.0664,-4.1964,-4.2206,-4.2171,-4.174,-4.1326,-4.1032,-4.0963,-4.0894,-4.0946,-4.0981,-4.0894,-4.0739,-4.0112,-3.9198,-3.8784,-3.8129,-3.7008,-3.6646,-3.6646,-3.6404,-3.6335,-3.6387,-3.6456,-3.6358,-3.5837,-3.4767,-3.3334,-3.2046,-5.8047,-5.7773,-5.707,-5.668,-5.6621,-5.6621,-5.6621,-5.6621,-5.6621,-5.6621,-5.6621,-5.6601,-5.5625,-5.4118,-5.3837,-5.2386,-5.0095,-4.9706,-4.9162,-4.8589,-4.9101,-4.9413,-4.9519,-5.0308,-4.9779,-4.8259,-4.8105,-4.7249,-4.5671,-4.5594,-4.5594,-4.5594,-4.5594,-4.5594,-4.5594,-4.5594,-4.5594,-4.5594,-4.5594,-4.5594,-4.5556,-4.4844,-4.4374,-4.4297,-4.3321,-4.2663,-4.2204,-4.1343,-4.0675,-4.037,-3.9547,-3.9454,-4.0155,-4.0327,-4.0346,-4.0234,-4.0313,-3.9997,-3.9236,-3.983,-4.022,-4.0368,-4.169,-4.1932,-4.041,-4.0148,-3.9654,-3.9111,-4.0507,-4.1211,-4.0305,-4.1796,-4.2151,-4.0366,-3.9252,-3.8267,-3.7461,-3.6732,-3.6284,-3.6284,-3.6284,-3.6284,-3.6284,-3.6404,-3.7267,-3.9215,-4.1009,-4.2396,-4.2913,-4.2516,-4.2137,-4.1819,-4.1378,-4.0946,-4.0894,-4.0894,-4.0894,-4.086,-4.0302,-3.9853,-3.9514,-3.8991,-3.8284,-3.7478,-3.7288,-3.7064,-3.6508,-3.6284,-3.6284,-3.6245,-3.6032,-3.5544,-3.3627,-3.2079,-3.0996,-5.7578,-5.7109,-5.6738,-5.6621,-5.6621,-5.6621,-5.6621,-5.6621,-5.6621,-5.6621,-5.6523,-5.6055,-5.5137,-5.4003,-5.3963,-5.28,-5.0862,-5.0609,-5.0353,-5.0021,-5.0168,-5.0218,-5.0276,-5.0565,-4.9872,-4.8321,-4.8188,-4.7285,-4.5918,-4.5631,-4.5594,-4.5594,-4.5594,-4.5594,-4.5594,-4.5594,-4.5594,-4.5594,-4.5594,-4.5594,-4.5498,-4.4748,-4.4066,-4.353,-4.2592,-4.1676,-4.0986,-4.0424,-4.0027,-3.9735,-3.9369,-3.931,-3.9617,-3.964,-3.9621,-3.964,-3.9621,-3.9472,-3.9138,-3.99,-4.0416,-4.0416,-4.1887,-4.211,-4.0606,-4.0678,-4.0253,-3.9145,-4.0049,-4.0634,-4.0183,-4.1619,-4.2041,-4.0453,-3.9581,-3.8807,-3.7633,-3.7198,-3.6853,-3.6404,-3.6284,-3.6284,-3.6439,-3.7094,-3.8163,-3.9681,-4.1378,-4.2879,-4.3638,-4.3207,-4.2775,-4.2551,-4.1705,-4.0981,-4.0894,-4.0894,-4.0894,-4.0843,-4.0653,-4.0359,-3.9767,-3.9526,-3.8888,-3.7754,-3.7599,-3.7271,-3.6439,-3.6318,-3.6284,-3.619,-3.557,-3.4776,-3.3106,-3.1812,-3.08,-5.7166,-5.664,-5.6621,-5.6621,-5.6621,-5.6621,-5.6621,-5.6621,-5.6621,-5.6484,-5.6191,-5.5566,-5.4687,-5.373,-5.3652,-5.2789,-5.1507,-5.1179,-5.1098,-5.1069,-5.0901,-5.0801,-5.0821,-5.0801,-4.9914,-4.8516,-4.8223,-4.7311,-4.5838,-4.5631,-4.5594,-4.5594,-4.5594,-4.5594,-4.5594,-4.5594,-4.5594,-4.5594,-4.5594,-4.5594,-4.546,-4.4536,-4.3701,-4.3058,-4.1918,-4.0883,-4.0119,-3.9873,-3.9635,-3.9357,-3.9272,-3.9178,-3.9115,-3.9101,-3.9101,-3.9101,-3.9101,-3.9101,-3.912,-4.0104,-4.0731,-4.0847,-4.2222,-4.2556,-4.1427,-4.1285,-4.0861,-3.9884,-4.0231,-4.0564,-4.0263,-4.1555,-4.1886,-4.0691,-4.0028,-3.9017,-3.8022,-3.7551,-3.6887,-3.6404,-3.6284,-3.6284,-3.649,-3.7542,-3.8801,-3.9733,-4.1498,-4.3276,-4.388,-4.3483,-4.2879,-4.3086,-4.1878,-4.0998,-4.0894,-4.0894,-4.0894,-4.0894,-4.0843,-4.0653,-4.0129,-4.006,-3.9715,-3.8772,-3.8185,-3.753,-3.6904,-3.6646,-3.6245,-3.6044,-3.5283,-3.4138,-3.3017,-3.1709,-3.0528,-5.6555,-5.6601,-5.6621,-5.6621,-5.6621,-5.6621,-5.6621,-5.6621,-5.6621,-5.6172,-5.5488,-5.5293,-5.4336,-5.2851,-5.2793,-5.2262,-5.1449,-5.1183,-5.1098,-5.1076,-5.0909,-5.0821,-5.0821,-5.0801,-4.9914,-4.8398,-4.824,-4.7311,-4.5699,-4.5594,-4.5594,-4.5594,-4.5603,-4.5594,-4.5594,-4.5594,-4.5594,-4.5594,-4.5594,-4.5594,-4.5402,-4.4008,-4.3181,-4.2942,-4.1387,-4.0419,-4.0196,-3.9989,-3.9781,-3.9495,-3.9376,-3.9227,-3.911,-3.9101,-3.9101,-3.9101,-3.9101,-3.9101,-3.9287,-4.0568,-4.1493,-4.1702,-4.2927,-4.354,-4.2556,-4.1957,-4.1471,-4.1326,-4.1277,-4.1101,-4.0601,-4.1483,-4.2015,-4.1466,-4.0036,-3.9064,-3.8685,-3.7331,-3.6477,-3.6301,-3.6284,-3.6284,-3.6335,-3.7629,-3.8732,-3.9698,-4.1084,-4.2603,-4.3724,-4.3069,-4.2585,-4.2689,-4.1999,-4.0894,-4.0894,-4.0894,-4.0894,-4.0894,-4.0894,-4.0802,-4.0877,-4.0756,-4.0204,-3.9577,-3.8703,-3.7978,-3.7456,-3.6917,-3.6379,-3.5719,-3.4563,-3.349,-3.2662,-3.098,-2.9925,-5.6532,-5.6621,-5.6621,-5.6621,-5.6621,-5.6621,-5.6621,-5.6621,-5.6621,-5.6113,-5.5293,-5.4726,-5.3828,-5.2676,-5.2109,-5.1695,-5.1412,-5.1232,-5.1138,-5.1081,-5.0944,-5.0858,-5.0858,-5.0858,-4.9988,-4.8559,-4.8287,-4.7378,-4.5833,-4.566,-4.5679,-4.566,-4.566,-4.5662,-4.5665,-4.5676,-4.564,-4.5594,-4.5594,-4.5594,-4.546,-4.397,-4.3085,-4.3008,-4.1393,-4.0422,-4.0334,-4.0177,-3.9977,-3.9762,-3.9587,-3.9414,-3.9245,-3.9156,-3.9101,-3.9101,-3.9101,-3.9101,-3.9287,-4.0661,-4.1605,-4.1702,-4.3076,-4.367,-4.2946,-4.2458,-4.206,-4.1715,-4.1964,-4.191,-4.1646,-4.1778,-4.1586,-4.0693,-3.9767,-3.8866,-3.8221,-3.7499,-3.6887,-3.6439,-3.6284,-3.6284,-3.649,-3.7254,-3.8318,-3.9526,-4.0612,-4.2085,-4.35,-4.2957,-4.2258,-4.2706,-4.193,-4.0894,-4.0894,-4.0894,-4.0894,-4.0894,-4.0843,-4.0491,-4.0411,-4.0204,-3.9664,-3.8784,-3.8215,-3.7732,-3.7025,-3.6693,-3.6186,-3.533,-3.4176,-3.3161,-3.2245,-3.0729,-2.9915,-5.6575,-5.6601,-5.6621,-5.6621,-5.6621,-5.6621,-5.6621,-5.6621,-5.6601,-5.5957,-5.4863,-5.3965,-5.2988,-5.1933,-5.1269,-5.1012,-5.1011,-5.1118,-5.1194,-5.1109,-5.099,-5.0937,-5.0941,-5.0906,-5.0008,-4.8481,-4.7735,-4.6808,-4.5823,-4.5688,-4.5688,-4.5688,-4.5688,-4.5684,-4.569,-4.5682,-4.5676,-4.5603,-4.5594,-4.5594,-4.5402,-4.397,-4.3085,-4.2854,-4.1407,-4.0471,-4.0447,-4.0326,-4.0196,-3.9989,-3.9807,-3.9575,-3.9324,-3.9183,-3.9101,-3.9101,-3.9101,-3.9101,-3.9287,-4.0643,-4.1605,-4.1679,-4.302,-4.3726,-4.3243,-4.3138,-4.2848,-4.2557,-4.2662,-4.2851,-4.2289,-4.1956,-4.1397,-4.0423,-3.9699,-3.8853,-3.7924,-3.7399,-3.6857,-3.6422,-3.6284,-3.6284,-3.6387,-3.7047,-3.7892,-3.8888,-3.9859,-4.1309,-4.2568,-4.2447,-4.193,-4.2534,-4.1723,-4.1032,-4.0774,-4.0636,-4.0739,-4.0756,-4.0394,-4.0083,-3.975,-3.9508,-3.9026,-3.8112,-3.7491,-3.706,-3.6697,-3.6383,-3.5757,-3.4993,-3.4016,-3.2983,-3.1857,-3.0626,-2.9871,-5.6621,-5.6621,-5.6621,-5.6621,-5.6621,-5.6621,-5.6621,-5.6621,-5.6621,-5.5664,-5.418,-5.3164,-5.1973,-5.0566,-5.0273,-5.0175,-5.0341,-5.0874,-5.1163,-5.1186,-5.1069,-5.0983,-5.0986,-5.0921,-5.0028,-4.8353,-4.668,-4.5862,-4.5723,-4.5696,-4.5696,-4.5688,-4.5715,-4.57,-4.5682,-4.5682,-4.5665,-4.5603,-4.5594,-4.5594,-4.5402,-4.3951,-4.3085,-4.2912,-4.1412,-4.0508,-4.0489,-4.0427,-4.0334,-4.0205,-4.0,-3.9717,-3.9363,-3.9165,-3.9101,-3.9101,-3.9101,-3.9101,-3.9268,-4.0624,-4.1605,-4.1794,-4.3095,-4.3968,-4.3875,-4.3875,-4.3822,-4.3732,-4.3706,-4.3483,-4.2607,-4.2137,-4.1577,-4.1008,-3.977,-3.8751,-3.7823,-3.6897,-3.6301,-3.6284,-3.6284,-3.6284,-3.6439,-3.687,-3.7495,-3.7909,-3.8767,-4.0026,-4.1136,-4.1136,-4.1257,-4.1671,-4.1412,-4.0929,-4.0601,-4.0342,-4.048,-4.0491,-3.998,-3.9526,-3.9169,-3.8876,-3.8456,-3.768,-3.7284,-3.6853,-3.6487,-3.6138,-3.5513,-3.4725,-3.374,-3.262,-3.1412,-3.0288,-2.9698,-5.6621,-5.6621,-5.6621,-5.6621,-5.6621,-5.6621,-5.6621,-5.6621,-5.6621,-5.5625,-5.4062,-5.3086,-5.1777,-5.0332,-4.9609,-4.9628,-5.0172,-5.0414,-5.0747,-5.1183,-5.1134,-5.1063,-5.1002,-5.091,-5.0035,-4.8353,-4.6644,-4.5786,-4.5791,-4.5791,-4.5771,-4.5771,-4.5764,-4.5754,-4.5711,-4.5684,-4.5651,-4.5603,-4.5594,-4.5594,-4.546,-4.397,-4.3104,-4.2912,-4.142,-4.0496,-4.0489,-4.0479,-4.0422,-4.0342,-4.0148,-3.9837,-3.9439,-3.921,-3.9101,-3.9101,-3.9101,-3.9101,-3.9305,-4.0606,-4.1605,-4.1869,-4.3095,-4.3912,-4.4005,-4.4005,-4.4005,-4.3989,-4.3945,-4.3652,-4.32,-4.2831,-4.1795,-3.9763,-3.887,-3.8205,-3.7314,-3.6617,-3.6339,-3.6284,-3.6284,-3.6284,-3.6301,-3.6628,-3.6926,-3.7374,-3.7956,-3.8824,-4.029,-4.0377,-4.0429,-4.1015,-4.0808,-4.0739,-4.0429,-4.0049,-3.9894,-3.9784,-3.9336,-3.8698,-3.8353,-3.7961,-3.756,-3.7267,-3.6887,-3.6663,-3.6297,-3.5717,-3.5042,-3.418,-3.3086,-3.1983,-3.0859,-3.0075,-2.9444,-5.6621,-5.6621,-5.6621,-5.6621,-5.6621,-5.6621,-5.6621,-5.6621,-5.6621,-5.5625,-5.4023,-5.2715,-5.1308,-4.9805,-4.8808,-4.8945,-4.9706,-4.9978,-5.0565,-5.1223,-5.1215,-5.1099,-5.0901,-5.0235,-4.9533,-4.8295,-4.6639,-4.5826,-4.5807,-4.5807,-4.5807,-4.58,-4.5807,-4.5764,-4.5696,-4.568,-4.566,-4.5603,-4.5594,-4.5594,-4.5267,-4.397,-4.3085,-4.2854,-4.142,-4.0573,-4.0496,-4.0503,-4.0479,-4.0394,-4.0168,-3.9799,-3.9446,-3.9219,-3.9101,-3.9101,-3.9101,-3.9101,-3.9268,-4.0661,-4.1605,-4.185,-4.3076,-4.3986,-4.4005,-4.4005,-4.4005,-4.4008,-4.3931,-4.3751,-4.3478,-4.316,-4.1939,-3.9941,-3.9365,-3.8394,-3.7301,-3.6558,-3.6301,-3.6284,-3.6284,-3.6284,-3.6284,-3.6301,-3.6473,-3.6973,-3.734,-3.7737,-3.929,-3.9687,-4.0032,-4.0446,-4.0687,-4.0549,-4.025,-3.9819,-3.9336,-3.9008,-3.8669,-3.7922,-3.7335,-3.6805,-3.6356,-3.6232,-3.5939,-3.6249,-3.5969,-3.5132,-3.4357,-3.3366,-3.2618,-3.1582,-3.0625,-2.9778,-2.9175,-5.6619,-5.6619,-5.6621,-5.6621,-5.6621,-5.6621,-5.6523,-5.6484,-5.6465,-5.5449,-5.3769,-5.2051,-5.0488,-4.9004,-4.7988,-4.8066,-4.8926,-4.9668,-5.0522,-5.115,-5.1265,-5.1155,-5.0895,-4.948,-4.8624,-4.8179,-4.6612,-4.5845,-4.5807,-4.5807,-4.5807,-4.5807,-4.58,-4.5694,-4.5576,-4.563,-4.5637,-4.5428,-4.5535,-4.5612,-4.5507,-4.3959,-4.3085,-4.3028,-4.1458,-4.0496,-4.0496,-4.0489,-4.0481,-4.0414,-4.0043,-3.9728,-3.9495,-3.9245,-3.9101,-3.9101,-3.9101,-3.9101,-3.9417,-4.0661,-4.1586,-4.172,-4.3039,-4.4005,-4.4005,-4.4005,-4.4005,-4.3989,-4.3881,-4.3719,-4.3479,-4.3196,-4.2353,-4.135,-4.0347,-3.9254,-3.7806,-3.696,-3.6749,-3.6594,-3.6439,-3.637,-3.6439,-3.6404,-3.637,-3.6611,-3.7081,-3.7461,-3.8082,-3.8836,-3.9422,-3.9836,-4.0204,-4.0319,-4.0043,-3.9784,-3.9301,-3.8767,-3.8232,-3.7353,-3.6559,-3.5956,-3.5821,-3.5628,-3.549,-3.5749,-3.5625,-3.4871,-3.4199,-3.3546,-3.2601,-3.144,-3.0489,-2.9707,-2.9182,-5.6619,-5.6619,-5.6621,-5.6621,-5.6621,-5.6621,-5.623,-5.5683,-5.5644,-5.4668,-5.2949,-5.125,-4.9902,-4.8808,-4.7344,-4.7441,-4.8672,-4.9141,-5.0076,-5.1228,-5.1302,-5.1157,-5.0653,-4.9226,-4.8372,-4.8101,-4.6651,-4.5826,-4.5807,-4.5807,-4.5807,-4.5807,-4.58,-4.5469,-4.4993,-4.5476,-4.5357,-4.4935,-4.5398,-4.5671,-4.5415,-4.3981,-4.3118,-4.2931,-4.1401,-4.0554,-4.0496,-4.0496,-4.0425,-4.0279,-3.9983,-3.9717,-3.9495,-3.9245,-3.9101,-3.9101,-3.9101,-3.9101,-3.9417,-4.0661,-4.1516,-4.172,-4.3113,-4.3986,-4.4005,-4.4005,-4.4005,-4.3974,-4.3883,-4.3753,-4.3546,-4.3286,-4.2719,-4.1902,-4.0644,-3.9325,-3.8533,-3.8129,-3.8013,-3.7961,-3.7512,-3.7232,-3.7077,-3.6784,-3.6646,-3.7029,-3.7047,-3.7098,-3.7818,-3.7996,-3.8508,-3.9026,-3.9422,-3.9767,-3.9871,-3.9646,-3.9267,-3.8663,-3.7905,-3.6922,-3.6163,-3.5473,-3.5663,-3.5887,-3.5714,-3.5852,-3.5573,-3.5029,-3.4384,-3.3574,-3.2231,-3.0962,-3.0428,-2.9776,-2.9403,-5.6613,-5.6614,-5.6619,-5.6621,-5.6621,-5.6621,-5.6113,-5.5332,-5.4863,-5.3769,-5.207,-5.0391,-4.916,-4.8242,-4.6953,-4.7266,-4.873,-4.8887,-4.9863,-5.1118,-5.0935,-5.0627,-5.0047,-4.8718,-4.7884,-4.7715,-4.6464,-4.5884,-4.5807,-4.5807,-4.5807,-4.5807,-4.5807,-4.5534,-4.5201,-4.5471,-4.5534,-4.5148,-4.5468,-4.5684,-4.5566,-4.3997,-4.3222,-4.2766,-4.1458,-4.0496,-4.0496,-4.0496,-4.0408,-4.0205,-3.9951,-3.9717,-3.9514,-3.9245,-3.9101,-3.9101,-3.9101,-3.9231,-3.9788,-4.0884,-4.1702,-4.2203,-4.3336,-4.3875,-4.4005,-4.4005,-4.4005,-4.4008,-4.3915,-4.3816,-4.3699,-4.3444,-4.3032,-4.2431,-4.1191,-4.0052,-3.9336,-3.8861,-3.8696,-3.8535,-3.8254,-3.7978,-3.7961,-3.7491,-3.7542,-3.768,-3.7318,-3.7508,-3.7818,-3.7668,-3.7737,-3.841,-3.9129,-3.9664,-4.0008,-3.9905,-3.9319,-3.8715,-3.7542,-3.6542,-3.5956,-3.5266,-3.5439,-3.5749,-3.5801,-3.5818,-3.5625,-3.5101,-3.4003,-3.2977,-3.1662,-3.0862,-3.0392,-3.0017,-2.9649,-5.6621,-5.6602,-5.6616,-5.656,-5.6444,-5.6445,-5.5781,-5.4922,-5.4004,-5.2754,-5.1172,-4.9512,-4.8398,-4.7558,-4.6992,-4.7383,-4.8887,-4.9101,-5.0058,-5.0704,-5.0455,-4.9785,-4.9485,-4.8108,-4.737,-4.7103,-4.6225,-4.5865,-4.5807,-4.5807,-4.5807,-4.5807,-4.5807,-4.5708,-4.5493,-4.5679,-4.5734,-4.5461,-4.5596,-4.5715,-4.5414,-4.4087,-4.3158,-4.284,-4.142,-4.0554,-4.0496,-4.0489,-4.0408,-4.0196,-3.9951,-3.9717,-3.9495,-3.9245,-3.9115,-3.9175,-3.9287,-3.9672,-4.0346,-4.12,-4.2017,-4.2705,-4.3466,-4.3986,-4.4005,-4.4005,-4.4005,-4.4005,-4.3926,-4.3865,-4.3783,-4.3531,-4.3232,-4.2846,-4.2406,-4.1576,-4.0517,-3.9564,-3.901,-3.8824,-3.8824,-3.8698,-3.8698,-3.8646,-3.8617,-3.8508,-3.8008,-3.7663,-3.7663,-3.7404,-3.765,-3.8185,-3.8962,-3.975,-4.0026,-4.0198,-3.9474,-3.8715,-3.7305,-3.6287,-3.5921,-3.5456,-3.537,-3.5456,-3.5852,-3.6059,-3.6077,-3.5187,-3.3888,-3.2969,-3.2053,-3.1247,-3.0576,-3.0262,-2.9919,-5.6621,-5.6603,-5.6615,-5.6189,-5.5643,-5.5547,-5.4707,-5.3242,-5.2363,-5.1406,-5.0234,-4.8633,-4.7832,-4.7578,-4.7402,-4.791,-4.8984,-4.9609,-5.0488,-5.1045,-4.9669,-4.9015,-4.8671,-4.7649,-4.7178,-4.6846,-4.6194,-4.5826,-4.5807,-4.5807,-4.5807,-4.5807,-4.5761,-4.549,-4.507,-4.5554,-4.5457,-4.5075,-4.545,-4.5776,-4.5449,-4.4109,-4.3096,-4.2834,-4.1378,-4.0593,-4.0496,-4.0496,-4.0408,-4.0196,-3.9981,-3.9841,-3.962,-3.9376,-3.9282,-3.9417,-3.9844,-4.023,-4.0624,-4.1702,-4.2593,-4.289,-4.354,-4.4005,-4.4005,-4.4005,-4.4005,-4.3989,-4.3945,-4.3849,-4.3734,-4.3565,-4.3375,-4.3142,-4.2768,-4.2241,-4.1587,-4.0958,-4.0486,-4.0233,-3.9784,-3.9457,-3.9422,-3.8991,-3.8974,-3.9146,-3.8681,-3.7956,-3.7577,-3.7301,-3.7456,-3.7875,-3.8392,-3.9077,-3.9543,-3.9646,-3.9134,-3.8461,-3.7202,-3.6287,-3.5904,-3.5697,-3.5611,-3.5783,-3.6111,-3.6232,-3.6228,-3.5122,-3.3768,-3.3123,-3.2465,-3.155,-3.0801,-3.0493,-3.0284,-5.6614,-5.6616,-5.6612,-5.6108,-5.5308,-5.4824,-5.3691,-5.2148,-5.1211,-5.0117,-4.8984,-4.791,-4.7617,-4.7617,-4.7676,-4.8262,-4.9473,-5.037,-5.0949,-5.0902,-4.9585,-4.8693,-4.8227,-4.7299,-4.6552,-4.6413,-4.6058,-4.5826,-4.5807,-4.5807,-4.5807,-4.5807,-4.5807,-4.5652,-4.5239,-4.5568,-4.5568,-4.5374,-4.5548,-4.5805,-4.5544,-4.4126,-4.2604,-4.2021,-4.102,-4.0496,-4.0496,-4.0496,-4.0408,-4.0328,-4.0412,-4.0386,-4.024,-4.0215,-4.0248,-4.0364,-4.0643,-4.1181,-4.1702,-4.2277,-4.2965,-4.3336,-4.3801,-4.3931,-4.4005,-4.4005,-4.4005,-4.3989,-4.3958,-4.3878,-4.3749,-4.3699,-4.3582,-4.3375,-4.3013,-4.2575,-4.2092,-4.1596,-4.118,-4.0937,-4.0498,-4.0342,-4.0083,-3.9669,-3.9733,-4.0083,-3.8996,-3.8272,-3.7836,-3.7542,-3.718,-3.7426,-3.7806,-3.8301,-3.887,-3.8922,-3.8582,-3.7944,-3.7111,-3.6508,-3.6163,-3.6008,-3.5887,-3.6094,-3.6245,-3.6237,-3.6027,-3.4837,-3.3902,-3.3365,-3.2641,-3.1707,-3.1078,-3.0878,-3.0716,-5.6523,-5.6391,-5.6391,-5.583,-5.4856,-5.3945,-5.2676,-5.123,-5.0195,-4.8984,-4.7773,-4.75,-4.7285,-4.7422,-4.7773,-4.8789,-5.0117,-5.0659,-5.0978,-5.072,-4.9163,-4.8398,-4.7861,-4.6815,-4.6003,-4.5826,-4.5826,-4.5807,-4.5807,-4.5807,-4.5807,-4.5807,-4.5807,-4.5749,-4.5768,-4.578,-4.5626,-4.5439,-4.5652,-4.5657,-4.5358,-4.3979,-4.2476,-4.1087,-4.0681,-4.0531,-4.0581,-4.0669,-4.0702,-4.0555,-4.1264,-4.1449,-4.1387,-4.1371,-4.1619,-4.1564,-4.1642,-4.198,-4.2426,-4.2909,-4.3355,-4.3986,-4.4005,-4.4005,-4.4005,-4.4005,-4.4005,-4.4005,-4.3974,-4.3976,-4.3897,-4.3832,-4.3767,-4.3583,-4.3232,-4.2789,-4.23,-4.1788,-4.1386,-4.0948,-4.0791,-4.0687,-4.0722,-4.0549,-4.0756,-4.0687,-3.9531,-3.8599,-3.8203,-3.7719,-3.7305,-3.7081,-3.7422,-3.8065,-3.8629,-3.8698,-3.8289,-3.7685,-3.6973,-3.668,-3.637,-3.6215,-3.6094,-3.6176,-3.6276,-3.6229,-3.5805,-3.4734,-3.3987,-3.3547,-3.2647,-3.1543,-3.1215,-3.1232,-3.1055,-5.609,-5.5443,-5.549,-5.462,-5.3138,-5.2206,-5.1328,-5.0234,-4.8789,-4.793,-4.7539,-4.6894,-4.666,-4.6914,-4.8164,-4.959,-5.0586,-5.0696,-5.0383,-5.0018,-4.8588,-4.7675,-4.7338,-4.6474,-4.5899,-4.5814,-4.5807,-4.5807,-4.5807,-4.5807,-4.5807,-4.5807,-4.5807,-4.5807,-4.5807,-4.5768,-4.5478,-4.5142,-4.5471,-4.5529,-4.48,-4.3826,-4.244,-4.0879,-4.061,-4.0573,-4.0739,-4.1197,-4.1517,-4.1538,-4.2718,-4.3153,-4.2922,-4.2299,-4.2006,-4.199,-4.2359,-4.2742,-4.2946,-4.3448,-4.3763,-4.3986,-4.4005,-4.4005,-4.4005,-4.4005,-4.3989,-4.3989,-4.3989,-4.3958,-4.3897,-4.3851,-4.3753,-4.3566,-4.3304,-4.2919,-4.2498,-4.2068,-4.1569,-4.1088,-4.0971,-4.0894,-4.0894,-4.0894,-4.0894,-4.0705,-3.9928,-3.9008,-3.8439,-3.7818,-3.7219,-3.7077,-3.7094,-3.7784,-3.8513,-3.8439,-3.8203,-3.7616,-3.7064,-3.6784,-3.6525,-3.6353,-3.6301,-3.6297,-3.6272,-3.6208,-3.5543,-3.4671,-3.4059,-3.3605,-3.2505,-3.1342,-3.1252,-3.1193,-3.1154,-5.5925,-5.5232,-5.5269,-5.4303,-5.2646,-5.1267,-5.0253,-4.9413,-4.8164,-4.7344,-4.7051,-4.6933,-4.6973,-4.7207,-4.7734,-4.918,-5.0254,-5.036,-5.0037,-4.9578,-4.8228,-4.7281,-4.7036,-4.6247,-4.5924,-4.5807,-4.5807,-4.5807,-4.5807,-4.5807,-4.5807,-4.5807,-4.5807,-4.5807,-4.5807,-4.5787,-4.5336,-4.4949,-4.5297,-4.5394,-4.4613,-4.3717,-4.2401,-4.1189,-4.0689,-4.0588,-4.0754,-4.137,-4.1726,-4.1946,-4.3177,-4.3767,-4.3745,-4.3585,-4.3265,-4.3104,-4.326,-4.341,-4.3429,-4.3838,-4.3968,-4.4005,-4.4005,-4.4005,-4.4005,-4.4005,-4.3989,-4.3942,-4.3945,-4.3929,-4.3851,-4.382,-4.3736,-4.36,-4.3357,-4.305,-4.2711,-4.2335,-4.1817,-4.1283,-4.1134,-4.1035,-4.0894,-4.0894,-4.0894,-4.0601,-4.0146,-3.9491,-3.8784,-3.806,-3.7392,-3.6835,-3.6749,-3.7042,-3.7646,-3.7698,-3.7732,-3.7284,-3.7029,-3.6766,-3.6784,-3.6663,-3.6456,-3.6335,-3.6272,-3.6324,-3.5814,-3.5112,-3.4375,-3.3607,-3.2649,-3.1791,-3.1399,-3.1171,-3.1134,-5.535,-5.469,-5.4734,-5.3868,-5.2309,-5.0581,-4.951,-4.8768,-4.7773,-4.6933,-4.6465,-4.6933,-4.7246,-4.7363,-4.7676,-4.8476,-4.9863,-4.9715,-4.9389,-4.8945,-4.7732,-4.6954,-4.6655,-4.6259,-4.5814,-4.5807,-4.5807,-4.5807,-4.5807,-4.5807,-4.5807,-4.5807,-4.5807,-4.5807,-4.5807,-4.5807,-4.5258,-4.4891,-4.5316,-4.5374,-4.4594,-4.3838,-4.28,-4.1402,-4.1166,-4.1215,-4.1407,-4.2133,-4.2459,-4.2821,-4.3633,-4.4423,-4.434,-4.4692,-4.4783,-4.4472,-4.4214,-4.4109,-4.4064,-4.4048,-4.4085,-4.407,-4.402,-4.4005,-4.4005,-4.3989,-4.3974,-4.3913,-4.3897,-4.3883,-4.3837,-4.3753,-4.3703,-4.3617,-4.3426,-4.3196,-4.292,-4.2577,-4.2175,-4.177,-4.1431,-4.1175,-4.1035,-4.0894,-4.0894,-4.0877,-4.0446,-3.9922,-3.9198,-3.841,-3.765,-3.6732,-3.6387,-3.6387,-3.6611,-3.6715,-3.6784,-3.6732,-3.6663,-3.6577,-3.6818,-3.7064,-3.6887,-3.6835,-3.6612,-3.6577,-3.6067,-3.5463,-3.4674,-3.382,-3.2927,-3.2259,-3.1836,-3.1376,-3.1171,-5.3578,-5.2919,-5.2993,-5.2443,-5.1411,-4.9839,-4.9041,-4.8729,-4.7265,-4.6426,-4.6308,-4.6406,-4.6523,-4.668,-4.7344,-4.8164,-4.8613,-4.8469,-4.8113,-4.7858,-4.691,-4.6304,-4.6099,-4.5984,-4.5834,-4.5814,-4.5807,-4.5807,-4.5807,-4.5807,-4.5807,-4.5807,-4.5807,-4.5807,-4.5807,-4.5807,-4.4975,-4.4078,-4.5026,-4.5374,-4.4729,-4.442,-4.3775,-4.3111,-4.2755,-4.2657,-4.2681,-4.3297,-4.3789,-4.3992,-4.4825,-4.5312,-4.5247,-4.5137,-4.5105,-4.4887,-4.4642,-4.4411,-4.4335,-4.4262,-4.4207,-4.4147,-4.407,-4.4039,-4.4005,-4.3989,-4.3958,-4.3897,-4.3897,-4.3832,-4.3769,-4.3703,-4.3634,-4.3566,-4.348,-4.3322,-4.3123,-4.2883,-4.2498,-4.2216,-4.1899,-4.1458,-4.118,-4.1018,-4.0894,-4.086,-4.0722,-4.0204,-3.9491,-3.8617,-3.7909,-3.6991,-3.6335,-3.6284,-3.6284,-3.6284,-3.6284,-3.6284,-3.6353,-3.6473,-3.6801,-3.7202,-3.7754,-3.7624,-3.733,-3.6847,-3.6331,-3.5676,-3.4861,-3.4084,-3.3279,-3.2737,-3.2259,-3.1802,-3.1224,-5.2349,-5.2606,-5.2672,-5.2202,-5.1306,-5.0069,-4.9292,-4.8688,-4.7598,-4.6758,-4.6367,-4.6289,-4.6289,-4.6484,-4.7207,-4.7793,-4.8027,-4.7729,-4.7541,-4.726,-4.658,-4.6065,-4.5994,-4.5931,-4.5867,-4.5814,-4.5807,-4.5807,-4.5807,-4.5807,-4.5807,-4.5807,-4.5807,-4.5807,-4.5807,-4.5807,-4.5142,-4.4601,-4.4717,-4.491,-4.4678,-4.4516,-4.4188,-4.3382,-4.3271,-4.3264,-4.3475,-4.3975,-4.4372,-4.4537,-4.5178,-4.5549,-4.5457,-4.5362,-4.5272,-4.5237,-4.5072,-4.4814,-4.4544,-4.4426,-4.4317,-4.4222,-4.4116,-4.4005,-4.4005,-4.4005,-4.3974,-4.3897,-4.3897,-4.3832,-4.3718,-4.3651,-4.3582,-4.3531,-4.348,-4.3445,-4.3304,-4.3142,-4.2882,-4.2634,-4.2378,-4.1966,-4.1596,-4.1391,-4.1249,-4.1047,-4.088,-4.0441,-3.9537,-3.8439,-3.7818,-3.7249,-3.668,-3.6284,-3.6284,-3.6284,-3.6284,-3.6284,-3.6284,-3.6456,-3.6801,-3.7232,-3.7836,-3.8141,-3.7868,-3.731,-3.6664,-3.5956,-3.5234,-3.4457,-3.3685,-3.3089,-3.2496,-3.1701,-3.1241,-5.1502,-5.2259,-5.235,-5.198,-5.1338,-5.0475,-4.9641,-4.8821,-4.7948,-4.7109,-4.6484,-4.6289,-4.6289,-4.6406,-4.6894,-4.7207,-4.7266,-4.7283,-4.7237,-4.6944,-4.6554,-4.6131,-4.6013,-4.5958,-4.588,-4.5807,-4.5807,-4.5807,-4.5807,-4.5807,-4.5807,-4.5807,-4.5807,-4.5807,-4.5807,-4.5768,-4.542,-4.5026,-4.4427,-4.4407,-4.4497,-4.4323,-4.4052,-4.3762,-4.3594,-4.3638,-4.3902,-4.4411,-4.4778,-4.4943,-4.5299,-4.5603,-4.554,-4.5495,-4.5448,-4.5419,-4.535,-4.5184,-4.485,-4.4623,-4.4458,-4.4292,-4.4147,-4.4005,-4.4005,-4.4005,-4.3992,-4.3931,-4.3897,-4.3781,-4.3649,-4.3617,-4.3565,-4.3531,-4.3479,-4.3479,-4.3443,-4.3213,-4.3087,-4.2939,-4.2731,-4.2613,-4.2254,-4.1938,-4.1657,-4.1346,-4.1007,-4.0637,-3.9772,-3.8669,-3.8047,-3.7616,-3.7129,-3.6594,-3.6284,-3.6284,-3.6284,-3.6284,-3.6284,-3.6525,-3.6922,-3.7422,-3.8025,-3.8171,-3.8212,-3.7973,-3.7449,-3.6546,-3.5625,-3.491,-3.4189,-3.3376,-3.2628,-3.1799,-3.1258,-5.1152,-5.1402,-5.1472,-5.1492,-5.1338,-5.0475,-4.9659,-4.8839,-4.8007,-4.7168,-4.6367,-4.6289,-4.6289,-4.6348,-4.6406,-4.6523,-4.6445,-4.6387,-4.65,-4.6451,-4.6247,-4.6131,-4.6039,-4.5977,-4.5925,-4.5821,-4.5807,-4.5807,-4.5807,-4.5807,-4.5807,-4.5807,-4.5807,-4.5807,-4.5807,-4.5787,-4.5768,-4.5258,-4.4446,-4.4091,-4.4188,-4.4052,-4.3762,-4.4284,-4.4458,-4.4806,-4.549,-4.5421,-4.5476,-4.5488,-4.561,-4.5665,-4.562,-4.5586,-4.555,-4.5541,-4.5551,-4.538,-4.5143,-4.4801,-4.4549,-4.4378,-4.4192,-4.4005,-4.4005,-4.4005,-4.3976,-4.3929,-4.3913,-4.3816,-4.3701,-4.3617,-4.3582,-4.3458,-4.3351,-4.3185,-4.3168,-4.3208,-4.3103,-4.3142,-4.3068,-4.2957,-4.2844,-4.2516,-4.2047,-4.1709,-4.122,-4.0845,-4.0308,-3.9341,-3.8599,-3.8047,-3.7616,-3.7064,-3.6387,-3.6284,-3.6284,-3.6284,-3.6284,-3.6663,-3.7133,-3.7668,-3.8025,-3.8365,-3.8424,-3.8339,-3.8077,-3.6956,-3.5999,-3.5396,-3.4658,-3.3694,-3.2747,-3.1884,-3.1427,-5.1113,-5.1304,-5.1374,-5.1394,-5.1377,-5.1037,-5.0104,-4.8934,-4.8513,-4.7578,-4.6289,-4.6289,-4.6289,-4.6289,-4.6289,-4.6289,-4.6289,-4.6289,-4.6289,-4.6269,-4.6209,-4.6145,-4.6061,-4.5988,-4.5929,-4.5834,-4.5807,-4.5807,-4.5807,-4.5807,-4.5807,-4.5807,-4.5807,-4.5807,-4.5807,-4.5807,-4.5807,-4.5529,-4.4755,-4.4342,-4.4253,-4.3808,-4.3479,-4.373,-4.3801,-4.4233,-4.4845,-4.4964,-4.5305,-4.5611,-4.5692,-4.5698,-4.5682,-4.562,-4.5603,-4.5594,-4.5594,-4.5486,-4.5288,-4.4929,-4.4584,-4.4214,-4.4051,-4.4005,-4.4005,-4.4005,-4.3989,-4.3974,-4.3942,-4.3881,-4.3769,-4.3719,-4.3649,-4.3437,-4.3222,-4.3002,-4.2893,-4.2969,-4.2896,-4.2829,-4.312,-4.3304,-4.3214,-4.3087,-4.2557,-4.2053,-4.1543,-4.1041,-4.0539,-4.002,-3.9255,-3.8496,-3.803,-3.7323,-3.6628,-3.6439,-3.6301,-3.6284,-3.6284,-3.6594,-3.6952,-3.7392,-3.7767,-3.821,-3.8418,-3.8156,-3.7718,-3.7052,-3.6339,-3.5655,-3.4798,-3.3846,-3.2899,-3.1884,-3.1529,-5.1113,-5.1308,-5.1374,-5.1394,-5.1377,-5.1112,-5.0158,-4.893,-4.855,-4.7714,-4.6308,-4.6289,-4.6289,-4.6289,-4.6289,-4.6289,-4.6289,-4.6289,-4.6289,-4.6269,-4.6238,-4.6186,-4.6131,-4.6054,-4.5956,-4.5867,-4.5821,-4.5821,-4.5807,-4.5807,-4.5807,-4.5807,-4.5807,-4.5807,-4.5807,-4.5807,-4.5807,-4.5606,-4.4794,-4.4253,-4.4059,-4.3073,-4.2725,-4.2821,-4.2918,-4.3363,-4.4072,-4.4457,-4.4875,-4.5286,-4.5557,-4.573,-4.5706,-4.5673,-4.564,-4.5631,-4.5605,-4.5515,-4.5288,-4.4912,-4.4517,-4.4109,-4.402,-4.4005,-4.4005,-4.4005,-4.3989,-4.3989,-4.3989,-4.3926,-4.382,-4.3771,-4.3686,-4.3475,-4.3276,-4.3074,-4.28,-4.2746,-4.2599,-4.2492,-4.2948,-4.3426,-4.3357,-4.3214,-4.277,-4.2239,-4.1692,-4.1288,-4.0978,-4.0441,-3.9859,-3.9117,-3.8422,-3.7629,-3.6853,-3.6611,-3.637,-3.628,-3.628,-3.6255,-3.6603,-3.6999,-3.7317,-3.7612,-3.7734,-3.774,-3.7615,-3.7388,-3.6684,-3.5864,-3.4803,-3.3626,-3.2459,-3.1495,-3.1393,-5.1093,-5.1289,-5.1316,-5.1336,-5.1141,-5.0487,-4.9612,-4.8616,-4.7925,-4.7148,-4.6348,-4.6289,-4.6289,-4.6289,-4.6289,-4.6289,-4.6289,-4.6289,-4.6289,-4.6289,-4.6282,-4.6239,-4.6181,-4.6096,-4.6003,-4.5929,-4.5874,-4.586,-4.5807,-4.5807,-4.5807,-4.5807,-4.5807,-4.5807,-4.5807,-4.5807,-4.5807,-4.5575,-4.4214,-4.3614,-4.3169,-4.2048,-4.1699,-4.1912,-4.2048,-4.2473,-4.3201,-4.4014,-4.4452,-4.4831,-4.5517,-4.5746,-4.5777,-4.5734,-4.5693,-4.5673,-4.5612,-4.5495,-4.5286,-4.4796,-4.4393,-4.4064,-4.4005,-4.4005,-4.4005,-4.4005,-4.4005,-4.4005,-4.4005,-4.3945,-4.3851,-4.3788,-4.3686,-4.351,-4.3292,-4.2817,-4.2523,-4.2286,-4.2121,-4.1901,-4.2727,-4.3461,-4.341,-4.3268,-4.2883,-4.238,-4.1842,-4.149,-4.1283,-4.0868,-4.0297,-3.9658,-3.8898,-3.8094,-3.7335,-3.6753,-3.6439,-3.6349,-3.6255,-3.6251,-3.6187,-3.6388,-3.6683,-3.6994,-3.7211,-3.7365,-3.7712,-3.7967,-3.6746,-3.5486,-3.4358,-3.3203,-3.2019,-3.1258,-3.1207,-5.0782,-5.0451,-5.0513,-5.0204,-4.9755,-5.001,-4.9309,-4.8005,-4.7139,-4.6561,-4.6348,-4.6289,-4.6289,-4.6289,-4.6289,-4.6289,-4.6289,-4.6289,-4.6289,-4.6289,-4.6304,-4.6252,-4.6206,-4.6135,-4.6054,-4.5966,-4.5923,-4.588,-4.5807,-4.5807,-4.5807,-4.5807,-4.5807,-4.5807,-4.5807,-4.5807,-4.5807,-4.5497,-4.4311,-4.3285,-4.3092,-4.1777,-4.0951,-4.1274,-4.1274,-4.1661,-4.2415,-4.3266,-4.3924,-4.4497,-4.5262,-4.5718,-4.5781,-4.575,-4.569,-4.5673,-4.5612,-4.539,-4.5057,-4.4629,-4.4368,-4.4113,-4.4005,-4.4005,-4.4005,-4.4005,-4.4005,-4.4005,-4.4005,-4.3945,-4.3899,-4.3867,-4.3747,-4.3485,-4.3087,-4.2281,-4.1842,-4.1662,-4.1497,-4.124,-4.1644,-4.2909,-4.337,-4.341,-4.3105,-4.2826,-4.2338,-4.1903,-4.164,-4.1236,-4.0712,-4.0078,-3.937,-3.8582,-3.787,-3.7236,-3.6577,-3.6335,-3.6255,-3.6208,-3.6144,-3.6058,-3.6117,-3.6432,-3.6756,-3.7041,-3.7161,-3.7035,-3.6084,-3.4928,-3.415,-3.3271,-3.2259,-3.1565,-3.1207,-5.0607,-5.0022,-5.0064,-4.9421,-4.8564,-4.8992,-4.8429,-4.7188,-4.6552,-4.6306,-4.6289,-4.6289,-4.6289,-4.6289,-4.6289,-4.6289,-4.6289,-4.6289,-4.6289,-4.6289,-4.6306,-4.628,-4.6245,-4.6167,-4.608,-4.5998,-4.5958,-4.5906,-4.5807,-4.5807,-4.5807,-4.5807,-4.5807,-4.5807,-4.5807,-4.5807,-4.5807,-4.5336,-4.4291,-4.3305,-4.2821,-4.1874,-4.0835,-4.0855,-4.0913,-4.1081,-4.1661,-4.2415,-4.3266,-4.411,-4.4851,-4.5513,-4.5645,-4.5743,-4.5687,-4.5671,-4.5532,-4.5272,-4.4898,-4.4621,-4.4335,-4.4051,-4.4005,-4.4005,-4.4005,-4.4005,-4.4005,-4.4005,-4.4005,-4.3976,-4.3913,-4.3897,-4.3777,-4.3481,-4.3175,-4.2388,-4.1881,-4.1772,-4.1552,-4.1222,-4.1387,-4.2505,-4.3294,-4.3388,-4.3339,-4.3105,-4.2863,-4.2436,-4.1984,-4.1525,-4.1115,-4.0556,-3.9847,-3.9088,-3.8358,-3.7668,-3.7029,-3.6387,-3.6216,-3.6165,-3.6058,-3.5949,-3.591,-3.5866,-3.6162,-3.6356,-3.6344,-3.6045,-3.5746,-3.5216,-3.4472,-3.3541,-3.2513,-3.1955,-3.1478,-5.0549,-4.9964,-4.9986,-4.9031,-4.7723,-4.7645,-4.7128,-4.634,-4.632,-4.6305,-4.6289,-4.6289,-4.6289,-4.6289,-4.6289,-4.6289,-4.6289,-4.6289,-4.6289,-4.6289,-4.6289,-4.6305,-4.6277,-4.6212,-4.6118,-4.6044,-4.5963,-4.5911,-4.5814,-4.5807,-4.5807,-4.5807,-4.5807,-4.5807,-4.5807,-4.5807,-4.5807,-4.5355,-4.4233,-4.344,-4.2957,-4.1699,-4.0971,-4.0797,-4.0835,-4.0855,-4.1255,-4.1777,-4.2492,-4.3305,-4.413,-4.4949,-4.545,-4.5708,-4.5704,-4.5616,-4.5438,-4.5167,-4.4887,-4.4661,-4.4378,-4.4131,-4.4036,-4.402,-4.4005,-4.4005,-4.4005,-4.4005,-4.4005,-4.3958,-4.391,-4.3862,-4.3814,-4.3679,-4.3614,-4.3048,-4.2486,-4.2213,-4.1992,-4.1901,-4.2084,-4.2707,-4.3074,-4.3242,-4.3298,-4.3375,-4.3123,-4.2826,-4.2358,-4.1796,-4.1415,-4.1087,-4.0354,-3.9554,-3.8858,-3.8203,-3.7512,-3.687,-3.6234,-3.6058,-3.5932,-3.5844,-3.5778,-3.5711,-3.5644,-3.574,-3.5949,-3.6101,-3.6169,-3.5537,-3.4844,-3.3744,-3.2716,-3.2344,-3.1955,-4.9357,-4.8206,-4.8269,-4.7686,-4.6768,-4.6671,-4.6521,-4.6315,-4.6296,-4.6301,-4.6288,-4.6288,-4.6289,-4.6289,-4.6289,-4.6289,-4.6289,-4.6289,-4.6289,-4.6289,-4.6289,-4.6289,-4.6265,-4.623,-4.6147,-4.6061,-4.5998,-4.5929,-4.5827,-4.5807,-4.5807,-4.5807,-4.5807,-4.5807,-4.5807,-4.5807,-4.5807,-4.5413,-4.4175,-4.3576,-4.2937,-4.1719,-4.1126,-4.0835,-4.0797,-4.0797,-4.099,-4.1506,-4.2125,-4.2512,-4.3859,-4.4775,-4.4865,-4.5379,-4.5673,-4.562,-4.5448,-4.5256,-4.4969,-4.4764,-4.4524,-4.4266,-4.4162,-4.4067,-4.4036,-4.4005,-4.4005,-4.4005,-4.4005,-4.3958,-4.3958,-4.3926,-4.3865,-4.3786,-4.3666,-4.3358,-4.2831,-4.2543,-4.2268,-4.1607,-4.1827,-4.2139,-4.2543,-4.2947,-4.304,-4.3298,-4.3358,-4.3069,-4.2693,-4.2136,-4.1666,-4.1338,-4.0828,-4.0038,-3.9422,-3.8784,-3.8065,-3.7348,-3.6715,-3.6139,-3.5975,-3.5866,-3.5689,-3.5616,-3.5616,-3.565,-3.5757,-3.591,-3.6011,-3.5893,-3.5228,-3.4049,-3.3072,-3.2818,-3.2412,-4.8852,-4.7501,-4.7548,-4.71,-4.6378,-4.6302,-4.6303,-4.6288,-4.6293,-4.63,-4.6306,-4.6287,-4.6289,-4.6289,-4.6289,-4.6289,-4.6289,-4.6289,-4.6289,-4.6289,-4.6289,-4.6289,-4.6269,-4.6217,-4.6158,-4.6098,-4.6012,-4.5935,-4.5841,-4.5807,-4.5807,-4.5807,-4.5807,-4.5807,-4.5807,-4.5807,-4.5807,-4.5374,-4.4639,-4.3788,-4.2899,-4.199,-4.1358,-4.0874,-4.0835,-4.0797,-4.0835,-4.1409,-4.1622,-4.2048,-4.3498,-4.4265,-4.4587,-4.5283,-4.5648,-4.5594,-4.5457,-4.5301,-4.5094,-4.49,-4.4635,-4.4421,-4.4285,-4.4147,-4.407,-4.4005,-4.4005,-4.4005,-4.4005,-4.4005,-4.4005,-4.4008,-4.3915,-4.382,-4.366,-4.35,-4.3177,-4.2854,-4.2121,-4.1222,-4.1167,-4.146,-4.1846,-4.2359,-4.2855,-4.326,-4.3428,-4.3269,-4.2882,-4.2378,-4.1899,-4.1525,-4.1076,-4.0474,-3.9911,-3.9295,-3.8496,-3.7767,-3.7158,-3.6615,-3.6224,-3.5888,-3.5711,-3.5661,-3.5616,-3.565,-3.5684,-3.565,-3.5684,-3.5616,-3.5549,-3.4742,-3.3964,-3.366,-3.3136,-4.8682,-4.729,-4.7452,-4.7002,-4.636,-4.6302,-4.6302,-4.6302,-4.6288,-4.6299,-4.6305,-4.6306,-4.6288,-4.6289,-4.6289,-4.6289,-4.6289,-4.6289,-4.6289,-4.6289,-4.6289,-4.6289,-4.6269,-4.6237,-4.616,-4.6098,-4.6012,-4.5922,-4.5841,-4.5807,-4.5807,-4.5807,-4.5807,-4.5807,-4.5807,-4.5807,-4.5807,-4.5626,-4.5084,-4.4369,-4.344,-4.2531,-4.1661,-4.1061,-4.0874,-4.0797,-4.0797,-4.0945,-4.1139,-4.1932,-4.2841,-4.373,-4.4713,-4.5302,-4.5563,-4.5584,-4.5485,-4.5352,-4.522,-4.5042,-4.4814,-4.4581,-4.436,-4.4252,-4.4162,-4.402,-4.4005,-4.4005,-4.4005,-4.4005,-4.4005,-4.3989,-4.3929,-4.3853,-4.3732,-4.3594,-4.3382,-4.3001,-4.2396,-4.1589,-4.1222,-4.1515,-4.2047,-4.2616,-4.3094,-4.3406,-4.3683,-4.3614,-4.3087,-4.2632,-4.221,-4.1762,-4.1356,-4.0903,-4.0326,-3.9668,-3.8869,-3.8163,-3.7472,-3.6839,-3.626,-3.5949,-3.5734,-3.5684,-3.5616,-3.5616,-3.5616,-3.5616,-3.5616,-3.5616,-3.5498,-3.5284,-3.4878,-3.4489,-3.3812,-4.7356,-4.6495,-4.6579,-4.6475,-4.6321,-4.6302,-4.6302,-4.6302,-4.6303,-4.629,-4.6296,-4.6299,-4.6303,-4.6288,-4.6288,-4.6289,-4.6289,-4.6289,-4.6289,-4.6289,-4.6289,-4.6289,-4.6289,-4.6238,-4.6162,-4.6079,-4.6012,-4.5916,-4.5841,-4.5807,-4.5807,-4.5807,-4.5807,-4.5807,-4.5807,-4.5807,-4.5787,-4.5761,-4.5529,-4.5007,-4.4272,-4.2918,-4.1816,-4.1506,-4.1358,-4.0945,-4.0874,-4.0855,-4.0913,-4.1255,-4.2589,-4.3916,-4.5352,-4.56,-4.5668,-4.5603,-4.5522,-4.5438,-4.5332,-4.5197,-4.5007,-4.4802,-4.4627,-4.444,-4.4266,-4.4097,-4.4005,-4.4005,-4.4005,-4.4005,-4.4005,-4.3989,-4.3961,-4.3867,-4.3788,-4.3652,-4.3532,-4.3056,-4.2598,-4.2103,-4.1535,-4.1774,-4.2323,-4.2855,-4.3296,-4.3773,-4.425,-4.4216,-4.3488,-4.2955,-4.2591,-4.2166,-4.1758,-4.1261,-4.0725,-4.0051,-3.9237,-3.8308,-3.7503,-3.687,-3.6273,-3.601,-3.5817,-3.5684,-3.5616,-3.5684,-3.5701,-3.5616,-3.5616,-3.5616,-3.5583,-3.5419,-3.5419,-3.5131,-3.4382,-4.689,-4.6237,-4.6271,-4.6302,-4.6302,-4.6302,-4.6302,-4.6302,-4.6302,-4.6303,-4.6288,-4.6293,-4.63,-4.6306,-4.6287,-4.6288,-4.6289,-4.6289,-4.6289,-4.6289,-4.6289,-4.6289,-4.6269,-4.624,-4.6212,-4.6138,-4.5993,-4.5892,-4.5841,-4.5807,-4.5807,-4.5807,-4.5807,-4.5807,-4.5807,-4.5807,-4.5807,-4.5807,-4.5807,-4.5529,-4.5007,-4.3885,-4.2879,-4.255,-4.1893,-4.1429,-4.1158,-4.1087,-4.0816,-4.1235,-4.2434,-4.4051,-4.5232,-4.5719,-4.5711,-4.5673,-4.5622,-4.5568,-4.5467,-4.5361,-4.5197,-4.503,-4.4846,-4.4653,-4.4374,-4.4196,-4.4082,-4.4085,-4.4005,-4.4005,-4.4005,-4.3989,-4.3929,-4.3853,-4.3788,-4.3703,-4.3345,-4.2892,-4.2561,-4.2249,-4.1937,-4.1992,-4.2635,-4.3534,-4.3938,-4.4158,-4.4635,-4.4728,-4.4017,-4.3561,-4.3116,-4.2717,-4.2424,-4.1923,-4.1411,-4.0569,-3.963,-3.8638,-3.7564,-3.687,-3.6298,-3.6083,-3.5878,-3.5864,-3.5836,-3.5887,-3.587,-3.5718,-3.5616,-3.5616,-3.5616,-3.5583,-3.5616,-3.5616,-3.5109,-4.6823,-4.6272,-4.6275,-4.6302,-4.6302,-4.6302,-4.6302,-4.6302,-4.6302,-4.6302,-4.6302,-4.6288,-4.6299,-4.6304,-4.6306,-4.6288,-4.6289,-4.6289,-4.6289,-4.6289,-4.6289,-4.6289,-4.6289,-4.6282,-4.6238,-4.6138,-4.6018,-4.5947,-4.5887,-4.5854,-4.5807,-4.5807,-4.5807,-4.5807,-4.5807,-4.5807,-4.5807,-4.5807,-4.5807,-4.5807,-4.5452,-4.5045,-4.4175,-4.3363,-4.2686,-4.2183,-4.1816,-4.1467,-4.1023,-4.1661,-4.2686,-4.4206,-4.5228,-4.5785,-4.5738,-4.569,-4.5648,-4.5622,-4.5568,-4.5467,-4.5351,-4.521,-4.503,-4.4814,-4.4544,-4.4355,-4.4248,-4.4131,-4.4085,-4.4005,-4.4005,-4.4026,-4.395,-4.413,-4.4081,-4.4088,-4.3655,-4.3276,-4.3057,-4.2837,-4.2837,-4.2818,-4.3369,-4.4268,-4.4618,-4.4837,-4.4893,-4.4857,-4.4748,-4.4547,-4.4217,-4.3794,-4.3437,-4.2887,-4.2,-4.0901,-3.9778,-3.8695,-3.7634,-3.6922,-3.6341,-3.61,-3.6019,-3.6164,-3.6163,-3.6028,-3.5943,-3.5825,-3.5718,-3.5616,-3.5616,-3.5616,-3.5616,-3.5633,-3.5735,-4.637,-4.6294,-4.63,-4.6302,-4.6302,-4.6302,-4.6302,-4.6302,-4.6302,-4.6302,-4.6302,-4.6302,-4.629,-4.6277,-4.6296,-4.6301,-4.6288,-4.6288,-4.6289,-4.6289,-4.6289,-4.6289,-4.6289,-4.6284,-4.6216,-4.6135,-4.6041,-4.5975,-4.5931,-4.5854,-4.5807,-4.5807,-4.5807,-4.5807,-4.5807,-4.5807,-4.5807,-4.5807,-4.5807,-4.5807,-4.5587,-4.5162,-4.4678,-4.404,-4.3518,-4.2744,-4.2164,-4.1893,-4.1777,-4.228,-4.3317,-4.4638,-4.537,-4.5765,-4.5719,-4.5698,-4.5657,-4.564,-4.5596,-4.5522,-4.5419,-4.5371,-4.5197,-4.5049,-4.4827,-4.4627,-4.4463,-4.4252,-4.4177,-4.4055,-4.4058,-4.4135,-4.4165,-4.4829,-4.506,-4.5287,-4.52,-4.5037,-4.4874,-4.4819,-4.48,-4.48,-4.4911,-4.5553,-4.5883,-4.6049,-4.614,-4.6048,-4.5663,-4.5462,-4.5242,-4.4858,-4.4436,-4.3084,-4.1871,-4.081,-3.972,-3.8657,-3.7763,-3.7145,-3.6594,-3.6143,-3.6127,-3.6706,-3.6299,-3.5887,-3.5836,-3.6113,-3.5718,-3.5616,-3.5616,-3.5616,-3.5616,-3.5684,-3.5825]},{"header":{"parameterUnit":"m.s-1","parameterCategory":1,"la1":31.0,"la2":29.5877,"lo1":-88.7671,"lo2":-86.6584,"dy":0.0162,"dx":0.0185,"nx":115,"ny":88,"refTime":"2026-04-21T00:00:00:Z","depth":0,"parameterNumber":3,"parameterNumberName":"V-component_of_WINDS"},"data":[0.0,0.0,0.0,0.0,0.0,0.0,0.0,0.0,0.0,0.0,0.0,0.0,0.0,0.0,0.0,0.0,0.0,0.0,0.0,0.0,0.0,0.0,0.0,0.0,0.0,0.0,0.0,0.0,0.0,0.0,0.0,0.0,0.0,0.0,0.0,0.0,0.0,0.0,0.0,0.0,0.0,0.0,0.0,0.0,0.0,0.0,0.0,0.0,0.0,0.0,0.0,0.0,0.0,0.0,0.0,0.0,0.0,0.0,0.0,0.0,0.0,0.0,0.0,0.0,0.0,0.0,0.0,0.0,0.0,0.0,0.0,0.0,0.0,0.0,0.0,0.0,0.0,0.0,0.0,0.0,0.0,0.0,0.0,0.0,0.0,0.0,0.0,0.0,0.0,0.0,0.0,0.0,0.0,0.0,0.0,0.0,0.0,0.0,0.0,0.0,0.0,0.0,0.0,0.0,0.0,0.0,0.0,0.0,0.0,0.0,0.0,0.0,0.0,0.0,0.0,0.0,0.0,0.0,0.0,0.0,0.0,0.0,0.0,0.0,0.0,0.0,0.0,0.0,0.0,0.0,0.0,0.0,0.0,0.0,0.0,0.0,0.0,0.0,0.0,0.0,0.0,0.0,0.0,0.0,0.0,0.0,0.0,0.0,0.0,0.0,0.0,0.0,0.0,0.0,0.0,0.0,0.0,0.0,0.0,0.0,0.0,0.0,0.0,0.0,0.0,0.0,0.0,0.0,0.0,0.0,0.0,0.0,0.0,0.0,0.0,0.0,0.0,0.0,0.0,0.0,0.0,0.0,0.0,0.0,0.0,0.0,0.0,0.0,0.0,0.0,0.0,0.0,0.0,0.0,0.0,0.0,0.0,0.0,0.0,0.0,0.0,0.0,0.0,0.0,0.0,0.0,0.0,0.0,0.0,0.0,0.0,0.0,0.0,0.0,0.0,0.0,0.0,0.0,0.0,0.0,0.0,0.0,0.0,0.0,0.0,0.0,0.0,0.0,0.0,0.0,0.0,0.0,0.0,0.0,0.0,0.0,0.0,0.0,0.0,0.0,0.0,0.0,0.0,0.0,0.0,0.0,0.0,0.0,0.0,0.0,0.0,0.0,0.0,0.0,0.0,0.0,0.0,0.0,0.0,0.0,0.0,0.0,0.0,0.0,0.0,0.0,0.0,0.0,0.0,0.0,0.0,0.0,0.0,0.0,0.0,0.0,0.0,0.0,0.0,0.0,0.0,0.0,0.0,0.0,0.0,0.0,0.0,0.0,0.0,0.0,0.0,0.0,0.0,0.0,0.0,0.0,0.0,0.0,0.0,0.0,0.0,0.0,0.0,0.0,0.0,0.0,0.0,0.0,0.0,0.0,0.0,0.0,0.0,0.0,0.0,0.0,0.0,0.0,0.0,0.0,0.0,0.0,0.0,0.0,0.0,0.0,0.0,0.0,0.0,0.0,0.0,0.0,0.0,0.0,0.0,0.0,0.0,0.0,0.0,0.0,0.0,0.0,0.0,0.0,0.0,0.0,0.0,0.0,0.0,0.0,0.0,0.0,0.0,0.0,0.0,0.0,0.0,0.0,0.0,0.0,0.0,0.0,0.0,0.0,0.0,0.0,0.0,0.0,0.0,0.0,0.0,0.0,0.0,0.0,0.0,0.0,0.0,0.0,0.0,0.0,0.0,0.0,0.0,0.0,0.0,0.0,0.0,0.0,0.0,0.0,0.0,0.0,0.0,0.0,0.0,0.0,0.0,0.0,0.0,0.0,0.0,0.0,0.0,0.0,0.0,0.0,0.0,0.0,0.0,0.0,0.0,0.0,0.0,0.0,0.0,0.0,0.0,0.0,0.0,0.0,0.0,0.0,0.0,0.0,0.0,0.0,0.0,0.0,0.0,0.0,0.0,0.0,0.0,0.0,0.0,0.0,0.0,0.0,0.0,0.0,0.0,0.0,0.0,0.0,0.0,0.0,0.0,0.0,0.0,0.0,0.0,0.0,0.0,0.0,0.0,0.0,0.0,0.0,0.0,0.0,0.0,0.0,0.0,0.0,0.0,0.0,0.0,0.0,0.0,0.0,0.0,0.0,0.0,0.0,0.0,0.0,0.0,0.0,0.0,0.0,0.0,0.0,0.0,0.0,0.0,0.0,0.0,0.0,0.0,0.0,0.0,0.0,0.0,0.0,0.0,0.0,0.0,0.0,0.0,0.0,0.0,0.0,0.0,0.0,0.0,0.0,0.0,0.0,0.0,0.0,0.0,0.0,0.0,0.0,0.0,0.0,0.0,0.0,0.0,0.0,0.0,0.0,0.0,0.0,0.0,0.0,0.0,0.0,0.0,0.0,0.0,0.0,0.0,0.0,0.0,0.0,0.0,0.0,0.0,0.0,0.0,0.0,0.0,0.0,0.0,0.0,0.0,0.0,0.0,0.0,0.0,0.0,0.0,0.0,0.0,0.0,0.0,0.0,0.0,0.0,0.0,0.0,0.0,0.0,0.0,0.0,0.0,0.0,0.0,0.0,0.0,0.0,0.0,0.0,0.0,0.0,0.0,0.0,0.0,0.0,0.0,0.0,0.0,0.0,0.0,0.0,0.0,0.0,0.0,0.0,0.0,0.0,0.0,0.0,0.0,0.0,0.0,0.0,0.0,0.0,0.0,0.0,0.0,0.0,0.0,0.0,0.0,0.0,0.0,0.0,0.0,0.0,0.0,0.0,0.0,0.0,0.0,0.0,0.0,0.0,0.0,0.0,0.0,0.0,0.0,0.0,0.0,0.0,0.0,0.0,0.0,0.0,0.0,0.0,0.0,0.0,0.0,0.0,0.0,0.0,0.0,0.0,0.0,0.0,0.0,0.0,0.0,0.0,0.0,0.0,0.0,0.0,0.0,0.0,0.0,0.0,0.0,0.0,0.0,0.0,0.0,0.0,0.0,0.0,0.0,0.0,0.0,0.0,0.0,0.0,0.0,0.0,0.0,0.0,0.0,0.0,0.0,0.0,0.0,0.0,0.0,0.0,0.0,0.0,0.0,0.0,0.0,0.0,0.0,0.0,0.0,0.0,0.0,0.0,0.0,0.0,0.0,0.0,0.0,0.0,0.0,0.0,0.0,0.0,0.0,0.0,0.0,0.0,0.0,0.0,0.0,0.0,0.0,0.0,0.0,0.0,0.0,0.0,0.0,0.0,0.0,0.0,0.0,0.0,0.0,0.0,0.0,0.0,0.0,0.0,0.0,0.0,0.0,0.0,0.0,0.0,0.0,0.0,0.0,0.0,0.0,0.0,0.0,0.0,0.0,0.0,0.0,0.0,0.0,0.0,0.0,0.0,0.0,0.0,0.0,0.0,0.0,0.0,0.0,0.0,0.0,0.0,0.0,0.0,0.0,0.0,0.0,0.0,0.0,0.0,0.0,0.0,0.0,0.0,0.0,0.0,0.0,0.0,0.0,0.0,0.0,0.0,0.0,0.0,0.0,0.0,0.0,0.0,0.0,0.0,0.0,0.0,0.0,0.0,0.0,0.0,0.0,0.0,0.0,0.0,0.0,0.0,0.0,0.0,0.0,0.0,0.0,0.0,0.0,0.0,0.0,0.0,0.0,0.0,0.0,0.0,0.0,0.0,0.0,0.0,0.0,0.0,0.0,0.0,0.0,0.0,0.0,0.0,0.0,0.0,0.0,0.0,0.0,0.0,0.0,0.0,0.0,0.0,0.0,0.0,0.0,0.0,0.0,0.0,0.0,0.0,0.0,0.0,0.0,0.0,0.0,0.0,0.0,0.0,0.0,0.0,0.0,0.0,0.0,0.0,0.0,0.0,0.0,0.0,0.0,0.0,0.0,0.0,0.0,0.0,0.0,0.0,0.0,0.0,0.0,0.0,0.0,0.0,0.0,0.0,0.0,0.0,0.0,0.0,0.0,0.0,0.0,0.0,0.0,0.0,0.0,0.0,0.0,0.0,0.0,0.0,0.0,0.0,0.0,0.0,0.0,0.0,0.0,0.0,0.0,0.0,0.0,0.0,0.0,0.0,0.0,0.0,0.0,0.0,0.0,0.0,0.0,0.0,0.0,0.0,0.0,0.0,0.0,0.0,0.0,0.0,0.0,0.0,0.0,0.0,0.0,0.0,0.0,0.0,0.0,0.0,0.0,0.0,0.0,0.0,0.0,0.0,0.0,0.0,0.0,0.0,0.0,0.0,0.0,0.0,0.0,0.0,0.0,0.0,0.0,0.0,0.0,0.0,0.0,0.0,0.0,0.0,0.0,0.0,0.0,0.0,-1.5196,0.0,0.0,0.0,0.0,0.0,0.0,0.0,0.0,0.0,0.0,0.0,0.0,0.0,0.0,0.0,0.0,0.0,0.0,0.0,0.0,0.0,0.0,0.0,0.0,0.0,0.0,0.0,0.0,0.0,0.0,0.0,0.0,0.0,0.0,0.0,0.0,0.0,0.0,0.0,0.0,0.0,0.0,0.0,0.0,0.0,0.0,0.0,0.0,0.0,0.0,0.0,0.0,0.0,0.0,0.0,0.0,0.0,0.0,0.0,0.0,0.0,0.0,0.0,0.0,0.0,0.0,0.0,0.0,0.0,0.0,0.0,0.0,0.0,0.0,0.0,0.0,0.0,0.0,0.0,0.0,0.0,0.0,0.0,0.0,0.0,0.0,0.0,0.0,0.0,0.0,0.0,0.0,0.0,0.0,0.0,0.0,0.0,0.0,0.0,0.0,0.0,0.0,0.0,0.0,0.0,0.0,0.0,0.0,0.0,0.0,-1.5695,-1.5695,-1.5304,-1.5109,-1.5089,0.0,0.0,0.0,0.0,0.0,0.0,0.0,0.0,0.0,0.0,0.0,0.0,0.0,0.0,0.0,0.0,0.0,0.0,0.0,0.0,0.0,0.0,0.0,0.0,0.0,0.0,0.0,0.0,0.0,0.0,0.0,0.0,0.0,0.0,0.0,0.0,0.0,0.0,0.0,0.0,0.0,0.0,0.0,0.0,0.0,0.0,0.0,0.0,0.0,0.0,0.0,0.0,0.0,0.0,0.0,0.0,0.0,0.0,0.0,0.0,0.0,0.0,0.0,0.0,0.0,0.0,0.0,0.0,0.0,0.0,0.0,0.0,0.0,0.0,0.0,0.0,0.0,0.0,0.0,0.0,0.0,0.0,0.0,0.0,0.0,0.0,0.0,0.0,0.0,0.0,0.0,0.0,0.0,0.0,0.0,0.0,0.0,0.0,0.0,0.0,0.0,0.0,0.0,0.0,0.0,0.0,0.0,0.0,0.0,0.0,0.0,0.0,-1.541,-1.4997,-1.4881,0.0,0.0,0.0,0.0,0.0,0.0,0.0,0.0,0.0,0.0,0.0,0.0,0.0,0.0,0.0,0.0,0.0,0.0,0.0,0.0,0.0,0.0,0.0,0.0,0.0,0.0,0.0,0.0,0.0,0.0,0.0,0.0,0.0,0.0,0.0,0.0,0.0,0.0,0.0,0.0,0.0,0.0,0.0,0.0,0.0,0.0,0.0,0.0,0.0,0.0,0.0,0.0,0.0,0.0,0.0,0.0,0.0,0.0,0.0,0.0,0.0,0.0,0.0,0.0,0.0,0.0,0.0,0.0,0.0,0.0,0.0,0.0,0.0,0.0,0.0,0.0,0.0,0.0,0.0,0.0,0.0,0.0,0.0,0.0,0.0,0.0,0.0,0.0,0.0,0.0,0.0,0.0,0.0,0.0,0.0,0.0,0.0,0.0,0.0,0.0,0.0,0.0,0.0,0.0,0.0,0.0,0.0,0.0,0.0,0.0,-1.5959,-1.6213,-1.5665,0.0,-1.4556,0.0,0.0,0.0,0.0,0.0,0.0,0.0,0.0,0.0,0.0,0.0,0.0,0.0,0.0,0.0,0.0,0.0,0.0,0.0,0.0,0.0,0.0,0.0,0.0,0.0,0.0,0.0,0.0,0.0,0.0,0.0,0.0,0.0,0.0,0.0,0.0,0.0,0.0,0.0,0.0,0.0,0.0,0.0,0.0,0.0,0.0,0.0,0.0,0.0,0.0,0.0,0.0,0.0,0.0,0.0,0.0,0.0,0.0,0.0,0.0,0.0,0.0,0.0,0.0,0.0,0.0,0.0,0.0,0.0,0.0,0.0,0.0,0.0,0.0,0.0,0.0,0.0,0.0,0.0,0.0,0.0,0.0,0.0,0.0,0.0,0.0,0.0,0.0,0.0,0.0,0.0,0.0,0.0,0.0,0.0,0.0,0.0,0.0,0.0,0.0,0.0,0.0,0.0,0.0,0.0,0.0,0.0,0.0,0.0,0.0,-1.6493,-1.6837,-1.5885,-1.5117,0.0,0.0,0.0,0.0,0.0,0.0,0.0,0.0,0.0,0.0,0.0,0.0,0.0,0.0,0.0,0.0,0.0,0.0,0.0,0.0,0.0,0.0,0.0,0.0,0.0,0.0,0.0,0.0,0.0,0.0,0.0,0.0,0.0,0.0,0.0,0.0,0.0,0.0,0.0,0.0,0.0,0.0,0.0,0.0,0.0,0.0,0.0,0.0,0.0,0.0,0.0,0.0,0.0,0.0,0.0,0.0,0.0,0.0,0.0,0.0,0.0,0.0,0.0,0.0,0.0,0.0,0.0,0.0,0.0,0.0,0.0,0.0,0.0,0.0,0.0,0.0,0.0,0.0,0.0,0.0,0.0,0.0,0.0,0.0,0.0,0.0,0.0,0.0,0.0,0.0,0.0,0.0,0.0,0.0,0.0,0.0,0.0,0.0,0.0,0.0,0.0,0.0,0.0,0.0,0.0,0.0,0.0,0.0,0.0,0.0,-1.6547,-1.6567,-1.6727,-1.5805,-1.5077,-1.4649,0.0,0.0,0.0,0.0,0.0,0.0,0.0,0.0,0.0,0.0,0.0,0.0,0.0,0.0,0.0,0.0,0.0,0.0,0.0,0.0,0.0,0.0,0.0,0.0,0.0,0.0,0.0,0.0,0.0,0.0,0.0,0.0,0.0,0.0,0.0,0.0,0.0,0.0,0.0,0.0,0.0,0.0,0.0,0.0,0.0,0.0,0.0,0.0,0.0,0.0,0.0,0.0,0.0,0.0,0.0,0.0,0.0,0.0,0.0,0.0,0.0,0.0,0.0,0.0,0.0,0.0,0.0,0.0,0.0,0.0,0.0,0.0,0.0,0.0,0.0,0.0,0.0,0.0,0.0,0.0,0.0,0.0,0.0,0.0,0.0,0.0,0.0,0.0,0.0,0.0,0.0,0.0,0.0,0.0,0.0,0.0,0.0,0.0,0.0,0.0,0.0,0.0,0.0,0.0,0.0,0.0,0.0,0.0,-1.6667,-1.6172,-1.5838,-1.5899,-1.5304,-1.5015,0.0,0.0,0.0,0.0,0.0,0.0,0.0,0.0,0.0,0.0,0.0,0.0,0.0,0.0,0.0,0.0,0.0,0.0,0.0,0.0,0.0,0.0,0.0,0.0,0.0,0.0,0.0,0.0,0.0,0.0,0.0,0.0,0.0,0.0,0.0,0.0,0.0,0.0,0.0,0.0,0.0,0.0,0.0,0.0,0.0,0.0,0.0,0.0,0.0,0.0,0.0,0.0,0.0,0.0,0.0,0.0,0.0,0.0,0.0,0.0,0.0,0.0,0.0,0.0,0.0,0.0,0.0,0.0,0.0,0.0,0.0,0.0,0.0,0.0,0.0,0.0,0.0,0.0,0.0,0.0,0.0,0.0,0.0,0.0,0.0,0.0,0.0,0.0,0.0,0.0,0.0,0.0,0.0,0.0,0.0,0.0,0.0,0.0,0.0,0.0,0.0,0.0,0.0,0.0,0.0,0.0,0.0,0.0,0.0,-1.668,-1.6687,-1.6406,-1.5804,-1.5444,-1.5064,0.0,0.0,0.0,0.0,0.0,0.0,0.0,0.0,0.0,0.0,0.0,0.0,0.0,0.0,0.0,0.0,0.0,0.0,0.0,0.0,0.0,0.0,0.0,0.0,0.0,0.0,0.0,0.0,0.0,0.0,0.0,0.0,0.0,0.0,0.0,0.0,0.0,0.0,0.0,0.0,0.0,0.0,0.0,0.0,0.0,0.0,0.0,0.0,0.0,0.0,0.0,0.0,0.0,0.0,0.0,0.0,0.0,0.0,0.0,0.0,0.0,0.0,0.0,0.0,0.0,0.0,0.0,0.0,0.0,0.0,0.0,0.0,0.0,0.0,0.0,0.0,0.0,0.0,0.0,0.0,0.0,0.0,0.0,0.0,0.0,0.0,0.0,0.0,0.0,0.0,0.0,0.0,0.0,0.0,0.0,0.0,0.0,0.0,0.0,0.0,0.0,0.0,0.0,0.0,0.0,0.0,0.0,0.0,0.0,-1.656,0.0,-1.6673,-1.6005,-1.5598,-1.5164,0.0,0.0,0.0,0.0,0.0,0.0,0.0,0.0,0.0,0.0,0.0,0.0,0.0,0.0,0.0,0.0,0.0,0.0,0.0,0.0,0.0,0.0,0.0,0.0,0.0,0.0,0.0,0.0,0.0,0.0,0.0,0.0,0.0,0.0,0.0,0.0,0.0,0.0,0.0,0.0,0.0,0.0,0.0,0.0,0.0,0.0,0.0,0.0,0.0,0.0,0.0,0.0,0.0,0.0,0.0,0.0,0.0,0.0,0.0,0.0,0.0,0.0,0.0,0.0,0.0,0.0,0.0,0.0,0.0,0.0,0.0,0.0,0.0,0.0,0.0,0.0,0.0,0.0,0.0,0.0,0.0,0.0,0.0,0.0,0.0,0.0,0.0,0.0,0.0,0.0,0.0,0.0,0.0,0.0,0.0,0.0,0.0,0.0,0.0,0.0,0.0,0.0,0.0,0.0,0.0,0.0,0.0,0.0,-1.5944,-1.6328,-1.658,-1.6593,-1.6279,-1.5732,-1.5271,0.0,0.0,0.0,0.0,0.0,0.0,0.0,0.0,0.0,0.0,0.0,0.0,0.0,0.0,0.0,0.0,0.0,0.0,0.0,0.0,0.0,0.0,0.0,0.0,0.0,0.0,0.0,0.0,0.0,0.0,0.0,0.0,0.0,0.0,0.0,0.0,0.0,0.0,0.0,0.0,0.0,0.0,0.0,0.0,0.0,0.0,0.0,0.0,0.0,0.0,0.0,0.0,0.0,0.0,0.0,0.0,0.0,0.0,0.0,0.0,0.0,0.0,0.0,0.0,0.0,0.0,0.0,0.0,0.0,0.0,0.0,0.0,0.0,0.0,0.0,0.0,0.0,0.0,0.0,0.0,0.0,0.0,0.0,0.0,0.0,0.0,0.0,0.0,0.0,0.0,0.0,0.0,0.0,0.0,0.0,0.0,0.0,0.0,0.0,0.0,0.0,0.0,0.0,0.0,0.0,0.0,0.0,0.0,0.0,-1.6232,-1.6563,-1.657,-1.6281,-1.6109,-1.5678,0.0,0.0,0.0,0.0,0.0,0.0,0.0,0.0,0.0,0.0,0.0,0.0,0.0,0.0,0.0,0.0,0.0,0.0,0.0,0.0,0.0,0.0,0.0,0.0,0.0,0.0,0.0,0.0,0.0,0.0,0.0,0.0,0.0,0.0,0.0,0.0,0.0,0.0,0.0,0.0,0.0,0.0,0.0,0.0,0.0,0.0,0.0,0.0,0.0,0.0,0.0,0.0,0.0,0.0,0.0,0.0,0.0,0.0,0.0,0.0,0.0,0.0,0.0,0.0,0.0,0.0,0.0,0.0,0.0,0.0,0.0,0.0,0.0,0.0,0.0,0.0,0.0,0.0,0.0,0.0,0.0,0.0,0.0,0.0,0.0,0.0,0.0,0.0,0.0,0.0,0.0,0.0,0.0,0.0,0.0,0.0,0.0,0.0,0.0,0.0,0.0,0.0,0.0,0.0,0.0,0.0,0.0,0.0,0.0,-1.6825,-1.7079,-1.7081,-1.6853,-1.6715,-1.6288,-1.5524,0.0,0.0,0.0,0.0,0.0,0.0,0.0,0.0,0.0,0.0,0.0,0.0,0.0,0.0,0.0,0.0,0.0,0.0,0.0,0.0,0.0,0.0,0.0,0.0,0.0,0.0,0.0,0.0,0.0,0.0,0.0,0.0,0.0,0.0,0.0,0.0,0.0,0.0,0.0,0.0,0.0,0.0,0.0,0.0,0.0,0.0,0.0,0.0,0.0,0.0,0.0,0.0,0.0,0.0,0.0,0.0,0.0,0.0,0.0,0.0,0.0,0.0,0.0,0.0,0.0,0.0,0.0,0.0,0.0,0.0,0.0,0.0,0.0,0.0,0.0,0.0,0.0,0.0,0.0,0.0,0.0,0.0,0.0,0.0,0.0,0.0,0.0,0.0,0.0,0.0,0.0,0.0,0.0,0.0,0.0,0.0,0.0,0.0,0.0,0.0,0.0,0.0,0.0,0.0,0.0,0.0,0.0,0.0,-1.7932,-1.8052,-1.8058,-1.7961,-1.751,-1.6914,0.0,0.0,0.0,0.0,0.0,0.0,0.0,0.0,0.0,0.0,0.0,0.0,0.0,0.0,0.0,0.0,0.0,0.0,0.0,0.0,0.0,0.0,0.0,0.0,0.0,0.0,0.0,0.0,0.0,0.0,0.0,0.0,0.0,0.0,0.0,0.0,0.0,0.0,0.0,0.0,0.0,0.0,0.0,0.0,0.0,0.0,0.0,0.0,0.0,0.0,0.0,0.0,0.0,0.0,0.0,0.0,0.0,0.0,0.0,0.0,0.0,0.0,0.0,0.0,0.0,0.0,0.0,0.0,0.0,0.0,0.0,0.0,0.0,0.0,0.0,0.0,0.0,0.0,0.0,0.0,0.0,0.0,0.0,0.0,0.0,0.0,0.0,0.0,0.0,0.0,0.0,0.0,0.0,0.0,0.0,0.0,0.0,0.0,0.0,0.0,0.0,0.0,0.0,0.0,0.0,0.0,0.0,0.0,0.0,-1.8167,-1.9013,-1.9111,-1.8236,-1.7714,-1.7056,0.0,0.0,0.0,0.0,0.0,0.0,0.0,0.0,0.0,0.0,0.0,0.0,0.0,0.0,0.0,0.0,0.0,0.0,0.0,0.0,0.0,0.0,0.0,0.0,0.0,0.0,0.0,0.0,0.0,0.0,0.0,0.0,0.0,0.0,0.0,0.0,0.0,0.0,0.0,0.0,0.0,0.0,0.0,0.0,0.0,0.0,0.0,0.0,0.0,0.0,0.0,0.0,0.0,0.0,0.0,0.0,0.0,0.0,0.0,0.0,0.0,0.0,0.0,0.0,0.0,0.0,0.0,0.0,0.0,0.0,0.0,0.0,0.0,0.0,0.0,0.0,0.0,0.0,0.0,0.0,0.0,0.0,0.0,0.0,0.0,0.0,0.0,0.0,0.0,0.0,0.0,0.0,0.0,0.0,0.0,0.0,0.0,0.0,0.0,0.0,0.0,0.0,0.0,0.0,0.0,0.0,0.0,0.0,-1.7606,-1.8601,-1.9619,-1.9819,-1.9007,-1.8403,-1.7681,0.0,0.0,0.0,0.0,0.0,0.0,0.0,0.0,0.0,0.0,0.0,0.0,0.0,0.0,0.0,0.0,0.0,0.0,0.0,0.0,0.0,0.0,0.0,0.0,0.0,0.0,0.0,0.0,0.0,0.0,0.0,0.0,0.0,0.0,0.0,0.0,0.0,0.0,0.0,0.0,0.0,0.0,0.0,0.0,0.0,0.0,0.0,0.0,0.0,0.0,0.0,0.0,0.0,0.0,0.0,0.0,0.0,0.0,0.0,0.0,0.0,0.0,0.0,0.0,0.0,0.0,0.0,0.0,0.0,0.0,0.0,0.0,0.0,0.0,0.0,0.0,0.0,0.0,0.0,0.0,0.0,0.0,0.0,0.0,0.0,0.0,0.0,0.0,0.0,0.0,0.0,0.0,0.0,0.0,0.0,0.0,0.0,0.0,0.0,0.0,0.0,0.0,0.0,0.0,0.0,0.0,0.0,0.0,-1.7829,-1.909,-1.9999,-2.034,-2.0052,-1.9226,-1.8416,0.0,0.0,0.0,0.0,0.0,0.0,0.0,0.0,0.0,0.0,0.0,0.0,0.0,0.0,0.0,0.0,0.0,0.0,0.0,0.0,0.0,0.0,0.0,0.0,0.0,0.0,0.0,0.0,0.0,0.0,0.0,0.0,0.0,0.0,0.0,0.0,0.0,0.0,0.0,0.0,0.0,0.0,0.0,0.0,0.0,0.0,0.0,0.0,0.0,0.0,0.0,0.0,0.0,0.0,0.0,0.0,0.0,0.0,0.0,0.0,0.0,0.0,0.0,0.0,0.0,0.0,0.0,0.0,0.0,0.0,0.0,0.0,0.0,0.0,0.0,0.0,0.0,0.0,0.0,0.0,0.0,0.0,0.0,0.0,0.0,0.0,0.0,0.0,0.0,0.0,0.0,0.0,0.0,0.0,0.0,0.0,0.0,0.0,0.0,0.0,0.0,0.0,0.0,0.0,0.0,0.0,0.0,0.0,-1.8481,-1.9433,-2.0447,-2.0847,-2.0402,-1.9347,-1.8407,0.0,0.0,0.0,0.0,0.0,0.0,0.0,0.0,0.0,0.0,0.0,0.0,0.0,0.0,0.0,0.0,0.0,0.0,0.0,0.0,0.0,0.0,0.0,0.0,0.0,0.0,0.0,0.0,0.0,0.0,0.0,0.0,0.0,0.0,0.0,0.0,0.0,0.0,0.0,0.0,0.0,0.0,0.0,0.0,0.0,0.0,0.0,0.0,-2.2611,0.0,0.0,0.0,0.0,0.0,0.0,0.0,0.0,0.0,0.0,0.0,0.0,0.0,0.0,0.0,0.0,0.0,0.0,0.0,0.0,0.0,0.0,0.0,0.0,0.0,0.0,0.0,0.0,0.0,0.0,0.0,0.0,0.0,0.0,0.0,0.0,0.0,0.0,0.0,0.0,0.0,0.0,0.0,0.0,0.0,0.0,0.0,0.0,0.0,0.0,0.0,0.0,0.0,0.0,0.0,0.0,0.0,0.0,0.0,-1.9114,-1.9903,-2.0798,-2.1087,-2.0704,-2.0045,-1.9141,0.0,0.0,0.0,0.0,0.0,0.0,0.0,0.0,0.0,0.0,0.0,0.0,0.0,0.0,0.0,0.0,0.0,0.0,0.0,0.0,0.0,0.0,0.0,0.0,0.0,0.0,0.0,0.0,0.0,0.0,0.0,0.0,0.0,0.0,0.0,0.0,0.0,0.0,0.0,0.0,0.0,0.0,0.0,0.0,0.0,0.0,0.0,0.0,0.0,0.0,0.0,0.0,0.0,0.0,0.0,0.0,0.0,0.0,0.0,0.0,0.0,0.0,0.0,0.0,0.0,0.0,0.0,0.0,0.0,0.0,0.0,0.0,0.0,0.0,0.0,0.0,0.0,0.0,0.0,0.0,0.0,0.0,0.0,0.0,0.0,0.0,0.0,0.0,0.0,0.0,0.0,0.0,0.0,0.0,0.0,0.0,0.0,0.0,0.0,0.0,0.0,0.0,0.0,0.0,0.0,0.0,0.0,-1.8679,-1.9679,-2.0443,-2.1005,-2.1194,-2.0929,-2.0753,-1.994,-1.8537,0.0,0.0,0.0,0.0,0.0,0.0,0.0,0.0,0.0,0.0,0.0,0.0,0.0,0.0,0.0,0.0,0.0,0.0,0.0,0.0,0.0,0.0,0.0,0.0,0.0,0.0,0.0,0.0,0.0,0.0,0.0,0.0,0.0,0.0,0.0,0.0,0.0,0.0,-2.2171,-2.2748,0.0,0.0,0.0,0.0,0.0,0.0,0.0,0.0,-2.3758,0.0,0.0,0.0,0.0,0.0,0.0,0.0,0.0,0.0,0.0,0.0,0.0,0.0,0.0,0.0,0.0,0.0,0.0,0.0,0.0,0.0,0.0,0.0,0.0,0.0,0.0,0.0,0.0,0.0,0.0,0.0,0.0,0.0,0.0,0.0,0.0,0.0,0.0,0.0,0.0,0.0,0.0,0.0,0.0,0.0,0.0,0.0,0.0,0.0,0.0,0.0,0.0,0.0,0.0,0.0,0.0,-1.7931,-1.8951,-1.9923,-2.0781,-2.1133,-2.1165,-2.0974,-2.0519,-1.974,-1.8551,0.0,0.0,0.0,0.0,0.0,0.0,0.0,0.0,0.0,0.0,0.0,0.0,0.0,0.0,0.0,0.0,0.0,0.0,0.0,0.0,0.0,0.0,0.0,0.0,0.0,0.0,0.0,0.0,0.0,0.0,0.0,0.0,0.0,0.0,0.0,0.0,0.0,0.0,0.0,-2.3272,-2.3721,0.0,0.0,0.0,0.0,0.0,0.0,0.0,0.0,-2.4018,0.0,0.0,0.0,0.0,0.0,0.0,0.0,0.0,0.0,0.0,0.0,0.0,0.0,0.0,0.0,0.0,0.0,0.0,0.0,0.0,0.0,0.0,0.0,0.0,0.0,0.0,0.0,0.0,0.0,0.0,0.0,0.0,0.0,0.0,0.0,0.0,0.0,0.0,0.0,0.0,0.0,0.0,0.0,0.0,0.0,0.0,0.0,0.0,0.0,0.0,0.0,0.0,0.0,0.0,0.0,-1.8217,-1.9425,-2.0318,-2.092,-2.1194,-2.1122,-2.0539,-2.0204,-1.9459,0.0,0.0,0.0,0.0,0.0,0.0,0.0,0.0,0.0,0.0,0.0,0.0,0.0,0.0,0.0,0.0,0.0,0.0,0.0,0.0,0.0,0.0,0.0,0.0,0.0,0.0,0.0,0.0,0.0,0.0,0.0,0.0,0.0,0.0,0.0,0.0,0.0,0.0,0.0,0.0,-2.4464,-2.5001,-2.4565,0.0,0.0,0.0,0.0,0.0,0.0,-2.4698,-2.4427,0.0,0.0,0.0,0.0,0.0,0.0,0.0,0.0,0.0,0.0,0.0,0.0,0.0,0.0,0.0,0.0,0.0,0.0,0.0,0.0,0.0,0.0,0.0,0.0,0.0,0.0,0.0,0.0,0.0,0.0,0.0,0.0,0.0,0.0,0.0,0.0,0.0,0.0,0.0,0.0,0.0,0.0,0.0,0.0,0.0,0.0,0.0,0.0,0.0,0.0,0.0,0.0,0.0,0.0,0.0,-1.8077,-1.9399,-2.0352,-2.0814,-2.1142,-2.0961,-2.0175,-1.9774,-1.9065,0.0,0.0,0.0,0.0,0.0,0.0,0.0,0.0,0.0,0.0,0.0,0.0,0.0,0.0,0.0,0.0,0.0,0.0,0.0,0.0,0.0,0.0,0.0,0.0,0.0,0.0,0.0,0.0,0.0,0.0,0.0,0.0,0.0,0.0,0.0,0.0,0.0,0.0,0.0,0.0,0.0,-2.6076,-2.5867,-2.5424,0.0,0.0,0.0,0.0,-2.4661,-2.5111,0.0,0.0,0.0,0.0,0.0,0.0,0.0,0.0,0.0,0.0,0.0,0.0,0.0,0.0,0.0,0.0,0.0,0.0,0.0,0.0,0.0,0.0,0.0,0.0,0.0,0.0,0.0,0.0,0.0,0.0,0.0,0.0,0.0,0.0,0.0,0.0,0.0,0.0,0.0,0.0,0.0,0.0,0.0,0.0,0.0,0.0,0.0,0.0,0.0,0.0,0.0,0.0,0.0,0.0,0.0,0.0,-1.6882,-1.8215,-1.9455,-2.0572,-2.0883,-2.0801,-2.0186,-1.9414,-1.847,0.0,0.0,0.0,0.0,0.0,0.0,0.0,0.0,0.0,0.0,0.0,0.0,0.0,0.0,0.0,0.0,0.0,0.0,0.0,0.0,0.0,0.0,0.0,0.0,0.0,0.0,0.0,0.0,0.0,0.0,0.0,0.0,0.0,0.0,0.0,0.0,0.0,0.0,0.0,0.0,0.0,-2.6252,-2.5598,-2.5665,-2.5736,0.0,0.0,-2.5515,-2.5764,-2.5883,0.0,0.0,0.0,0.0,0.0,0.0,0.0,0.0,0.0,0.0,0.0,0.0,0.0,0.0,0.0,0.0,0.0,0.0,0.0,0.0,0.0,0.0,0.0,0.0,0.0,0.0,0.0,0.0,0.0,0.0,0.0,0.0,0.0,0.0,0.0,0.0,0.0,0.0,0.0,0.0,0.0,0.0,0.0,0.0,0.0,0.0,0.0,0.0,0.0,0.0,0.0,0.0,0.0,0.0,0.0,-1.3818,-1.53,-1.7041,-1.8362,-1.9299,-2.0268,-2.0511,-1.976,-1.9052,-1.8196,0.0,0.0,0.0,0.0,0.0,0.0,0.0,0.0,0.0,0.0,0.0,0.0,0.0,0.0,0.0,0.0,0.0,0.0,0.0,0.0,0.0,0.0,0.0,0.0,0.0,0.0,0.0,0.0,0.0,0.0,0.0,0.0,0.0,0.0,0.0,0.0,0.0,0.0,0.0,0.0,0.0,0.0,-2.6114,-2.6399,0.0,0.0,0.0,-2.5736,-2.569,0.0,0.0,0.0,0.0,0.0,0.0,0.0,0.0,0.0,0.0,0.0,0.0,0.0,0.0,0.0,0.0,0.0,0.0,0.0,0.0,0.0,0.0,0.0,0.0,0.0,0.0,0.0,0.0,0.0,0.0,0.0,0.0,0.0,0.0,0.0,0.0,0.0,0.0,0.0,0.0,0.0,0.0,0.0,0.0,0.0,0.0,0.0,0.0,0.0,0.0,0.0,0.0,0.0,0.0,0.0,0.0,0.0,-1.4097,-1.6185,-1.7596,-1.8362,-1.9795,-2.0147,-1.9279,-1.8758,0.0,0.0,0.0,0.0,0.0,0.0,0.0,0.0,0.0,0.0,0.0,0.0,0.0,0.0,0.0,0.0,0.0,0.0,0.0,0.0,0.0,0.0,0.0,0.0,0.0,0.0,0.0,-1.8237,0.0,0.0,0.0,0.0,0.0,0.0,0.0,0.0,0.0,0.0,0.0,0.0,0.0,0.0,-2.6472,-2.6573,-2.6921,-2.6976,0.0,0.0,-2.6067,-2.572,-2.6188,-2.6068,0.0,0.0,0.0,0.0,0.0,0.0,0.0,0.0,0.0,0.0,0.0,0.0,0.0,0.0,0.0,0.0,0.0,0.0,0.0,0.0,0.0,0.0,0.0,0.0,0.0,0.0,0.0,0.0,0.0,0.0,0.0,0.0,0.0,0.0,0.0,0.0,0.0,0.0,0.0,0.0,0.0,0.0,0.0,0.0,0.0,0.0,0.0,0.0,0.0,0.0,0.0,0.0,0.0,0.0,-1.1845,-1.3825,-1.5726,-1.7292,-1.8394,-1.957,-1.9846,-1.8985,-1.8657,-1.7943,0.0,0.0,0.0,0.0,0.0,0.0,0.0,0.0,0.0,0.0,0.0,0.0,0.0,0.0,0.0,0.0,0.0,0.0,0.0,0.0,0.0,0.0,0.0,0.0,0.0,0.0,0.0,0.0,0.0,0.0,0.0,0.0,0.0,0.0,0.0,0.0,0.0,0.0,0.0,0.0,0.0,-2.6195,-2.6536,-2.693,-2.7022,0.0,-2.6545,-2.6536,-2.6509,-2.6554,-2.6169,-2.4931,0.0,0.0,0.0,0.0,0.0,0.0,0.0,0.0,0.0,0.0,0.0,0.0,0.0,0.0,0.0,0.0,0.0,0.0,0.0,0.0,0.0,0.0,0.0,0.0,0.0,0.0,0.0,0.0,0.0,0.0,0.0,0.0,0.0,0.0,0.0,0.0,0.0,0.0,0.0,0.0,0.0,0.0,0.0,0.0,0.0,0.0,0.0,0.0,0.0,0.0,0.0,0.0,0.0,-1.1108,-1.2793,-1.4918,-1.6454,-1.7271,-1.8645,-1.9147,-1.8577,-1.8526,-1.7923,0.0,0.0,0.0,0.0,0.0,0.0,0.0,0.0,0.0,0.0,0.0,0.0,0.0,0.0,0.0,0.0,0.0,0.0,0.0,0.0,0.0,0.0,0.0,0.0,0.0,0.0,0.0,0.0,-1.9087,-1.9434,-1.9637,0.0,0.0,0.0,0.0,0.0,0.0,0.0,0.0,0.0,0.0,-2.6168,-2.6527,-2.7188,0.0,0.0,-2.7526,-2.7435,-2.6701,-2.6793,-2.6371,-2.4716,-2.4174,0.0,0.0,0.0,0.0,0.0,0.0,0.0,0.0,0.0,0.0,0.0,0.0,0.0,0.0,0.0,0.0,0.0,0.0,0.0,0.0,0.0,0.0,0.0,0.0,0.0,0.0,0.0,0.0,0.0,0.0,0.0,0.0,0.0,0.0,0.0,0.0,0.0,0.0,0.0,0.0,0.0,0.0,0.0,0.0,0.0,0.0,0.0,0.0,0.0,0.0,0.0,0.0,-1.0715,-1.2226,-1.4317,-1.5784,-1.6504,-1.7887,-1.8483,-1.8196,-1.8291,-1.7836,0.0,0.0,0.0,0.0,0.0,0.0,0.0,0.0,0.0,0.0,0.0,0.0,0.0,0.0,0.0,0.0,0.0,0.0,0.0,0.0,0.0,0.0,0.0,0.0,0.0,0.0,0.0,0.0,-1.9012,-1.9498,-2.0021,0.0,0.0,0.0,0.0,0.0,0.0,0.0,0.0,0.0,0.0,-2.5984,-2.6344,-2.7077,-2.7601,-2.7491,-2.7765,-2.7655,-2.6573,-2.6637,-2.626,-2.4486,0.0,0.0,0.0,0.0,0.0,0.0,0.0,0.0,0.0,0.0,0.0,0.0,0.0,0.0,0.0,0.0,0.0,0.0,0.0,0.0,0.0,0.0,0.0,0.0,0.0,0.0,0.0,-0.7804,0.0,0.0,-0.779,0.0,0.0,0.0,0.0,0.0,0.0,0.0,0.0,0.0,0.0,0.0,0.0,0.0,0.0,0.0,0.0,0.0,0.0,0.0,0.0,0.0,0.0,-1.0648,-1.2279,-1.4076,-1.5438,-1.6295,-1.7489,-1.7978,-1.7649,-1.79,-1.7583,-1.672,0.0,0.0,0.0,0.0,0.0,0.0,0.0,0.0,0.0,0.0,0.0,0.0,0.0,0.0,0.0,0.0,0.0,0.0,0.0,0.0,0.0,0.0,0.0,0.0,0.0,0.0,-1.8587,-1.9356,-2.0012,0.0,0.0,0.0,0.0,0.0,0.0,0.0,0.0,0.0,0.0,-2.4592,-2.558,-2.5966,-2.6719,-2.7059,-2.6683,-2.6967,-2.693,-2.6149,-2.6039,-2.5626,0.0,0.0,0.0,0.0,0.0,0.0,0.0,0.0,0.0,0.0,0.0,0.0,0.0,0.0,0.0,0.0,0.0,0.0,0.0,0.0,0.0,0.0,0.0,0.0,0.0,0.0,0.0,-0.6856,-0.7618,0.0,0.0,0.0,0.0,0.0,0.0,0.0,0.0,0.0,0.0,0.0,-0.8333,-0.8336,0.0,0.0,0.0,0.0,0.0,0.0,0.0,0.0,0.0,0.0,0.0,0.0,-1.0523,-1.2011,-1.3813,-1.506,-1.5704,-1.7049,-1.7621,-1.729,-1.7718,-1.7389,-1.6111,0.0,0.0,0.0,0.0,0.0,0.0,0.0,0.0,0.0,0.0,0.0,0.0,0.0,0.0,0.0,0.0,0.0,0.0,0.0,0.0,0.0,0.0,0.0,0.0,0.0,-1.7946,0.0,0.0,0.0,0.0,0.0,0.0,0.0,0.0,0.0,0.0,0.0,-2.2044,-2.2986,-2.3969,-2.4854,-2.5534,-2.627,-2.6729,0.0,0.0,0.0,0.0,0.0,0.0,0.0,0.0,0.0,0.0,0.0,0.0,0.0,0.0,-2.3558,-2.2982,-2.3196,-2.3533,-2.357,0.0,0.0,0.0,0.0,0.0,0.0,0.0,0.0,0.0,0.0,0.0,0.0,0.0,0.0,-0.6212,0.0,-0.7285,0.0,0.0,0.0,0.0,0.0,0.0,0.0,0.0,-0.8648,-0.8798,-0.8791,-0.8794,-0.8794,0.0,-0.8842,-0.8764,0.0,0.0,0.0,0.0,0.0,0.0,0.0,0.0,-1.0142,-1.1446,-1.2994,-1.4176,-1.4844,-1.6265,-1.694,-1.6813,-1.7317,-1.7074,-1.6019,-1.4957,-1.4122,0.0,0.0,0.0,0.0,0.0,0.0,0.0,0.0,0.0,0.0,0.0,0.0,0.0,0.0,0.0,0.0,0.0,0.0,0.0,0.0,0.0,0.0,0.0,-1.7735,0.0,0.0,0.0,0.0,0.0,0.0,0.0,0.0,0.0,-2.108,-2.1687,-2.2318,-2.284,-2.3776,-2.4661,-2.5332,0.0,0.0,0.0,0.0,0.0,0.0,0.0,-2.5194,-2.4532,-2.4542,-2.4578,-2.444,-2.4303,-2.4293,-2.4569,0.0,0.0,-2.376,-2.4057,-2.4398,-2.4307,-2.4574,-2.4603,-2.4032,-2.3629,-2.3329,0.0,0.0,0.0,0.0,0.0,0.0,0.0,0.0,-0.433,-0.5416,0.0,-0.6706,0.0,0.0,0.0,0.0,0.0,-0.8364,0.0,0.0,-0.9083,-0.9296,-0.9364,-0.9415,-0.9364,-0.9364,-0.9265,-0.919,-0.9156,-0.861,0.0,0.0,0.0,0.0,0.0,0.0,-0.9446,-1.0573,-1.1751,-1.2762,-1.3673,-1.5083,-1.6004,-1.6371,-1.658,-1.66,-1.6279,-1.5497,-1.4767,-1.4135,-1.3821,0.0,0.0,0.0,0.0,0.0,0.0,0.0,0.0,0.0,0.0,0.0,0.0,0.0,0.0,0.0,0.0,0.0,0.0,0.0,0.0,-1.6475,0.0,0.0,0.0,0.0,0.0,0.0,0.0,0.0,0.0,0.0,-2.1145,-2.2117,-2.2885,-2.2895,0.0,0.0,0.0,0.0,-2.6159,-2.6472,-2.6215,-2.5883,-2.5488,-2.5372,-2.5304,-2.4886,0.0,0.0,-2.4849,-2.4496,-2.4229,-2.4211,-2.4229,-2.4202,-2.4165,-2.4735,-2.5173,-2.4888,-2.4846,-2.4761,-2.4354,-2.3828,-2.3545,-0.0236,0.0,0.0,0.0,0.0,-0.1348,-0.2014,-0.2849,-0.3544,-0.4756,-0.616,-0.6427,0.0,0.0,0.0,0.0,0.0,0.0,-0.8801,-0.8895,-0.9198,-0.934,-0.9374,-0.9326,-0.9275,-0.9268,-0.9069,-0.8998,-0.8988,-0.872,-0.8431,-0.8133,0.0,0.0,0.0,0.0,-0.8737,-0.9727,-1.0659,-1.1714,-1.2762,-1.4207,-1.5613,-1.6908,-1.6762,-1.6634,-1.6587,-1.5939,-1.5311,-1.478,-1.4229,0.0,0.0,0.0,0.0,0.0,0.0,0.0,0.0,0.0,0.0,0.0,0.0,0.0,0.0,0.0,0.0,0.0,0.0,0.0,-1.7152,-1.7902,-1.8435,0.0,0.0,0.0,0.0,0.0,0.0,0.0,0.0,0.0,-2.152,-2.2062,-2.2574,0.0,0.0,-2.4152,-2.4849,-2.558,-2.5903,-2.58,-2.5901,0.0,-2.5488,-2.5372,-2.5479,-2.5644,-2.5764,-2.5626,-2.4904,-2.4684,-2.4551,-2.4257,-2.4211,-2.4119,-2.3804,-2.4134,-2.4498,-2.4483,-2.4448,-2.4402,-2.4163,-2.4105,-2.4192,-0.0125,-0.0241,-0.024,-0.036,-0.0602,-0.086,-0.1302,-0.1919,-0.268,-0.3741,-0.4888,-0.562,-0.6457,-0.7279,-0.7963,0.0,0.0,0.0,-0.9144,-0.9211,-0.9445,-0.9557,-0.9547,-0.9401,-0.9303,-0.9292,-0.9096,-0.8994,-0.8881,-0.879,-0.8682,-0.8435,0.0,0.0,-0.7818,-0.7914,-0.8355,-0.9116,-0.9841,-1.0679,-1.1715,-1.3292,-1.4972,-1.6623,-1.6517,-1.6488,-1.67,-1.6139,-1.5618,-1.515,-1.4576,-1.4122,0.0,0.0,0.0,0.0,0.0,0.0,0.0,0.0,0.0,0.0,0.0,-1.3153,-1.328,0.0,0.0,0.0,-1.5875,-1.7372,-1.8538,-1.8974,0.0,0.0,0.0,0.0,0.0,0.0,0.0,-2.0695,-2.1108,-2.1412,-2.1659,-2.2034,-2.2483,-2.2849,-2.3389,-2.4079,-2.4904,0.0,-2.5984,-2.5858,-2.5837,-2.5754,-2.5663,-2.5525,-2.5552,-2.5947,-2.5736,-2.5332,-2.4716,-2.4409,-2.4152,-2.3794,-2.3684,-2.3602,-2.3316,-2.3519,-2.3756,-2.3889,-2.3975,-2.4117,-2.4222,-2.4445,-2.4686,0.0,0.0,0.0,0.0,0.0,-0.032,-0.0517,-0.0581,-0.178,-0.2545,-0.3124,-0.455,-0.5766,-0.6793,-0.8094,0.0,-0.8932,-0.9269,-0.9473,-0.9612,-0.9747,-0.9805,-0.9798,-0.9642,-0.95,-0.9357,-0.9255,-0.9055,-0.8888,-0.8868,-0.8852,-0.8703,-0.8286,-0.7948,-0.7862,-0.7941,-0.823,-0.8674,-0.9135,-0.9735,-1.0577,-1.2427,-1.4179,-1.5838,-1.5846,-1.6054,-1.6587,-1.6069,-1.5678,-1.5385,-1.4845,-1.4412,-1.4162,0.0,0.0,0.0,0.0,0.0,0.0,0.0,0.0,0.0,0.0,0.0,0.0,0.0,0.0,0.0,-1.6532,0.0,-1.9188,-1.9584,0.0,0.0,0.0,-1.9045,-1.9756,-1.9893,-2.0255,-2.0979,0.0,0.0,-2.1696,-2.2007,-2.2382,-2.2803,-2.3602,-2.444,-2.5221,-2.5626,-2.6048,-2.6206,-2.5846,-2.5552,-2.5745,-2.5589,-2.5515,-2.5773,-2.5225,-2.4601,-2.4125,-2.3712,-2.327,-2.295,-2.284,-2.2821,-2.2849,-2.284,-2.2888,-2.3084,-2.3429,-2.3894,-2.4421,-2.466,-2.4892,0.0,0.0,0.0,0.0,0.0,-0.0065,-0.0261,-0.0581,-0.1092,-0.188,-0.2891,-0.3762,-0.5176,-0.6974,-0.8194,-0.8794,-0.8944,-0.9355,-0.9574,-0.9608,-0.9642,-0.9659,-0.9646,-0.9384,-0.9299,-0.9248,-0.8944,-0.8855,-0.8875,-0.8821,-0.8747,-0.8699,-0.8486,-0.8306,-0.8167,-0.8197,-0.8286,-0.8422,-0.8616,-0.9209,-1.0304,-1.1592,-1.3086,-1.4729,-1.492,-1.5348,-1.6048,-1.577,-1.5551,-1.5496,-1.5094,-1.487,-1.4807,-1.3981,0.0,0.0,0.0,0.0,0.0,0.0,0.0,0.0,0.0,-1.3253,-1.3106,0.0,-1.4236,0.0,-1.6338,-1.7956,-1.8758,-1.9186,0.0,0.0,-1.9283,-1.9228,-1.9439,-2.0008,-2.0415,-2.0631,-2.1291,-2.1687,-2.1687,-2.1769,-2.197,-2.2391,-2.3123,-2.3868,-2.4431,-2.4845,-2.5019,-2.4891,-2.5166,-2.5341,-2.5185,-2.5252,-2.5289,-2.5148,-2.4689,-2.407,-2.3316,-2.2849,-2.2538,-2.2428,-2.2172,-2.2117,-2.2382,-2.2199,-2.1978,-2.1943,-2.2709,-2.3593,-2.3973,-2.4253,-2.4671,0.0,0.0,0.0,0.0,0.0,0.0,-0.0132,-0.0323,-0.0645,-0.1137,-0.1888,-0.3103,-0.4657,-0.6531,-0.7772,-0.8552,-0.8872,-0.9427,-0.9669,-0.9612,-0.9612,-0.9574,-0.9496,-0.9266,-0.9173,-0.9052,-0.8821,-0.872,-0.8733,-0.872,-0.8676,-0.8608,-0.8591,-0.8479,-0.8327,-0.8201,-0.8167,-0.8167,-0.8343,-0.8842,-0.9548,-1.0568,-1.1771,-1.3249,-1.3774,-1.4468,-1.5357,-1.5326,-1.5356,-1.5506,-1.5047,-1.4851,-1.4957,-1.4128,-1.3453,0.0,0.0,0.0,0.0,0.0,0.0,0.0,0.0,0.0,0.0,0.0,-1.4596,-1.5363,-1.6835,-1.8068,-1.8873,-1.9507,-1.9842,-1.9842,-1.9687,-1.9641,-1.9815,-2.009,-2.0278,-2.0461,-2.0872,-2.1211,-2.1429,-2.1421,-2.1559,-2.197,-2.241,-2.2977,-2.3758,-2.4235,-2.4468,-2.4266,-2.4587,-2.4891,-2.4766,-2.4959,-2.5093,-2.4794,-2.428,-2.3666,-2.3014,-2.2565,-2.2227,-2.2053,-2.1833,-2.176,-2.1961,-2.1861,-2.1647,-2.1615,-2.2263,-2.3085,-2.3677,-2.4175,-2.4701,0.0,0.0,0.0,0.0,0.0,0.0,0.0,0.0,-0.0322,-0.0507,-0.0679,-0.2526,-0.4183,-0.5768,-0.7165,-0.8135,-0.8742,-0.9465,-0.97,-0.9581,-0.9561,-0.9479,-0.9405,-0.9251,-0.9049,-0.8851,-0.8754,-0.8615,-0.8542,-0.8601,-0.8594,-0.8492,-0.8598,-0.8523,-0.8327,-0.8116,-0.7988,-0.7988,-0.8233,-0.8478,-0.8676,-0.9468,-1.0442,-1.1713,-1.2523,-1.3408,-1.439,-1.4704,-1.5006,-1.5253,-1.4819,-1.4623,-1.4801,-1.4057,-1.3558,0.0,-1.3326,0.0,0.0,0.0,0.0,0.0,0.0,0.0,0.0,-1.3751,-1.4943,-1.6453,-1.7318,-1.8183,-1.9038,-1.9823,-2.0282,-2.0314,-2.0012,-1.9948,-2.0259,-2.0058,-2.0021,-2.0369,-2.0493,-2.0625,-2.1062,-2.1108,-2.1264,-2.1632,-2.176,-2.2144,-2.3032,-2.3556,-2.3788,-2.3889,-2.399,-2.4143,-2.4606,-2.4744,-2.4693,-2.462,-2.4005,-2.3297,-2.2876,-2.2465,-2.208,-2.1797,-2.1705,-2.1723,-2.1751,-2.1742,-2.1594,-2.1479,-2.2036,-2.276,-2.3501,-2.414,-2.4764,0.0,0.0,0.0,0.0,0.0,0.0,0.0,0.0,-0.0064,-0.0377,-0.0988,-0.2404,-0.3609,-0.4717,-0.6515,-0.7606,-0.8172,-0.9052,-0.9449,-0.9422,-0.9354,-0.9282,-0.9248,-0.9045,-0.8899,-0.875,-0.8598,-0.8509,-0.8479,-0.8394,-0.8397,-0.8476,-0.8394,-0.8326,-0.8265,0.0,0.0,0.0,-0.8041,-0.8088,-0.8187,-0.873,-0.9448,-1.0361,-1.1182,0.0,-1.304,-1.3343,-1.369,-1.4141,-1.4074,0.0,0.0,0.0,0.0,0.0,0.0,0.0,0.0,0.0,0.0,0.0,-1.3493,-1.34,-1.316,-1.3835,-1.4739,-1.5779,-1.6517,-1.7237,-1.7923,-1.8609,-1.9115,-1.9259,-1.9365,-1.9448,-1.9531,-1.976,-1.993,-1.9994,-2.0278,-2.0659,-2.0998,-2.1108,-2.1255,-2.1586,-2.1687,-2.1778,-2.2016,-2.2181,-2.2181,-2.2181,-2.2776,-2.3446,-2.4211,-2.4303,-2.4284,-2.422,-2.3602,-2.2904,-2.2474,-2.2071,-2.1806,-2.1659,-2.1687,-2.1778,-2.2107,-2.1916,-2.1611,-2.1417,-2.1916,-2.2639,-2.3326,-2.3781,-2.4357,0.0,0.0,0.0,0.0,0.0,0.0,0.0,0.0,0.0,-0.025,-0.0803,-0.1481,-0.2445,-0.3733,-0.5362,-0.6591,-0.7476,-0.8622,-0.912,-0.9049,-0.9049,-0.9005,-0.8933,-0.894,-0.8818,-0.8598,-0.8523,-0.8408,-0.8269,-0.8265,-0.8269,-0.8265,-0.8269,-0.8235,-0.8157,-0.8029,-0.7988,-0.7988,-0.7988,-0.7988,-0.8038,-0.8382,-0.8862,-0.9384,-1.0304,0.0,0.0,0.0,0.0,0.0,0.0,0.0,0.0,0.0,0.0,-1.3506,-1.361,-1.3648,-1.3592,-1.374,-1.37,-1.342,-1.3694,-1.3734,-1.3447,-1.3757,-1.4289,-1.5164,-1.5983,-1.6858,-1.7668,-1.8541,-1.9162,-1.9359,-1.9489,-1.95,-1.9356,-1.9485,-1.9613,-1.9591,-1.9797,-2.0072,-2.0433,-2.0488,-2.0778,-2.1275,-2.142,-2.1511,-2.165,-2.1687,-2.1751,-2.1952,-2.2282,-2.2794,-2.3409,-2.3556,-2.3574,-2.3492,-2.3004,-2.2483,-2.2053,-2.1659,-2.1374,-2.1147,-2.1092,-2.1174,-2.1355,-2.122,-2.105,-2.0894,-2.1275,-2.1904,-2.2602,-2.3371,-2.4205,0.0,0.0,0.0,0.0,0.0,0.0,0.0,0.0,0.0,0.0,0.0,-0.0494,-0.1344,-0.2758,-0.4192,-0.5508,-0.664,-0.8057,-0.8651,-0.8575,-0.8774,-0.8832,-0.872,-0.8866,-0.8777,-0.8489,-0.8535,-0.833,-0.8002,-0.8167,-0.8163,-0.8012,-0.8167,-0.8163,-0.7998,-0.7988,-0.7988,-0.7988,-0.7988,-0.7988,-0.7988,-0.8237,-0.8432,-0.8676,-0.9669,-1.073,-1.1749,-1.2268,-1.303,-1.3998,-1.3614,-1.3449,-1.3674,-1.368,-1.3691,-1.3748,-1.3935,-1.395,-1.3741,-1.3655,-1.351,-1.326,-1.373,-1.3951,-1.37,-1.3733,-1.4034,-1.4636,-1.5684,-1.6726,-1.7648,-1.8797,-1.9573,-1.9613,-1.9796,-1.9719,-1.9375,-1.9292,-1.932,-1.9292,-1.9329,-1.9457,-1.9857,-1.993,-2.0177,-2.0915,-2.1145,-2.1264,-2.1586,-2.1687,-2.1824,-2.2217,-2.2309,-2.2455,-2.2803,-2.2959,-2.2913,-2.2968,-2.2538,-2.2044,-2.165,-2.1282,-2.0879,-2.0512,-2.0424,-2.0558,-2.0539,-2.0585,-2.0444,-2.0287,-2.063,-2.1172,-2.1997,-2.2912,-2.3842,0.0,0.0,0.0,0.0,0.0,0.0,0.0,0.0,0.0,0.0,-0.0062,-0.0371,-0.1032,-0.2065,-0.3527,-0.4815,-0.5827,-0.7279,-0.8015,-0.8213,-0.8565,-0.8733,-0.872,-0.8811,-0.8777,-0.8496,-0.8535,-0.833,-0.8019,-0.8012,-0.8008,-0.7995,-0.8062,-0.8012,-0.7992,-0.7988,-0.7988,-0.7988,-0.7988,-0.7988,-0.7988,-0.8038,-0.8088,-0.8137,-0.9175,-1.0081,-1.0963,-1.1698,-1.2456,-1.3197,-1.2977,-1.2911,-1.3191,-1.3209,-1.3383,-1.3842,-1.3891,-1.4014,-1.418,-1.3962,-1.3655,-1.3412,-1.3655,-1.3898,-1.4019,-1.4255,-1.448,-1.4755,-1.5792,-1.6688,-1.7363,-1.8785,-1.9608,-1.9364,-1.9642,-1.9729,-1.9356,-1.9292,-1.9292,-1.9292,-1.9292,-1.9448,-1.9765,-1.9866,-2.014,-2.0879,-2.1172,-2.13,-2.1623,-2.1687,-2.1861,-2.2172,-2.2327,-2.2455,-2.2712,-2.2895,-2.284,-2.2913,-2.2263,-2.1668,-2.1273,-2.0906,-2.047,-2.004,-2.0195,-2.0429,-2.0466,-2.0521,-2.0402,-2.0375,-2.0688,-2.1312,-2.2051,-2.2499,-2.3018,0.0,0.0,0.0,0.0,0.0,0.0,0.0,0.0,0.0,0.0,0.0,-0.0185,-0.0667,-0.1413,-0.2446,-0.3574,-0.4687,-0.6256,-0.7216,-0.7654,-0.8371,-0.8713,-0.8723,-0.8866,-0.8781,-0.8548,-0.8535,-0.833,-0.8012,-0.7988,-0.7988,-0.7988,-0.7988,-0.7988,-0.7988,-0.7988,-0.7988,-0.7988,-0.7988,-0.7988,-0.7988,-0.7988,-0.7948,-0.7919,-0.8893,-0.9822,-1.0655,-1.1375,-1.2165,-1.3083,-1.2856,-1.2765,-1.2892,-1.3037,-1.3203,-1.3442,-1.3616,-1.3717,-1.3823,-1.3659,-1.3531,-1.3417,-1.3792,-1.3937,-1.3734,-1.4084,-1.4346,-1.46,-1.603,-1.7296,-1.7874,-1.952,-2.0385,-1.984,-2.0039,-1.9948,-1.943,-1.9292,-1.9292,-1.9292,-1.9292,-1.9375,-1.9527,-1.9595,-1.9897,-2.0668,-2.1273,-2.1823,-2.198,-2.2007,-2.1989,-2.198,-2.1961,-2.2034,-2.2227,-2.2245,-2.2245,-2.2236,-2.1952,-2.1449,-2.0952,-2.0613,-2.0283,-1.9732,-1.976,-1.9833,-1.987,-1.9852,-1.9852,-1.9902,-2.0186,-2.0796,-2.1506,-2.2151,-2.2844,0.0,0.0,0.0,0.0,0.0,0.0,0.0,0.0,0.0,0.0,0.0,0.0,-0.0303,-0.0825,-0.151,-0.2489,-0.3769,-0.5369,-0.6494,-0.7182,-0.821,-0.8713,-0.8726,-0.8814,-0.8777,-0.8565,-0.8535,-0.8326,-0.8019,-0.7988,-0.7988,-0.7988,-0.7988,-0.7988,-0.7988,-0.7988,-0.7988,-0.7988,-0.7988,-0.7988,-0.7988,-0.7958,-0.788,-0.7869,-0.8733,-0.969,-1.0556,-1.1221,-1.2054,-1.2977,-1.2856,-1.2735,-1.2807,-1.2963,-1.3112,-1.3114,-1.3299,-1.3343,-1.3259,-1.3284,-1.3322,-1.3335,-1.3824,-1.3906,-1.3459,-1.3771,-1.4166,-1.4569,-1.6217,-1.7606,-1.8311,-2.0004,-2.0941,-2.0413,-2.0452,-2.0186,-1.9577,-1.9366,-1.9292,-1.9292,-1.9292,-1.9292,-1.9292,-1.9292,-1.9696,-2.0613,-2.1621,-2.2254,-2.2382,-2.2364,-2.2135,-2.1916,-2.176,-2.1723,-2.1687,-2.1714,-2.1733,-2.1687,-2.1604,-2.1328,-2.0842,-2.0622,-2.0273,-1.9677,-1.9485,-1.9485,-1.9356,-1.932,-1.9347,-1.9384,-1.969,-2.007,-2.0787,-2.1647,-2.2439,0.0,0.0,0.0,0.0,0.0,0.0,0.0,0.0,0.0,0.0,0.0,0.0,-0.0182,-0.0531,-0.1057,-0.1944,-0.3174,-0.4841,-0.6036,-0.6937,-0.8107,-0.8713,-0.8676,-0.8814,-0.8777,-0.8509,-0.8482,-0.8278,-0.8002,-0.7988,-0.7988,-0.7988,-0.7988,-0.7988,-0.7988,-0.7988,-0.7988,-0.7988,-0.7988,-0.7988,-0.7982,-0.7857,-0.7824,-0.7811,-0.8666,-0.9605,-1.0523,-1.1271,-1.2048,-1.2971,-1.285,-1.2819,-1.2999,-1.3103,-1.3109,-1.3073,-1.3147,-1.3044,-1.2796,-1.299,-1.3117,-1.3165,-1.3647,-1.3726,-1.3227,-1.358,-1.3994,-1.4574,-1.6007,-1.7281,-1.7998,-1.9712,-2.0729,-2.0457,-2.0488,-2.0347,-1.9866,-1.9531,-1.9292,-1.9292,-1.9292,-1.9292,-1.9292,-1.9356,-1.9815,-2.0851,-2.1805,-2.2483,-2.2757,-2.2547,-2.2346,-2.2236,-2.1943,-2.1714,-2.1687,-2.1687,-2.1687,-2.1668,-2.1429,-2.119,-2.0955,-2.0732,-2.0356,-1.9875,-1.9774,-1.9655,-1.9412,-1.9292,-1.9292,-1.9323,-1.9513,-1.9753,-2.0106,-2.0783,-2.1452,0.0188,0.0,0.0,0.0,0.0,0.0,0.0,0.0,0.0,0.0,0.0,0.0,-0.006,-0.0177,-0.0412,-0.1152,-0.2387,-0.3928,-0.5237,-0.6253,-0.761,-0.8291,-0.8301,-0.8348,-0.8234,-0.8032,-0.8118,-0.8072,-0.7839,-0.7892,-0.7988,-0.7988,-0.7988,-0.7988,-0.7988,-0.7988,-0.7988,-0.7988,-0.7988,-0.7988,-0.7971,-0.784,-0.777,-0.7773,-0.8327,-0.9001,-0.9745,-1.0548,-1.1478,-1.2386,-1.2508,-1.263,-1.2824,-1.288,-1.2874,-1.288,-1.2874,-1.2825,-1.2717,-1.2964,-1.3083,-1.3083,-1.361,-1.3682,-1.3194,-1.366,-1.4057,-1.4199,-1.5675,-1.7039,-1.7838,-1.9629,-2.0732,-2.0501,-2.0659,-2.058,-1.9957,-1.9778,-1.9595,-1.9356,-1.9292,-1.9292,-1.9375,-1.9723,-2.0292,-2.1099,-2.1943,-2.2739,-2.3142,-2.2913,-2.2684,-2.2565,-2.2117,-2.1733,-2.1687,-2.1687,-2.1687,-2.1659,-2.1559,-2.1403,-2.1145,-2.1016,-2.0677,-2.0021,-1.9939,-1.9765,-1.9375,-1.9311,-1.9292,-1.9344,-1.9464,-1.9725,-2.0139,-2.0511,-2.0873,0.0437,0.0,0.0,0.0,0.0,0.0,0.0,0.0,0.0,0.0,0.0,0.0,0.0,0.0,0.0,-0.0633,-0.1911,-0.3354,-0.4639,-0.5875,-0.7324,-0.7989,-0.7992,-0.7989,-0.785,-0.7684,-0.7908,-0.7917,-0.7722,-0.7892,-0.7988,-0.7988,-0.7988,-0.7988,-0.7988,-0.7988,-0.7988,-0.7988,-0.7988,-0.7988,-0.7965,-0.7803,-0.7706,-0.7641,-0.8006,-0.8504,-0.8986,-0.9941,-1.0852,-1.1752,-1.21,-1.24,-1.2662,-1.2705,-1.2705,-1.2705,-1.2705,-1.2705,-1.2711,-1.3031,-1.3185,-1.3272,-1.3719,-1.3827,-1.351,-1.3814,-1.397,-1.3928,-1.5092,-1.6286,-1.7559,-1.9212,-2.0203,-2.0288,-2.0561,-2.0474,-2.0057,-1.9861,-1.9613,-1.9356,-1.9292,-1.9292,-1.9402,-1.9962,-2.0631,-2.1126,-2.2007,-2.295,-2.327,-2.3059,-2.2739,-2.2849,-2.2208,-2.1742,-2.1687,-2.1687,-2.1687,-2.1687,-2.1659,-2.1559,-2.1337,-2.13,-2.1117,-2.0561,-2.025,-1.9902,-1.9622,-1.9485,-1.9323,-1.9367,-1.9457,-1.966,-2.0134,-2.0347,-2.0543,0.0925,0.0,0.0,0.0,0.0,0.0,0.0,0.0,0.0,0.0,0.0,0.0,0.0,0.0,0.0,-0.0627,-0.1909,-0.3299,-0.4639,-0.5819,-0.7268,-0.7992,-0.7992,-0.7989,-0.785,-0.7557,-0.7802,-0.7917,-0.7955,-0.7988,-0.7988,-0.7988,-0.7939,-0.7988,-0.7988,-0.7988,-0.7988,-0.7988,-0.7988,-0.7988,-0.7955,-0.776,-0.7614,-0.762,-0.7764,-0.804,-0.8544,-0.9462,-1.0381,-1.1278,-1.1757,-1.218,-1.2613,-1.2705,-1.2705,-1.2705,-1.2705,-1.2705,-1.2765,-1.3181,-1.3432,-1.355,-1.3948,-1.4147,-1.3827,-1.3835,-1.3876,-1.3878,-1.4263,-1.5163,-1.6662,-1.8037,-1.9147,-1.9723,-1.9852,-1.9958,-2.0138,-1.9693,-1.9344,-1.9301,-1.9292,-1.9292,-1.932,-2.0008,-2.0594,-2.1108,-2.1787,-2.2593,-2.3187,-2.284,-2.2584,-2.2638,-2.2272,-2.1687,-2.1687,-2.1687,-2.1687,-2.1687,-2.1687,-2.1695,-2.1678,-2.1614,-2.1321,-2.1044,-2.0525,-2.014,-1.9916,-1.9681,-1.9445,-1.9394,-1.9307,-1.9531,-1.9966,-2.0215,-2.0423,0.111,0.0,0.0,0.0,0.0,0.0,0.0,0.0,0.0,0.0,0.0,0.0,0.0,0.0,0.0,-0.0677,-0.1851,-0.3134,-0.4418,-0.5594,-0.6877,-0.7487,-0.7487,-0.7487,-0.7359,-0.7149,-0.7378,-0.7504,-0.7516,-0.7487,-0.749,-0.7487,-0.7487,-0.759,-0.7693,-0.7746,-0.7842,-0.7988,-0.7988,-0.7988,-0.7965,-0.7753,-0.7597,-0.7584,-0.7625,-0.772,-0.8069,-0.8815,-0.9598,-1.0376,-1.1025,-1.1628,-1.2186,-1.2534,-1.2705,-1.2705,-1.2705,-1.2705,-1.2765,-1.3212,-1.3468,-1.355,-1.3996,-1.4189,-1.3954,-1.4001,-1.4022,-1.4008,-1.4245,-1.4996,-1.5934,-1.6879,-1.7599,-1.8277,-1.9021,-1.9484,-1.9633,-1.9625,-1.9613,-1.9375,-1.9292,-1.9292,-1.9402,-1.9756,-2.0374,-2.1016,-2.1594,-2.2318,-2.3068,-2.2841,-2.241,-2.2648,-2.2236,-2.1687,-2.1687,-2.1687,-2.1687,-2.1687,-2.1659,-2.153,-2.1431,-2.1321,-2.1089,-2.0622,-2.0319,-2.0063,-1.9687,-1.9562,-1.9392,-1.9332,-1.9238,-1.9436,-1.9712,-2.0099,-2.0369,0.0864,0.0,0.0,0.0,0.0,0.0,0.0,0.0,0.0,0.0,0.0,0.0,0.0,0.0,0.0,-0.0556,-0.1559,-0.2735,-0.3973,-0.5146,-0.6374,-0.6932,-0.7046,-0.7154,-0.7084,-0.6867,-0.6974,-0.71,-0.7206,-0.7185,-0.7185,-0.7185,-0.7185,-0.7338,-0.7543,-0.7593,-0.7746,-0.7939,-0.7988,-0.7988,-0.7955,-0.7753,-0.7597,-0.7556,-0.7441,-0.7455,-0.7588,-0.8204,-0.8819,-0.9462,-1.0202,-1.1068,-1.1929,-1.2448,-1.2705,-1.2705,-1.2705,-1.2705,-1.2765,-1.3206,-1.3468,-1.3492,-1.3978,-1.4208,-1.4051,-1.4121,-1.4129,-1.4136,-1.4378,-1.4912,-1.5497,-1.6106,-1.6831,-1.7681,-1.8617,-1.916,-1.9271,-1.9521,-1.9546,-1.9366,-1.9292,-1.9292,-1.9347,-1.9646,-2.0095,-2.0677,-2.1138,-2.1906,-2.2574,-2.251,-2.2236,-2.2556,-2.2126,-2.176,-2.1623,-2.1549,-2.1604,-2.1614,-2.1421,-2.1257,-2.1135,-2.1007,-2.075,-2.0264,-1.9934,-1.9705,-1.9512,-1.9396,-1.9364,-1.9297,-1.9442,-1.9623,-1.9858,-2.0079,-2.0434,0.0,0.0,0.0,0.0,0.0,0.0,0.0,0.0,0.0,0.0,0.0,0.0,0.0,0.0,0.0,-0.0328,-0.1043,-0.211,-0.3297,-0.4534,-0.5706,-0.6429,-0.6712,-0.7043,-0.7087,-0.6796,-0.6768,-0.6956,-0.7089,-0.7135,-0.7135,-0.7185,-0.7138,-0.7238,-0.7593,-0.7593,-0.7693,-0.7939,-0.7988,-0.7988,-0.7955,-0.775,-0.7597,-0.7567,-0.7302,-0.7143,-0.7139,-0.7584,-0.8069,-0.8592,-0.9419,-1.0549,-1.18,-1.2443,-1.2705,-1.2705,-1.2705,-1.2705,-1.2759,-1.32,-1.3468,-1.358,-1.4002,-1.4286,-1.4256,-1.4256,-1.4292,-1.4315,-1.4518,-1.4814,-1.5192,-1.6017,-1.6957,-1.8098,-1.8651,-1.9057,-1.9168,-1.9259,-1.9301,-1.9292,-1.9292,-1.9292,-1.9375,-1.9604,-1.9884,-2.0104,-2.0613,-2.1282,-2.1815,-2.1815,-2.1879,-2.2099,-2.1961,-2.1705,-2.1531,-2.1394,-2.1467,-2.153,-2.1202,-2.1016,-2.0772,-2.0616,-2.0448,-2.0035,-1.9824,-1.9595,-1.9451,-1.9316,-1.9282,-1.9298,-1.9529,-1.9697,-1.9868,-2.0095,-2.065,0.0,0.0,0.0,0.0,0.0,0.0,0.0,0.0,0.0,0.0,0.0,0.0,0.0,0.0,0.0,-0.0217,-0.0602,-0.1265,-0.2327,-0.386,-0.5093,-0.5931,-0.6432,-0.6985,-0.7032,-0.6796,-0.6607,-0.6537,-0.6639,-0.6639,-0.6637,-0.6637,-0.6686,-0.6889,-0.7291,-0.7338,-0.7537,-0.7939,-0.7988,-0.7988,-0.7965,-0.7753,-0.76,-0.7567,-0.7257,-0.7095,-0.7139,-0.7411,-0.772,-0.8025,-0.8947,-1.0164,-1.1542,-1.2363,-1.2705,-1.2705,-1.2705,-1.2705,-1.2771,-1.3194,-1.3468,-1.3604,-1.4002,-1.4268,-1.4298,-1.4298,-1.4298,-1.4346,-1.4544,-1.4924,-1.5564,-1.6334,-1.6992,-1.7289,-1.8177,-1.884,-1.8961,-1.9163,-1.9271,-1.9292,-1.9292,-1.9292,-1.9301,-1.9476,-1.9582,-1.982,-2.0182,-2.0589,-2.1366,-2.1412,-2.144,-2.1751,-2.1641,-2.1604,-2.144,-2.1238,-2.1156,-2.1154,-2.0915,-2.0576,-2.0393,-2.0131,-1.9971,-1.9815,-1.9613,-1.9494,-1.935,-1.9192,-1.9126,-1.9191,-1.9295,-1.9504,-1.9754,-2.0238,-2.0809,0.0185,0.0185,0.0062,0.0,0.0,0.0,0.0,0.0,0.0,0.0,0.0,0.0,0.0,0.0,0.0,0.0,-0.0271,-0.0491,-0.1435,-0.2965,-0.4424,-0.5427,-0.6137,-0.6725,-0.6961,-0.6787,-0.6503,-0.6389,-0.6387,-0.6387,-0.6387,-0.6437,-0.6387,-0.6686,-0.7135,-0.7235,-0.7487,-0.7939,-0.7988,-0.7988,-0.7931,-0.7753,-0.7597,-0.7556,-0.7257,-0.7109,-0.7095,-0.7279,-0.7411,-0.776,-0.8767,-1.0154,-1.1451,-1.2272,-1.2705,-1.2705,-1.2705,-1.2705,-1.2759,-1.3212,-1.3468,-1.3598,-1.3996,-1.4292,-1.4298,-1.4298,-1.4298,-1.4352,-1.4646,-1.5118,-1.5771,-1.6622,-1.7104,-1.7419,-1.8409,-1.8986,-1.916,-1.9234,-1.9301,-1.9292,-1.9292,-1.9292,-1.9292,-1.9301,-1.9393,-1.9659,-1.9802,-2.0012,-2.0836,-2.1046,-2.1229,-2.1449,-2.1577,-2.1504,-2.1401,-2.1172,-2.0915,-2.0741,-2.0506,-2.0163,-1.9852,-1.9518,-1.928,-1.9265,-1.9109,-1.9274,-1.9176,-1.8877,-1.8751,-1.8925,-1.9166,-1.9448,-1.9793,-2.0466,-2.1051,0.0494,0.0432,0.0124,0.0,0.0,0.0,0.0,0.0,0.0,0.0,0.0,0.0,0.0,0.0,0.0,0.0,0.0,-0.0054,-0.0716,-0.2066,-0.3529,-0.4869,-0.6024,-0.6624,-0.6834,-0.6771,-0.6551,-0.6392,-0.6387,-0.6387,-0.6387,-0.6387,-0.6437,-0.6625,-0.7015,-0.7176,-0.7381,-0.7806,-0.7875,-0.7889,-0.7922,-0.7702,-0.7597,-0.7587,-0.7264,-0.7095,-0.7095,-0.7139,-0.7183,-0.7445,-0.8969,-1.0274,-1.1278,-1.2186,-1.2705,-1.2705,-1.2705,-1.2705,-1.2807,-1.3212,-1.3462,-1.3556,-1.3984,-1.4298,-1.4298,-1.4298,-1.4298,-1.4346,-1.4736,-1.5267,-1.5825,-1.6581,-1.7381,-1.8194,-1.9029,-1.9625,-1.9838,-1.96,-1.954,-1.9457,-1.9375,-1.9338,-1.9375,-1.9356,-1.9338,-1.9467,-1.9664,-1.9866,-2.0195,-2.0649,-2.0961,-2.1181,-2.1321,-2.1438,-2.1291,-2.1154,-2.0897,-2.0613,-2.0328,-1.9861,-1.9439,-1.9118,-1.8996,-1.8944,-1.8871,-1.9008,-1.8992,-1.8786,-1.8714,-1.8883,-1.9156,-1.9455,-1.9895,-2.0465,-2.1008,0.0494,0.0432,0.0124,0.0,0.0,0.0,0.0,0.0,0.0,0.0,0.0,0.0,0.0,0.0,0.0,0.0,0.0,0.0,-0.0492,-0.1509,-0.2576,-0.4644,-0.6388,-0.6754,-0.6798,-0.676,-0.6556,-0.6389,-0.6387,-0.6387,-0.6387,-0.6387,-0.6437,-0.6542,-0.6825,-0.6898,-0.7032,-0.7318,-0.7394,-0.754,-0.7651,-0.7459,-0.7409,-0.757,-0.7253,-0.7105,-0.7095,-0.7095,-0.7492,-0.8241,-0.9231,-1.0318,-1.1278,-1.2186,-1.2705,-1.2705,-1.2705,-1.2705,-1.2807,-1.3212,-1.3489,-1.3556,-1.4008,-1.4292,-1.4298,-1.4298,-1.4298,-1.4394,-1.479,-1.5172,-1.5581,-1.6292,-1.726,-1.8492,-1.9223,-1.9875,-2.0219,-2.0273,-2.0159,-2.0131,-1.9893,-1.9797,-1.9714,-1.9558,-1.9485,-1.9637,-1.9646,-1.9674,-2.0108,-2.0149,-2.0475,-2.075,-2.0961,-2.1145,-2.12,-2.108,-2.0879,-2.0558,-2.0154,-1.9632,-1.9228,-1.8861,-1.8962,-1.9081,-1.899,-1.9063,-1.8964,-1.8822,-1.8864,-1.8754,-1.8938,-1.9113,-1.9666,-2.0226,-2.0732,0.0926,0.0865,0.0432,0.0185,0.0185,0.0062,0.0,0.0,0.0,0.0,0.0,0.0,0.0,0.0,0.0,0.0,0.0,0.0,0.0,-0.1227,-0.2502,-0.4429,-0.62,-0.6576,-0.6623,-0.6706,-0.6478,-0.6398,-0.6387,-0.6387,-0.6387,-0.6387,-0.6387,-0.6501,-0.6755,-0.6796,-0.6907,-0.71,-0.7201,-0.7338,-0.7574,-0.7363,-0.7378,-0.7493,-0.7264,-0.7095,-0.7095,-0.7095,-0.758,-0.85,-0.9453,-1.0318,-1.1284,-1.2186,-1.2705,-1.2705,-1.2705,-1.2747,-1.2928,-1.3284,-1.355,-1.3713,-1.4081,-1.4256,-1.4298,-1.4298,-1.4298,-1.4352,-1.4694,-1.4927,-1.5207,-1.592,-1.6897,-1.7956,-1.8881,-1.9643,-2.0368,-2.0392,-2.0413,-2.0382,-2.0287,-2.014,-2.0131,-1.9934,-1.9962,-2.0035,-1.9842,-1.9943,-2.0108,-1.9976,-2.0012,-2.0369,-2.0805,-2.1089,-2.1273,-2.1218,-2.0906,-2.0585,-1.9962,-1.943,-1.9118,-1.8751,-1.8843,-1.9008,-1.9036,-1.9045,-1.8992,-1.8811,-1.8462,-1.8421,-1.8557,-1.8866,-1.9362,-1.9868,-2.0377,0.1483,0.1482,0.0741,0.0494,0.0431,0.0,0.0,0.0,0.0,0.0,0.0,0.0,0.0,0.0,0.0,0.0,0.0,0.0,0.0,-0.1383,-0.2699,-0.441,-0.5802,-0.612,-0.6342,-0.6567,-0.6497,-0.6395,-0.6387,-0.6387,-0.6387,-0.6387,-0.6387,-0.6526,-0.6647,-0.6725,-0.6886,-0.6997,-0.7018,-0.7138,-0.7294,-0.718,-0.7174,-0.7409,-0.7257,-0.7105,-0.7095,-0.7139,-0.758,-0.8544,-0.9453,-1.0318,-1.1278,-1.2186,-1.2662,-1.2729,-1.2765,-1.2842,-1.3109,-1.3387,-1.3652,-1.3876,-1.4123,-1.4292,-1.4298,-1.4298,-1.4298,-1.4298,-1.4538,-1.4783,-1.5022,-1.5683,-1.6433,-1.7311,-1.8164,-1.9167,-1.9981,-2.0268,-2.0361,-2.0589,-2.0589,-2.0576,-2.0576,-2.0549,-2.0479,-2.0475,-2.0209,-2.0026,-2.0026,-1.9888,-1.9966,-2.025,-2.0662,-2.1135,-2.1282,-2.1374,-2.0989,-2.0585,-1.9783,-1.9244,-1.91,-1.8852,-1.8806,-1.8852,-1.9063,-1.9173,-1.9182,-1.8857,-1.8304,-1.8275,-1.8506,-1.8682,-1.8921,-1.9419,-1.9944,0.1483,0.142,0.0803,0.049,0.0425,0.0,0.0,0.0,0.0,0.0,0.0,0.0,0.0,0.0,0.0,0.0,0.0,0.0,0.0,-0.1727,-0.2766,-0.4019,-0.5169,-0.5692,-0.6159,-0.6428,-0.6441,-0.6389,-0.6387,-0.6387,-0.6387,-0.6387,-0.6431,-0.6393,-0.6435,-0.6504,-0.649,-0.6536,-0.6539,-0.6739,-0.6945,-0.6789,-0.6826,-0.7216,-0.7156,-0.7112,-0.7095,-0.7095,-0.758,-0.8544,-0.9414,-1.0304,-1.1267,-1.2227,-1.2716,-1.2807,-1.2946,-1.3023,-1.32,-1.355,-1.3839,-1.3936,-1.4147,-1.4298,-1.4298,-1.4298,-1.4298,-1.4346,-1.4544,-1.4831,-1.5166,-1.5588,-1.6109,-1.6723,-1.7606,-1.8642,-1.9558,-2.0365,-2.0908,-2.1224,-2.1154,-2.0979,-2.0961,-2.0732,-2.0723,-2.0814,-2.0567,-2.0182,-1.998,-1.9833,-1.9916,-2.0085,-2.036,-2.0778,-2.1025,-2.108,-2.0753,-2.0397,-1.9729,-1.9244,-1.9091,-1.8981,-1.8935,-1.9026,-1.9201,-1.9265,-1.9313,-1.8773,-1.8239,-1.836,-1.8415,-1.84,-1.8553,-1.9054,-1.9386,0.173,0.1668,0.0988,0.0734,0.0664,0.0,0.0,0.0,0.0,0.0,0.0,0.0,0.0,0.0,0.0,0.0,0.0,-0.033,-0.0889,-0.1889,-0.287,-0.3886,-0.4909,-0.5494,-0.5974,-0.642,-0.6422,-0.6389,-0.6387,-0.6387,-0.6387,-0.6387,-0.6387,-0.6365,-0.6358,-0.6404,-0.6404,-0.6377,-0.6401,-0.6539,-0.6705,-0.6546,-0.6557,-0.6985,-0.7048,-0.7095,-0.7095,-0.7095,-0.758,-0.8388,-0.9283,-1.0304,-1.1444,-1.2487,-1.3029,-1.3115,-1.3206,-1.3381,-1.355,-1.3737,-1.396,-1.4081,-1.4232,-1.4274,-1.4298,-1.4298,-1.4298,-1.4346,-1.4442,-1.4682,-1.5064,-1.5207,-1.554,-1.6109,-1.6998,-1.8017,-1.9072,-2.0175,-2.1096,-2.1481,-2.1476,-2.1394,-2.1257,-2.1037,-2.1126,-2.1257,-2.068,-2.0296,-2.0118,-1.9962,-1.9769,-1.9847,-2.0049,-2.0365,-2.0668,-2.0695,-2.0461,-2.0122,-1.9732,-1.9412,-1.9228,-1.9146,-1.9081,-1.9191,-1.9323,-1.942,-1.9358,-1.8767,-1.836,-1.8447,-1.8421,-1.8168,-1.8124,-1.8462,-1.8731,0.2097,0.1969,0.1292,0.1035,0.0898,0.0,0.0,0.0,0.0,0.0,0.0,0.0,0.0,0.0,0.0,0.0,0.0,-0.0718,-0.1335,-0.2048,-0.3061,-0.4128,-0.503,-0.5593,-0.5954,-0.6389,-0.6389,-0.6387,-0.6387,-0.6387,-0.6387,-0.6387,-0.6387,-0.6379,-0.6381,-0.6434,-0.6412,-0.6336,-0.6365,-0.6468,-0.6627,-0.6475,-0.649,-0.6645,-0.6945,-0.701,-0.7064,-0.7125,-0.7498,-0.8159,-0.9054,-1.0239,-1.1478,-1.2648,-1.3423,-1.3405,-1.348,-1.364,-1.3785,-1.3942,-1.4087,-1.4292,-1.4298,-1.4298,-1.4298,-1.4298,-1.4298,-1.4298,-1.4394,-1.4448,-1.4688,-1.4879,-1.507,-1.5594,-1.6433,-1.7451,-1.8557,-1.982,-2.069,-2.1544,-2.1632,-2.1577,-2.1595,-2.1504,-2.1614,-2.1577,-2.0964,-2.047,-2.0259,-2.0003,-1.9783,-1.9664,-1.9897,-2.0186,-2.0539,-2.0576,-2.0305,-1.9985,-1.9659,-1.9503,-1.9338,-1.9256,-1.9191,-1.9286,-1.939,-1.9518,-1.944,-1.8957,-1.8694,-1.8643,-1.833,-1.7982,-1.7886,-1.7896,-1.8202,0.2633,0.2239,0.1392,0.0953,0.0812,0.0228,0.0,0.0,0.0,0.0,0.0,0.0,0.0,0.0,0.0,0.0,0.0,-0.083,-0.1649,-0.2457,-0.3451,-0.4538,-0.5498,-0.5809,-0.6145,-0.6337,-0.6387,-0.6387,-0.6387,-0.6387,-0.6387,-0.6387,-0.6387,-0.6387,-0.6387,-0.6381,-0.6341,-0.6344,-0.6391,-0.6399,-0.6396,-0.6306,-0.6201,-0.6337,-0.6659,-0.6881,-0.6954,-0.7171,-0.7601,-0.8121,-0.8983,-0.9913,-1.0951,-1.2129,-1.2843,-1.329,-1.361,-1.3888,-1.3954,-1.4117,-1.422,-1.4292,-1.4298,-1.4298,-1.4298,-1.4298,-1.4346,-1.4346,-1.4346,-1.4442,-1.4688,-1.4885,-1.5172,-1.5642,-1.6353,-1.7286,-1.8149,-1.9171,-2.0275,-2.1275,-2.1499,-2.1687,-2.1687,-2.1687,-2.1687,-2.1586,-2.1174,-2.0741,-2.0438,-2.0108,-1.9738,-1.9714,-1.9723,-2.009,-2.0424,-2.0438,-2.0259,-1.9948,-1.9655,-1.9558,-1.9421,-1.9329,-1.9301,-1.935,-1.9439,-1.9557,-1.9349,-1.9071,-1.8928,-1.882,-1.8344,-1.7823,-1.7862,-1.7964,-1.8032,0.3176,0.2593,0.1628,0.1185,0.1034,0.0503,0.0219,0.0216,0.0,0.0,0.0,0.0,0.0,0.0,0.0,0.0,0.0,-0.1044,-0.2021,-0.2978,-0.406,-0.5126,-0.6036,-0.6191,-0.625,-0.6387,-0.6387,-0.6387,-0.6387,-0.6387,-0.6387,-0.6387,-0.6387,-0.6387,-0.6387,-0.6384,-0.6372,-0.6317,-0.6366,-0.638,-0.632,-0.6241,-0.6195,-0.6248,-0.6536,-0.6792,-0.6866,-0.7202,-0.7545,-0.7964,-0.8589,-0.9403,-1.0301,-1.1272,-1.2304,-1.3127,-1.3744,-1.4105,-1.4111,-1.4244,-1.4286,-1.4298,-1.4298,-1.4298,-1.4298,-1.4298,-1.4346,-1.449,-1.4544,-1.4592,-1.4885,-1.5035,-1.522,-1.5547,-1.6157,-1.6904,-1.7692,-1.8573,-1.9666,-2.0808,-2.1186,-2.1419,-2.1687,-2.1687,-2.1687,-2.1531,-2.1346,-2.0998,-2.0622,-2.0237,-1.9829,-1.9586,-1.954,-1.9696,-2.0017,-2.0044,-2.0063,-1.9824,-1.9637,-1.9549,-1.9558,-1.9494,-1.9384,-1.932,-1.9439,-1.9671,-1.9547,-1.9363,-1.9202,-1.9014,-1.8566,-1.8216,-1.8037,-1.8042,-1.8066,0.3628,0.2866,0.1852,0.1411,0.1256,0.0717,0.0378,0.0319,0.0104,0.0,0.0,0.0,0.0,0.0,0.0,0.0,0.0,-0.1085,-0.2102,-0.3101,-0.4124,-0.5246,-0.609,-0.6398,-0.6337,-0.6387,-0.6387,-0.6387,-0.6387,-0.6387,-0.6387,-0.6387,-0.6387,-0.6387,-0.6387,-0.6387,-0.6361,-0.6309,-0.6369,-0.6377,-0.6317,-0.6356,-0.6301,-0.6141,-0.652,-0.6712,-0.6744,-0.7145,-0.7439,-0.7743,-0.8185,-0.8836,-0.9526,-1.0369,-1.1477,-1.27,-1.357,-1.3908,-1.4052,-1.41,-1.4112,-1.416,-1.425,-1.4298,-1.4298,-1.4346,-1.4394,-1.464,-1.4688,-1.479,-1.4987,-1.5172,-1.5315,-1.5499,-1.5913,-1.6473,-1.7178,-1.7963,-1.8888,-1.9812,-2.06,-2.115,-2.1419,-2.1687,-2.1687,-2.1678,-2.1449,-2.1227,-2.0842,-2.0369,-1.9966,-1.9531,-1.9347,-1.9347,-1.9467,-1.9522,-1.9558,-1.9531,-1.9494,-1.9448,-1.9577,-1.9655,-1.9613,-1.9586,-1.9672,-1.986,-1.9736,-1.9657,-1.9468,-1.9232,-1.8867,-1.8578,-1.8334,-1.8115,-1.8042,0.404,0.3063,0.1908,0.1373,0.1234,0.0707,0.0428,0.0372,0.0155,0.0,0.0,0.0,0.0,0.0,0.0,0.0,0.0,-0.0846,-0.1733,-0.2613,-0.364,-0.4714,-0.566,-0.5952,-0.6187,-0.6337,-0.6387,-0.6387,-0.6387,-0.6387,-0.6387,-0.6387,-0.6387,-0.6387,-0.6387,-0.6387,-0.6271,-0.6195,-0.6328,-0.6377,-0.6336,-0.6292,-0.625,-0.6203,-0.6342,-0.647,-0.6569,-0.7051,-0.7426,-0.751,-0.7853,-0.8347,-0.8898,-0.944,-1.0051,-1.0984,-1.2014,-1.305,-1.3238,-1.348,-1.3727,-1.3919,-1.416,-1.4256,-1.4298,-1.4346,-1.4442,-1.4688,-1.4688,-1.4879,-1.5124,-1.5315,-1.5452,-1.5642,-1.5879,-1.6251,-1.677,-1.7271,-1.8149,-1.8796,-1.9538,-2.0501,-2.1096,-2.141,-2.1687,-2.1668,-2.1595,-2.1321,-2.0998,-2.0479,-2.0104,-1.9668,-1.932,-1.9292,-1.9292,-1.9292,-1.9292,-1.9292,-1.9329,-1.9393,-1.9567,-1.9729,-2.0021,-2.0058,-2.0111,-2.0058,-1.9984,-1.9877,-1.9773,-1.948,-1.9117,-1.8806,-1.8578,-1.8315,-1.8027,0.4465,0.339,0.2127,0.1595,0.1512,0.0929,0.0699,0.0584,0.0,0.0,0.0,0.0,0.0,0.0,0.0,0.0,0.0,-0.0677,-0.1297,-0.2063,-0.3053,-0.4131,-0.5037,-0.5589,-0.5937,-0.6337,-0.6387,-0.6387,-0.6387,-0.6387,-0.6387,-0.6387,-0.6387,-0.6387,-0.6387,-0.6387,-0.6344,-0.6268,-0.6285,-0.6312,-0.6279,-0.6306,-0.6259,-0.6097,-0.6322,-0.6369,-0.6546,-0.7014,-0.7376,-0.7453,-0.7763,-0.8134,-0.8528,-0.892,-0.9365,-0.9719,-1.0458,-1.1433,-1.2301,-1.2791,-1.3232,-1.3678,-1.4016,-1.4298,-1.4298,-1.4298,-1.4394,-1.4688,-1.4688,-1.4879,-1.5213,-1.5404,-1.554,-1.5683,-1.5879,-1.5974,-1.6298,-1.6723,-1.7326,-1.7878,-1.8427,-1.9347,-2.0175,-2.0637,-2.0961,-2.1311,-2.1337,-2.1333,-2.0912,-2.0438,-2.0108,-1.9806,-1.9503,-1.9292,-1.9292,-1.9292,-1.9292,-1.9292,-1.9292,-1.9384,-1.9567,-1.9797,-2.0118,-2.0333,-2.0347,-2.0311,-2.0271,-2.0136,-1.9985,-1.9694,-1.935,-1.9056,-1.8715,-1.8256,-1.8037,0.4732,0.3597,0.2343,0.1815,0.1737,0.1156,0.0866,0.0799,0.0262,0.0,0.0,0.0,0.0,0.0,0.0,0.0,0.0,-0.0464,-0.0928,-0.1639,-0.2491,-0.358,-0.4481,-0.5186,-0.5837,-0.6387,-0.6387,-0.6387,-0.6387,-0.6387,-0.6387,-0.6387,-0.6387,-0.6387,-0.6387,-0.6381,-0.6333,-0.6328,-0.6244,-0.6241,-0.6303,-0.6279,-0.624,-0.6199,-0.6272,-0.6376,-0.6463,-0.6885,-0.7192,-0.7269,-0.7631,-0.7939,-0.8184,-0.8432,-0.868,-0.8931,-0.9278,-0.9965,-1.113,-1.2009,-1.2748,-1.3383,-1.3919,-1.4298,-1.4298,-1.4298,-1.44,-1.4646,-1.4688,-1.4968,-1.535,-1.5499,-1.5588,-1.5683,-1.5825,-1.5825,-1.5866,-1.6318,-1.6702,-1.7185,-1.7645,-1.7978,-1.8758,-1.95,-2.0093,-2.0727,-2.1007,-2.1211,-2.0925,-2.0506,-2.0177,-1.9948,-1.9742,-1.9457,-1.9292,-1.9292,-1.9292,-1.9292,-1.9292,-1.9421,-1.9632,-1.9897,-2.0218,-2.0403,-2.0532,-2.0564,-2.0545,-2.0362,-2.0207,-2.0003,-1.9689,-1.9221,-1.8838,-1.8359,-1.8047,0.47,0.3538,0.2304,0.1798,0.1737,0.1156,0.0921,0.0906,0.0262,0.0,0.0,0.0,0.0,0.0,0.0,0.0,0.0,0.0,-0.0609,-0.1115,-0.1969,-0.3024,-0.3977,-0.4832,-0.5639,-0.6287,-0.6387,-0.6387,-0.6387,-0.6387,-0.6387,-0.6387,-0.6387,-0.6387,-0.6387,-0.6384,-0.6381,-0.6361,-0.6246,-0.6246,-0.6259,-0.624,-0.6199,-0.6273,-0.6298,-0.6347,-0.6393,-0.6738,-0.6898,-0.695,-0.7428,-0.7693,-0.7839,-0.8038,-0.8237,-0.8287,-0.834,-0.9027,-1.006,-1.1326,-1.2355,-1.3093,-1.3775,-1.4298,-1.4298,-1.4298,-1.4448,-1.4592,-1.464,-1.4927,-1.5261,-1.5499,-1.554,-1.571,-1.5778,-1.5718,-1.5765,-1.594,-1.6277,-1.6615,-1.6911,-1.7138,-1.7419,-1.8156,-1.9217,-1.9894,-2.0889,-2.115,-2.1207,-2.0863,-2.047,-2.0177,-1.9948,-1.9655,-1.9347,-1.9292,-1.9292,-1.9292,-1.9292,-1.9494,-1.9692,-1.9976,-2.0218,-2.0453,-2.0592,-2.0708,-2.0782,-2.059,-2.0419,-2.0333,-2.001,-1.9453,-1.8906,-1.8408,-1.8144,0.4697,0.3531,0.2299,0.1795,0.1738,0.1336,0.1148,0.1068,0.0529,0.0156,0.0,0.0,0.0,0.0,0.0,0.0,0.0,0.0,0.0,0.0,-0.1412,-0.2469,-0.3473,-0.4529,-0.5436,-0.6187,-0.6387,-0.6387,-0.6387,-0.6387,-0.6387,-0.6387,-0.6387,-0.6387,-0.6387,-0.6387,-0.6387,-0.6399,-0.629,-0.6281,-0.6219,-0.6157,-0.6111,-0.6146,-0.6205,-0.6217,-0.6352,-0.662,-0.672,-0.6918,-0.7288,-0.7494,-0.7593,-0.7839,-0.7939,-0.7988,-0.7988,-0.8584,-0.9575,-1.089,-1.2155,-1.357,-1.4154,-1.4298,-1.4298,-1.4298,-1.4346,-1.4394,-1.449,-1.4736,-1.5124,-1.5267,-1.535,-1.5596,-1.5732,-1.5651,-1.5665,-1.5799,-1.5825,-1.612,-1.6176,-1.6298,-1.6534,-1.6864,-1.801,-1.9109,-2.015,-2.1025,-2.1103,-2.1167,-2.0817,-2.0415,-2.0168,-1.9793,-1.9476,-1.9375,-1.9301,-1.9292,-1.9292,-1.9457,-1.9699,-1.9829,-2.0081,-2.037,-2.0643,-2.0717,-2.0746,-2.0697,-2.0612,-2.043,-2.004,-1.9541,-1.8994,-1.8408,-1.8203,0.4697,0.3475,0.2299,0.1795,0.1738,0.145,0.1313,0.1228,0.0636,0.026,0.0,0.0,0.0,0.0,0.0,0.0,0.0,0.0,0.0,0.0,-0.1059,-0.2017,-0.3024,-0.4029,-0.5033,-0.5937,-0.6287,-0.6287,-0.6387,-0.6387,-0.6387,-0.6387,-0.6387,-0.6387,-0.6387,-0.6387,-0.6387,-0.641,-0.6295,-0.6219,-0.6192,-0.6053,-0.6005,-0.6018,-0.6032,-0.6094,-0.6243,-0.6446,-0.6557,-0.6717,-0.7012,-0.7294,-0.7444,-0.7643,-0.7842,-0.7892,-0.8041,-0.8538,-0.9575,-1.1042,-1.2398,-1.3908,-1.425,-1.4298,-1.4298,-1.4298,-1.4346,-1.4346,-1.4346,-1.4538,-1.5035,-1.5178,-1.5363,-1.5663,-1.5698,-1.5624,-1.5578,-1.5611,-1.5558,-1.5624,-1.5685,-1.5913,-1.6157,-1.6534,-1.7498,-1.8696,-1.9886,-2.0754,-2.1105,-2.1165,-2.1138,-2.0744,-2.0429,-2.0008,-1.9595,-1.9467,-1.9338,-1.9341,-1.9341,-1.9429,-1.9565,-1.9777,-2.0051,-2.0369,-2.0595,-2.0705,-2.0851,-2.0938,-2.0755,-2.0498,-1.9992,-1.9414,-1.874,-1.8184,-1.8125,0.4695,0.3474,0.2297,0.1793,0.1786,0.1432,0.1299,0.1273,0.068,0.0257,0.0,0.0,0.0,0.0,0.0,0.0,0.0,0.0,0.0,0.0,-0.0808,-0.1665,-0.2521,-0.3527,-0.4582,-0.5436,-0.5887,-0.6139,-0.6387,-0.6387,-0.6387,-0.6387,-0.6387,-0.6387,-0.6387,-0.6387,-0.6387,-0.6354,-0.6214,-0.613,-0.6067,-0.5909,-0.586,-0.589,-0.5909,-0.5969,-0.612,-0.6235,-0.6346,-0.645,-0.6752,-0.6939,-0.6995,-0.7397,-0.7646,-0.7643,-0.7889,-0.8535,-0.9677,-1.1585,-1.3044,-1.4052,-1.4298,-1.4298,-1.4298,-1.4298,-1.4298,-1.4298,-1.4298,-1.4544,-1.4885,-1.5131,-1.5363,-1.5568,-1.5597,-1.5531,-1.5425,-1.5391,-1.5331,-1.5251,-1.5551,-1.5818,-1.6015,-1.6393,-1.7271,-1.8373,-1.9567,-2.0348,-2.0808,-2.1105,-2.1145,-2.0976,-2.0574,-2.0255,-1.9852,-1.9491,-1.9375,-1.9378,-1.9429,-1.9478,-1.9597,-1.9757,-2.0073,-2.0401,-2.0573,-2.0658,-2.0958,-2.1263,-2.0843,-2.0333,-1.9787,-1.917,-1.8486,-1.8047,-1.8018,0.4666,0.3417,0.2316,0.1753,0.1737,0.1692,0.1614,0.1467,0.0926,0.0406,0.0,0.0,0.0,0.0,0.0,0.0,0.0,0.0,0.0,0.0,-0.0657,-0.1262,-0.2017,-0.2973,-0.4029,-0.4933,-0.5486,-0.5989,-0.6387,-0.6387,-0.6387,-0.6387,-0.6387,-0.6387,-0.6387,-0.6387,-0.6387,-0.6344,-0.6227,-0.6083,-0.6056,-0.5871,-0.571,-0.5801,-0.5801,-0.5855,-0.5961,-0.6081,-0.6173,-0.6303,-0.6613,-0.6731,-0.6842,-0.7297,-0.7543,-0.7643,-0.7889,-0.8874,-1.035,-1.2063,-1.3195,-1.3962,-1.4298,-1.4298,-1.4298,-1.4298,-1.4298,-1.4298,-1.4298,-1.4544,-1.4742,-1.4838,-1.501,-1.5345,-1.5417,-1.5233,-1.5126,-1.5164,-1.5104,-1.501,-1.5157,-1.5565,-1.5839,-1.6015,-1.6763,-1.7412,-1.8519,-1.9484,-2.0085,-2.0728,-2.1024,-2.0974,-2.0768,-2.0461,-2.0136,-1.9747,-1.9448,-1.932,-1.9429,-1.9557,-1.9676,-1.9833,-1.9968,-2.0246,-2.0427,-2.0638,-2.0864,-2.1007,-2.0624,-2.0166,-1.9717,-1.9209,-1.8578,-1.8178,-1.8018,0.465,0.3388,0.2295,0.178,0.1696,0.1764,0.1638,0.1339,0.0965,0.0505,0.0,0.0,0.0,0.0,0.0,0.0,0.0,0.0,0.0,0.0,-0.0455,-0.0909,-0.1514,-0.242,-0.3475,-0.4429,-0.5186,-0.5789,-0.6387,-0.6387,-0.6387,-0.6387,-0.6387,-0.6387,-0.6387,-0.6387,-0.6387,-0.6372,-0.6225,-0.6086,-0.6018,-0.5885,-0.5694,-0.5696,-0.5704,-0.5773,-0.5855,-0.5961,-0.6081,-0.6248,-0.6453,-0.665,-0.6822,-0.7092,-0.7441,-0.754,-0.8336,-0.9365,-1.0935,-1.2165,-1.3238,-1.4154,-1.4298,-1.4298,-1.4298,-1.4298,-1.4298,-1.4298,-1.4298,-1.4448,-1.464,-1.4688,-1.486,-1.5238,-1.5342,-1.5167,-1.5192,-1.5204,-1.5124,-1.5003,-1.5064,-1.5418,-1.5704,-1.5846,-1.6204,-1.6763,-1.7372,-1.8342,-1.9355,-2.0141,-2.0836,-2.0944,-2.0909,-2.0674,-2.0342,-1.9976,-1.9637,-1.9347,-1.946,-1.9636,-1.9833,-2.0029,-2.0059,-2.0137,-2.0408,-2.0621,-2.072,-2.0654,-2.0586,-2.0332,-1.9902,-1.9365,-1.8724,-1.8403,-1.8174,0.4645,0.3384,0.2292,0.1766,0.1719,0.1716,0.1388,0.0859,0.0859,0.0556,0.0,0.0,0.0,0.0,0.0,0.0,0.0,0.0,0.0,0.0,0.0,-0.0556,-0.106,-0.1866,-0.2922,-0.3927,-0.478,-0.5586,-0.6337,-0.6387,-0.6387,-0.6387,-0.6387,-0.6387,-0.6387,-0.6387,-0.6387,-0.6374,-0.6217,-0.6105,-0.6037,-0.586,-0.5712,-0.5688,-0.5694,-0.5696,-0.5798,-0.5871,-0.5972,-0.6086,-0.6251,-0.6317,-0.6539,-0.6933,-0.7086,-0.7633,-0.873,-0.9858,-1.0984,-1.2019,-1.3093,-1.3968,-1.4202,-1.425,-1.4298,-1.4298,-1.4298,-1.4298,-1.4298,-1.4442,-1.4586,-1.4729,-1.4873,-1.5146,-1.5391,-1.535,-1.5411,-1.5364,-1.5284,-1.5251,-1.5317,-1.5491,-1.5624,-1.5792,-1.5866,-1.6163,-1.677,-1.7412,-1.8473,-1.9712,-2.0367,-2.0935,-2.0951,-2.0921,-2.0607,-2.0259,-1.9893,-1.9604,-1.9673,-1.9833,-2.002,-2.0177,-2.0294,-2.0411,-2.0527,-2.0635,-2.0703,-2.0791,-2.083,-2.0518,-2.0117,-1.9482,-1.8841,-1.8627,-1.8403,0.459,0.3318,0.2213,0.1665,0.1633,0.163,0.1421,0.1112,0.1061,0.0808,0.0303,0.0303,0.0151,0.0,0.0,0.0,0.0,0.0,0.0,0.0,0.0,0.0,-0.0606,-0.1362,-0.2418,-0.3473,-0.4429,-0.5436,-0.6237,-0.6387,-0.6387,-0.6387,-0.6387,-0.6387,-0.6387,-0.6387,-0.6387,-0.6382,-0.6208,-0.6124,-0.6034,-0.5863,-0.5734,-0.5694,-0.5688,-0.5688,-0.5715,-0.5833,-0.592,-0.5975,-0.6213,-0.6293,-0.6355,-0.6883,-0.7285,-0.7839,-0.8783,-0.9723,-1.0641,-1.1629,-1.2662,-1.3534,-1.3871,-1.4106,-1.4202,-1.4298,-1.4298,-1.4298,-1.4298,-1.4442,-1.4442,-1.4538,-1.4783,-1.5077,-1.5302,-1.5354,-1.5378,-1.5484,-1.5384,-1.5144,-1.5224,-1.5337,-1.5484,-1.5631,-1.5718,-1.5866,-1.6211,-1.6857,-1.7684,-1.8926,-1.9985,-2.061,-2.1141,-2.1176,-2.0961,-2.0622,-2.0186,-1.9911,-1.9934,-1.9929,-1.9942,-2.0137,-2.045,-2.0615,-2.0615,-2.0635,-2.0644,-2.0732,-2.0791,-2.0723,-2.039,-1.9658,-1.9046,-1.89,-1.8666,0.4543,0.3322,0.218,0.1645,0.162,0.1566,0.1516,0.1364,0.1212,0.0909,0.0455,0.0404,0.0,0.0,0.0,0.0,0.0,0.0,0.0,0.0,0.0,0.0,0.0,-0.1109,-0.2217,-0.3224,-0.4279,-0.5386,-0.6137,-0.6387,-0.6387,-0.6387,-0.6387,-0.6387,-0.6387,-0.6387,-0.6387,-0.6377,-0.6274,-0.6154,-0.6029,-0.5901,-0.5766,-0.5699,-0.5694,-0.5688,-0.5694,-0.582,-0.585,-0.5909,-0.6113,-0.627,-0.6365,-0.6869,-0.7434,-0.7988,-0.863,-0.932,-1.01,-1.1091,-1.2116,-1.2948,-1.3539,-1.3919,-1.416,-1.4298,-1.4298,-1.4298,-1.4298,-1.4298,-1.4298,-1.4352,-1.4694,-1.5035,-1.514,-1.5244,-1.5396,-1.5545,-1.5331,-1.5003,-1.4983,-1.509,-1.5231,-1.5418,-1.5598,-1.5799,-1.6021,-1.6447,-1.7326,-1.8427,-1.9538,-2.0365,-2.1042,-2.152,-2.1165,-2.0784,-2.0415,-2.0081,-2.0018,-2.0036,-1.9976,-2.0098,-2.0411,-2.0537,-2.0615,-2.0635,-2.0654,-2.0635,-2.0654,-2.0615,-2.0576,-2.0059,-1.9609,-1.9434,-1.9131,0.4473,0.3255,0.2124,0.1641,0.1568,0.1566,0.1566,0.1566,0.1364,0.096,0.0556,0.0455,0.0353,0.0,0.0,0.0,0.0,0.0,0.0,0.0,0.0,0.0,0.0,-0.111,-0.2167,-0.3224,-0.4279,-0.5334,-0.6137,-0.6387,-0.6387,-0.6387,-0.6387,-0.6387,-0.6387,-0.6387,-0.6387,-0.6412,-0.6336,-0.6236,-0.6105,-0.5977,-0.5855,-0.5771,-0.5699,-0.5688,-0.5688,-0.5754,-0.5782,-0.5893,-0.6021,-0.6146,-0.6583,-0.6872,-0.7471,-0.7935,-0.8482,-0.897,-0.9612,-1.0502,-1.1433,-1.2311,-1.3087,-1.3582,-1.3871,-1.425,-1.4298,-1.4298,-1.4298,-1.4298,-1.4298,-1.4346,-1.4592,-1.4939,-1.5112,-1.533,-1.5576,-1.5598,-1.5431,-1.5137,-1.5003,-1.511,-1.5304,-1.5511,-1.5685,-1.5798,-1.6007,-1.6306,-1.6918,-1.7932,-1.8904,-1.992,-2.0619,-2.1123,-2.1048,-2.0705,-2.0504,-2.0292,-2.0135,-1.995,-1.979,-2.0029,-2.0372,-2.0498,-2.0615,-2.0615,-2.0615,-2.0615,-2.0615,-2.0615,-2.0546,-2.0371,-2.0137,-1.9912,-1.9521,0.3935,0.2844,0.1983,0.1623,0.1567,0.1566,0.1566,0.1566,0.1516,0.1313,0.1061,0.096,0.0707,0.0303,0.0252,0.0202,0.0,0.0,0.0,0.0,0.0,0.0,0.0,-0.1059,-0.2116,-0.3222,-0.4279,-0.5384,-0.6137,-0.6387,-0.6387,-0.6387,-0.6387,-0.6387,-0.6387,-0.6387,-0.6384,-0.6431,-0.6399,-0.6325,-0.6222,-0.6032,-0.5877,-0.5833,-0.5766,-0.5754,-0.5699,-0.5696,-0.5704,-0.5798,-0.5986,-0.6367,-0.693,-0.712,-0.7437,-0.7939,-0.8283,-0.8627,-0.9069,-0.9813,-1.065,-1.1482,-1.2219,-1.2953,-1.3534,-1.401,-1.4298,-1.4298,-1.4298,-1.4298,-1.4298,-1.4346,-1.4496,-1.4838,-1.5131,-1.5458,-1.5737,-1.5618,-1.5504,-1.5324,-1.5169,-1.5256,-1.5404,-1.5598,-1.5758,-1.5932,-1.6106,-1.6367,-1.6639,-1.7355,-1.8079,-1.905,-1.9973,-2.0459,-2.0527,-2.0517,-2.0263,-2.0101,-1.9993,-1.9811,-1.9643,-1.996,-2.0264,-2.0498,-2.0615,-2.0654,-2.0664,-2.0615,-2.0615,-2.0615,-2.0595,-2.0449,-2.0449,-2.0283,-1.9901,0.3382,0.2575,0.1869,0.1566,0.1566,0.1566,0.1566,0.1566,0.1566,0.1516,0.1364,0.1212,0.0909,0.0455,0.0404,0.0252,0.0,0.0,0.0,0.0,0.0,0.0,0.0,-0.0958,-0.1866,-0.2923,-0.4479,-0.5584,-0.6137,-0.6387,-0.6387,-0.6387,-0.6387,-0.6387,-0.6387,-0.6387,-0.6387,-0.6387,-0.6387,-0.6399,-0.6325,-0.6168,-0.6026,-0.598,-0.5888,-0.5822,-0.5784,-0.5729,-0.5691,-0.5795,-0.5964,-0.6387,-0.681,-0.6986,-0.7291,-0.7643,-0.7942,-0.8137,-0.8581,-0.9126,-0.9813,-1.0551,-1.1389,-1.2122,-1.3039,-1.3565,-1.4058,-1.4112,-1.4298,-1.4298,-1.4298,-1.4346,-1.4592,-1.4939,-1.5131,-1.5315,-1.5563,-1.5611,-1.5491,-1.5378,-1.5264,-1.5284,-1.5518,-1.5845,-1.5992,-1.6072,-1.6246,-1.639,-1.6677,-1.6831,-1.7529,-1.8132,-1.8999,-1.9716,-1.9974,-2.0007,-1.9921,-1.9847,-1.9711,-1.9811,-1.976,-1.995,-2.0196,-2.0498,-2.0742,-2.0772,-2.0762,-2.0674,-2.0615,-2.0615,-2.0615,-2.0595,-2.0615,-2.0615,-2.0321,0.2915,0.2273,0.1768,0.1566,0.1566,0.1566,0.1566,0.1566,0.1566,0.1566,0.1566,0.1364,0.096,0.0657,0.0505,0.0303,0.0,0.0,0.0,0.0,0.0,0.0,0.0,-0.0808,-0.1716,-0.2923,-0.4431,-0.5286,-0.5939,-0.6189,-0.6387,-0.6387,-0.6387,-0.6387,-0.6387,-0.6387,-0.6387,-0.6387,-0.6387,-0.6387,-0.6388,-0.6331,-0.6208,-0.6094,-0.5999,-0.5928,-0.5877,-0.5828,-0.5765,-0.5855,-0.5999,-0.641,-0.6709,-0.6945,-0.7244,-0.7543,-0.7793,-0.7942,-0.8137,-0.8581,-0.9072,-0.9661,-1.0551,-1.1433,-1.2301,-1.3033,-1.3528,-1.3968,-1.4112,-1.4298,-1.4298,-1.4358,-1.4652,-1.5034,-1.5178,-1.5396,-1.5566,-1.5698,-1.5671,-1.5591,-1.5591,-1.5585,-1.5785,-1.6112,-1.6295,-1.6319,-1.6451,-1.6549,-1.6675,-1.6711,-1.7084,-1.7361,-1.7826,-1.8481,-1.9085,-1.9181,-1.9133,-1.9345,-1.9279,-1.9632,-1.9886,-1.9959,-2.0224,-2.0722,-2.0879,-2.0801,-2.0752,-2.0684,-2.0674,-2.0615,-2.0615,-2.0615,-2.0615,-2.0625,-2.0683,0.2278,0.1768,0.1617,0.1566,0.1566,0.1566,0.1566,0.1566,0.1566,0.1566,0.1566,0.1566,0.1313,0.106,0.1061,0.0808,0.0303,0.0252,0.0151,0.0,0.0,0.0,0.0,-0.0656,-0.1765,-0.2973,-0.418,-0.5035,-0.5589,-0.6037,-0.6387,-0.6387,-0.6387,-0.6387,-0.6387,-0.6387,-0.6387,-0.6387,-0.6387,-0.6387,-0.6407,-0.6347,-0.6279,-0.6189,-0.6116,-0.6007,-0.5926,-0.5888,-0.5871,-0.5942,-0.6136,-0.6422,-0.6679,-0.6942,-0.7241,-0.7494,-0.7743,-0.7842,-0.8091,-0.8283,-0.8726,-0.8973,-0.9813,-1.0556,-1.1385,-1.2219,-1.2802,-1.3582,-1.3823,-1.4208,-1.4262,-1.434,-1.4563,-1.5163,-1.5515,-1.5815,-1.6062,-1.6226,-1.6333,-1.6313,-1.6306,-1.6306,-1.6346,-1.658,-1.6757,-1.6817,-1.6851,-1.6931,-1.6733,-1.6715,-1.6691,-1.6827,-1.7002,-1.7243,-1.7827,-1.8063,-1.8154,-1.849,-1.8982,-1.9543,-1.9869,-1.988,-2.0232,-2.1032,-2.0957,-2.0772,-2.0742,-2.085,-2.0674,-2.0615,-2.0615,-2.0615,-2.0615,-2.0654,-2.0684]}]]